[[{"header":{"parameterUnit":"m.s-1","parameterCategory":1,"la1":30.6,"la2":29.2853,"lo1":-89.7004,"lo2":-87.6739,"dy":0.0162,"dx":0.0183,"nx":112,"ny":82,"refTime":"2026-03-16T12:00:00:Z","depth":0,"parameterNumber":2,"parameterNumberName":"U-component_of_WINDS"},"data":[0.0,0.0,0.0,0.0,0.0,0.0,0.0,0.0,0.0,0.0,0.0,0.0,0.0,0.0,0.0,0.0,0.0,0.0,0.0,0.0,0.0,0.0,0.0,0.0,0.0,0.0,0.0,0.0,0.0,0.0,0.0,0.0,0.0,0.0,0.0,0.0,0.0,0.0,0.0,0.0,0.0,0.0,0.0,0.0,0.0,0.0,0.0,0.0,0.0,0.0,0.0,0.0,0.0,0.0,0.0,0.0,0.0,0.0,0.0,0.0,0.0,0.0,0.0,0.0,0.0,0.0,0.0,0.0,0.0,0.0,0.0,0.0,0.0,0.0,0.0,0.0,0.0,0.0,0.0,0.0,0.0,0.0,0.0,0.0,0.0,0.0,0.0,0.0,0.0,0.0,0.0,6.3857,7.4348,8.0718,8.0021,7.8883,7.356,6.2658,0.0,0.0,0.0,0.0,0.0,0.0,0.0,0.0,0.0,0.0,0.0,0.0,0.0,0.0,0.0,0.0,0.0,0.0,0.0,0.0,0.0,0.0,0.0,0.0,0.0,0.0,0.0,0.0,0.0,0.0,0.0,0.0,0.0,0.0,0.0,0.0,0.0,0.0,0.0,0.0,0.0,0.0,0.0,0.0,0.0,0.0,0.0,0.0,0.0,0.0,0.0,0.0,0.0,0.0,0.0,0.0,0.0,0.0,0.0,0.0,0.0,0.0,0.0,0.0,0.0,0.0,0.0,0.0,0.0,0.0,0.0,0.0,0.0,0.0,0.0,0.0,0.0,0.0,0.0,0.0,0.0,0.0,0.0,0.0,0.0,0.0,0.0,0.0,0.0,0.0,0.0,0.0,0.0,0.0,0.0,0.0,0.0,0.0,0.0,0.0,0.0,0.0,0.0,0.0,5.9835,7.3566,7.86,8.0938,8.0828,7.8148,7.2826,6.4237,0.0,0.0,0.0,0.0,0.0,0.0,0.0,0.0,0.0,0.0,0.0,0.0,0.0,0.0,0.0,0.0,0.0,0.0,0.0,0.0,0.0,0.0,0.0,0.0,0.0,0.0,0.0,0.0,0.0,0.0,0.0,0.0,0.0,0.0,0.0,0.0,0.0,0.0,0.0,0.0,0.0,0.0,0.0,0.0,0.0,0.0,0.0,0.0,0.0,0.0,0.0,0.0,0.0,0.0,0.0,0.0,0.0,0.0,0.0,0.0,0.0,0.0,0.0,0.0,0.0,0.0,0.0,0.0,0.0,0.0,0.0,0.0,0.0,0.0,0.0,0.0,0.0,0.0,0.0,0.0,0.0,0.0,0.0,0.0,0.0,0.0,0.0,0.0,0.0,0.0,0.0,0.0,0.0,0.0,0.0,0.0,0.0,0.0,0.0,0.0,0.0,0.0,0.0,5.6845,6.4402,7.7243,8.0461,8.1489,8.1048,7.8809,7.3634,6.4677,5.9501,0.0,0.0,0.0,0.0,0.0,0.0,0.0,0.0,0.0,0.0,0.0,0.0,0.0,0.0,0.0,0.0,0.0,0.0,0.0,0.0,0.0,0.0,0.0,0.0,0.0,0.0,0.0,0.0,0.0,0.0,0.0,0.0,0.0,0.0,0.0,0.0,0.0,0.0,0.0,0.0,0.0,0.0,0.0,0.0,0.0,0.0,0.0,0.0,0.0,0.0,0.0,0.0,0.0,0.0,0.0,0.0,0.0,0.0,0.0,0.0,0.0,0.0,0.0,0.0,0.0,0.0,0.0,0.0,0.0,0.0,0.0,0.0,0.0,0.0,0.0,0.0,0.0,0.0,0.0,0.0,0.0,0.0,0.0,0.0,0.0,0.0,0.0,0.0,0.0,0.0,0.0,0.0,0.0,0.0,0.0,0.0,0.0,0.0,0.0,0.0,0.0,0.0,6.4475,7.0257,7.914,8.1342,8.1929,8.1342,7.8919,7.3707,6.4934,5.8914,0.0,0.0,0.0,0.0,0.0,0.0,0.0,0.0,0.0,0.0,0.0,0.0,0.0,0.0,0.0,0.0,0.0,0.0,0.0,0.0,0.0,0.0,0.0,0.0,0.0,0.0,0.0,0.0,0.0,0.0,0.0,0.0,0.0,0.0,0.0,0.0,0.0,0.0,0.0,0.0,0.0,0.0,0.0,0.0,0.0,0.0,0.0,0.0,0.0,0.0,0.0,0.0,0.0,0.0,0.0,0.0,0.0,0.0,0.0,0.0,0.0,0.0,0.0,0.0,0.0,0.0,0.0,0.0,0.0,0.0,0.0,0.0,0.0,0.0,0.0,0.0,0.0,0.0,0.0,0.0,0.0,0.0,0.0,0.0,0.0,0.0,0.0,0.0,0.0,0.0,0.0,0.0,0.0,0.0,0.0,0.0,0.0,0.0,0.0,0.0,0.0,0.0,6.808,7.6717,8.0498,8.1672,8.2186,8.2113,7.7157,7.1505,6.5595,5.7116,0.0,0.0,0.0,0.0,0.0,0.0,0.0,0.0,0.0,0.0,0.0,0.0,0.0,0.0,0.0,0.0,0.0,0.0,0.0,0.0,0.0,0.0,0.0,0.0,0.0,0.0,0.0,0.0,0.0,0.0,0.0,0.0,0.0,0.0,0.0,0.0,0.0,0.0,0.0,0.0,0.0,0.0,0.0,0.0,0.0,0.0,0.0,0.0,0.0,0.0,0.0,0.0,0.0,0.0,0.0,0.0,0.0,0.0,0.0,0.0,0.0,0.0,0.0,0.0,0.0,0.0,0.0,0.0,0.0,0.0,0.0,0.0,0.0,0.0,0.0,0.0,0.0,0.0,0.0,0.0,0.0,0.0,0.0,0.0,0.0,0.0,0.0,0.0,0.0,0.0,0.0,0.0,0.0,0.0,0.0,0.0,0.0,0.0,0.0,0.0,0.0,0.0,6.6316,7.4771,0.0,8.292,8.3508,8.2994,8.0057,7.4551,6.5852,0.0,0.0,0.0,0.0,0.0,0.0,0.0,0.0,0.0,0.0,0.0,0.0,0.0,0.0,0.0,0.0,0.0,0.0,0.0,0.0,0.0,0.0,0.0,0.0,0.0,0.0,0.0,0.0,0.0,0.0,0.0,0.0,0.0,0.0,0.0,0.0,0.0,0.0,0.0,0.0,0.0,0.0,0.0,0.0,0.0,0.0,0.0,0.0,0.0,0.0,0.0,0.0,0.0,0.0,0.0,0.0,0.0,0.0,0.0,0.0,0.0,0.0,0.0,0.0,0.0,0.0,0.0,0.0,0.0,0.0,0.0,0.0,0.0,0.0,0.0,0.0,0.0,0.0,0.0,0.0,0.0,0.0,0.0,0.0,0.0,0.0,0.0,0.0,0.0,0.0,0.0,0.0,0.0,0.0,0.0,0.0,0.0,0.0,0.0,0.0,0.0,0.0,5.7424,6.7024,7.5689,0.0,8.4168,8.4756,8.4205,8.1525,7.5689,6.5925,0.0,0.0,0.0,0.0,0.0,0.0,0.0,0.0,0.0,0.0,0.0,0.0,0.0,0.0,0.0,0.0,0.0,0.0,0.0,0.0,0.0,0.0,0.0,0.0,0.0,0.0,0.0,0.0,0.0,0.0,0.0,0.0,0.0,0.0,0.0,0.0,0.0,0.0,0.0,0.0,0.0,0.0,0.0,0.0,0.0,0.0,0.0,0.0,0.0,0.0,0.0,0.0,0.0,0.0,0.0,0.0,0.0,0.0,0.0,0.0,0.0,0.0,0.0,0.0,0.0,0.0,0.0,0.0,0.0,0.0,0.0,0.0,0.0,0.0,0.0,0.0,0.0,0.0,0.0,0.0,0.0,0.0,0.0,0.0,0.0,0.0,0.0,0.0,0.0,0.0,0.0,0.0,0.0,0.0,0.0,0.0,0.0,0.0,0.0,0.0,0.0,0.0,5.9414,7.1636,8.1048,8.4278,8.5343,8.582,8.582,8.0645,7.3927,0.0,0.0,0.0,0.0,0.0,0.0,0.0,0.0,0.0,0.0,0.0,0.0,0.0,0.0,0.0,0.0,0.0,0.0,0.0,0.0,0.0,0.0,0.0,0.0,0.0,0.0,0.0,0.0,0.0,0.0,0.0,0.0,0.0,0.0,0.0,0.0,0.0,0.0,0.0,0.0,0.0,0.0,0.0,0.0,0.0,0.0,0.0,0.0,0.0,0.0,0.0,0.0,0.0,0.0,0.0,0.0,0.0,0.0,0.0,0.0,0.0,0.0,0.0,0.0,0.0,0.0,0.0,0.0,0.0,0.0,0.0,0.0,0.0,0.0,0.0,0.0,0.0,0.0,0.0,0.0,0.0,0.0,0.0,0.0,0.0,0.0,0.0,0.0,0.0,0.0,0.0,0.0,0.0,0.0,0.0,0.0,0.0,0.0,0.0,0.0,0.0,0.0,0.0,6.026,7.3458,8.3361,8.6004,8.7545,8.7876,8.6738,8.3581,7.6937,6.5999,0.0,0.0,0.0,0.0,0.0,0.0,0.0,0.0,0.0,0.0,0.0,0.0,0.0,0.0,0.0,0.0,0.0,0.0,0.0,0.0,0.0,0.0,0.0,0.0,0.0,0.0,0.0,0.0,0.0,0.0,0.0,0.0,0.0,0.0,0.0,0.0,0.0,0.0,0.0,0.0,0.0,0.0,0.0,0.0,0.0,0.0,0.0,0.0,0.0,0.0,0.0,0.0,0.0,0.0,0.0,0.0,0.0,0.0,0.0,0.0,0.0,0.0,0.0,0.0,0.0,0.0,0.0,0.0,0.0,0.0,0.0,0.0,0.0,0.0,0.0,0.0,0.0,0.0,0.0,0.0,0.0,0.0,0.0,0.0,0.0,0.0,0.0,0.0,0.0,0.0,0.0,0.0,0.0,0.0,0.0,0.0,0.0,0.0,0.0,0.0,0.0,0.0,6.2269,7.5223,8.5049,8.8133,8.9307,8.9638,8.8977,8.6407,7.9947,6.8421,0.0,0.0,0.0,0.0,0.0,0.0,0.0,0.0,0.0,0.0,0.0,0.0,0.0,0.0,0.0,0.0,0.0,0.0,0.0,0.0,0.0,0.0,0.0,0.0,0.0,0.0,0.0,0.0,0.0,0.0,0.0,0.0,0.0,0.0,0.0,0.0,0.0,0.0,0.0,0.0,0.0,0.0,0.0,0.0,0.0,0.0,0.0,0.0,0.0,0.0,0.0,0.0,0.0,0.0,0.0,0.0,0.0,0.0,0.0,0.0,0.0,0.0,0.0,0.0,0.0,0.0,0.0,0.0,0.0,0.0,0.0,0.0,0.0,0.0,0.0,0.0,0.0,0.0,0.0,0.0,0.0,0.0,0.0,0.0,0.0,0.0,0.0,0.0,0.0,0.0,0.0,0.0,0.0,0.0,0.0,0.0,0.0,0.0,0.0,0.0,0.0,0.0,6.5,7.6883,8.6297,9.0188,9.0665,9.0996,9.162,8.883,8.259,7.2202,0.0,0.0,0.0,0.0,0.0,0.0,0.0,0.0,0.0,0.0,0.0,0.0,0.0,0.0,0.0,0.0,0.0,0.0,0.0,0.0,0.0,0.0,0.0,0.0,0.0,0.0,0.0,0.0,0.0,0.0,0.0,0.0,0.0,0.0,0.0,0.0,0.0,0.0,0.0,0.0,0.0,0.0,0.0,0.0,0.0,0.0,0.0,0.0,0.0,0.0,0.0,0.0,0.0,0.0,0.0,0.0,0.0,0.0,0.0,0.0,5.0564,0.0,0.0,0.0,0.0,0.0,0.0,0.0,0.0,0.0,0.0,0.0,0.0,0.0,0.0,0.0,0.0,0.0,0.0,0.0,0.0,0.0,0.0,0.0,0.0,0.0,0.0,0.0,0.0,0.0,0.0,0.0,0.0,0.0,0.0,0.0,0.0,0.0,0.0,0.0,0.0,0.0,6.5836,7.8199,8.7545,9.0298,9.1179,9.1363,9.0922,8.85,8.3067,7.378,6.7577,0.0,0.0,0.0,0.0,0.0,0.0,0.0,0.0,0.0,0.0,0.0,0.0,0.0,0.0,0.0,0.0,0.0,0.0,0.0,0.0,0.0,0.0,0.0,0.0,0.0,0.0,0.0,0.0,0.0,0.0,0.0,0.0,0.0,0.0,0.0,0.0,0.0,0.0,0.0,0.0,0.0,0.0,0.0,0.0,0.0,0.0,0.0,0.0,0.0,0.0,0.0,0.0,0.0,0.0,0.0,0.0,0.0,0.0,0.0,0.0,5.3528,0.0,0.0,0.0,0.0,0.0,0.0,0.0,0.0,0.0,0.0,0.0,0.0,0.0,0.0,0.0,0.0,0.0,0.0,0.0,0.0,0.0,0.0,0.0,0.0,0.0,0.0,0.0,0.0,0.0,0.0,0.0,0.0,0.0,0.0,0.0,0.0,0.0,0.0,0.0,0.0,6.8142,7.9499,8.839,9.1987,9.2024,9.195,9.2354,8.9417,8.4792,7.8185,7.1394,0.0,0.0,0.0,0.0,0.0,0.0,0.0,0.0,0.0,0.0,0.0,0.0,0.0,0.0,0.0,0.0,0.0,0.0,0.0,0.0,0.0,0.0,0.0,0.0,0.0,0.0,0.0,0.0,0.0,0.0,0.0,0.0,0.0,0.0,0.0,0.0,0.0,0.0,0.0,0.0,0.0,0.0,0.0,0.0,0.0,0.0,0.0,0.0,0.0,0.0,0.0,0.0,0.0,6.5262,6.7292,6.8735,6.9634,7.0405,7.0704,6.4779,6.2669,6.3089,5.7305,0.0,0.0,0.0,0.0,0.0,0.0,0.0,0.0,0.0,0.0,0.0,0.0,0.0,0.0,0.0,0.0,0.0,0.0,0.0,0.0,0.0,0.0,0.0,0.0,6.4824,6.4934,0.0,0.0,0.0,0.0,0.0,0.0,0.0,0.0,0.0,0.0,0.0,0.0,7.0954,8.0755,8.8757,9.3382,9.2611,9.2354,9.3749,9.0629,8.6958,8.3067,7.5873,6.9532,0.0,0.0,0.0,0.0,0.0,0.0,0.0,0.0,0.0,0.0,0.0,0.0,0.0,0.0,0.0,0.0,0.0,0.0,0.0,0.0,0.0,0.0,0.0,0.0,0.0,0.0,0.0,0.0,0.0,0.0,0.0,0.0,4.7241,4.7386,0.0,0.0,0.0,0.0,0.0,0.0,0.0,0.0,0.0,0.0,0.0,0.0,0.0,6.0199,6.2805,6.7283,6.9938,7.0757,7.532,7.7917,7.8723,7.9592,8.0079,8.0207,7.924,0.0,6.7741,6.5603,0.0,0.0,0.0,0.0,0.0,0.0,0.0,0.0,0.0,0.0,0.0,0.0,0.0,0.0,0.0,0.0,0.0,0.0,0.0,0.0,0.0,0.0,7.1505,7.1027,7.2312,7.312,0.0,6.3282,5.5574,5.2527,5.0398,0.0,0.0,0.0,0.0,0.0,0.0,0.0,7.334,8.1782,8.8316,9.1767,9.1913,9.1877,9.2097,9.0996,8.8867,8.5527,8.1012,7.6363,7.1651,6.486,0.0,0.0,0.0,0.0,0.0,0.0,0.0,0.0,0.0,0.0,0.0,0.0,0.0,0.0,0.0,0.0,0.0,0.0,0.0,0.0,0.0,0.0,0.0,0.0,0.0,0.0,0.0,0.0,0.0,4.6874,5.0031,4.915,5.0126,4.9117,0.0,0.0,0.0,0.0,0.0,0.0,0.0,0.0,0.0,6.5301,6.6623,6.9045,7.2863,7.5909,7.8002,7.9268,8.2665,8.4656,8.541,8.6206,8.636,8.5988,8.5988,8.3787,7.9666,7.3363,6.897,6.5762,0.0,0.0,0.0,0.0,5.909,6.0187,6.3746,6.5611,6.6141,6.4257,0.0,0.0,0.0,0.0,0.0,0.0,0.0,0.0,0.0,0.0,7.4882,7.6827,7.8148,7.8919,7.8552,7.3523,6.7136,0.0,5.8841,5.5831,4.7609,0.0,0.0,0.0,0.0,6.8274,7.5359,8.2957,8.894,9.217,9.2097,9.1987,9.2501,9.1363,8.9601,8.7288,8.3801,8.0563,7.7881,7.12,6.55,0.0,0.0,0.0,0.0,0.0,0.0,0.0,0.0,0.0,0.0,0.0,0.0,0.0,0.0,0.0,0.0,0.0,0.0,0.0,0.0,0.0,0.0,0.0,0.0,0.0,0.0,0.0,0.0,5.0545,5.3482,5.1646,5.484,5.4708,0.0,0.0,0.0,0.0,0.0,0.0,6.2989,6.4934,6.8421,7.3927,7.5065,7.7524,8.1599,8.281,8.4338,8.6119,8.7961,8.9452,9.0625,9.1451,9.1369,9.0625,9.0471,9.0358,8.9604,8.0537,7.6122,7.463,6.9975,6.6995,6.5533,6.7393,6.8294,6.9231,7.359,7.5694,7.5969,7.3004,7.0839,6.8519,6.322,0.0,0.0,0.0,0.0,6.5999,7.1688,7.4955,7.7598,8.0865,8.2223,8.281,8.281,8.1085,7.7121,0.0,6.7136,6.3833,5.4289,0.0,0.0,0.0,0.0,7.1945,7.7818,8.4205,8.9307,9.217,9.206,9.206,9.2721,9.162,9.0225,8.861,8.6077,8.3991,8.2598,7.7137,7.2432,6.8794,0.0,0.0,0.0,0.0,0.0,0.0,0.0,0.0,0.0,0.0,0.0,0.0,0.0,0.0,0.0,0.0,0.0,0.0,0.0,0.0,0.0,0.0,0.0,0.0,0.0,0.0,0.0,0.0,0.0,5.6712,6.1374,0.0,0.0,0.0,0.0,5.9674,6.2218,6.5742,7.0513,7.301,7.657,8.1489,8.3177,8.4829,8.6628,8.6738,8.7918,9.018,9.1057,9.2582,9.4837,9.5634,9.5593,9.4837,9.4159,9.3808,9.3206,8.7019,8.3907,8.267,7.9169,7.6492,7.474,7.5618,7.6993,7.8561,7.9827,8.0963,8.1925,8.1958,7.7757,7.274,7.3122,6.974,0.0,0.0,7.1701,7.3891,7.7341,8.0021,8.2076,8.3067,8.3911,8.4499,8.4499,8.3177,8.0938,0.0,7.3597,6.9633,6.5228,0.0,6.409,6.5558,6.9522,7.4661,8.1122,8.56,8.8867,9.0555,9.1363,9.1803,9.184,9.1803,9.1069,8.9454,8.8463,8.71,8.5197,8.2534,7.8618,7.3293,6.7717,0.0,0.0,0.0,0.0,0.0,0.0,0.0,0.0,0.0,0.0,0.0,0.0,0.0,0.0,0.0,0.0,0.0,0.0,0.0,0.0,0.0,0.0,0.0,0.0,0.0,0.0,0.0,0.0,6.3135,6.8054,0.0,6.3906,6.4824,6.6439,6.8091,7.0917,7.4515,7.8883,8.0388,8.2663,8.5967,8.7142,8.8463,9.0078,9.0665,9.1581,9.2967,9.4145,9.521,9.6029,9.735,9.7513,9.6799,9.6561,9.6371,9.6112,9.29,9.0335,8.8209,8.5324,8.3512,8.2493,8.2636,8.3483,8.4746,8.5552,8.6772,8.7752,8.623,8.3043,7.9665,7.9048,7.7913,7.6895,7.7267,7.8498,8.0237,8.1985,8.3875,8.549,8.6297,8.7105,8.7692,8.7692,8.6444,8.4939,8.3765,7.947,7.4551,6.9963,7.066,7.1321,6.9816,7.4368,7.936,8.3251,8.6811,8.9417,9.0482,9.1326,9.1803,9.1803,9.1326,9.0335,8.872,8.7399,8.6094,8.4741,8.3237,8.0953,7.7791,7.3849,6.659,0.0,0.0,0.0,0.0,0.0,0.0,0.0,0.0,0.0,0.0,0.0,0.0,0.0,0.0,0.0,0.0,0.0,0.0,0.0,0.0,0.0,0.0,0.0,0.0,0.0,0.0,6.8017,6.776,7.3193,7.5175,7.055,7.2092,7.4147,7.6056,7.8405,8.1305,8.4829,8.604,8.7472,8.9344,9.0482,9.1654,9.3004,9.3309,9.4007,9.5071,9.6068,9.6852,9.7404,9.8686,9.9155,9.8905,9.8639,9.8533,9.8408,9.7036,9.5389,9.348,9.0633,8.9263,8.8921,8.872,8.9109,8.9764,9.0219,9.0941,9.1364,8.9671,8.7786,8.5945,8.4706,8.4748,8.4995,8.3876,8.4405,8.5418,8.6023,8.7031,8.7949,8.85,8.9014,8.9417,8.9417,8.8573,8.7839,8.7839,8.3691,7.9103,7.5579,7.6754,7.7268,7.4588,7.8772,8.281,8.4389,8.7435,8.9711,9.0519,9.1326,9.1803,9.1803,9.0335,8.905,8.8243,8.5673,8.4009,8.3579,8.2045,8.0447,7.8866,7.4587,6.7883,5.8745,0.0,0.0,0.0,0.0,0.0,0.0,0.0,0.0,0.0,0.0,0.0,0.0,0.0,0.0,0.0,0.0,0.0,0.0,0.0,0.0,0.0,0.0,0.0,6.0713,6.6953,7.1284,7.0624,7.6864,7.9653,7.5726,7.8148,8.0975,8.3398,8.4315,8.5783,8.8169,8.9821,9.1069,9.184,9.3492,9.4704,9.5446,9.4813,9.5182,9.6675,9.6675,9.753,9.9065,9.9847,10.0589,10.1288,10.0505,10.0212,9.9981,9.9243,9.8834,9.8442,9.5095,9.3787,9.3787,9.3749,9.3749,9.3749,9.3749,9.3249,9.2595,9.2595,9.1979,9.1133,9.0287,9.0148,9.0105,8.9364,8.9273,8.9399,8.944,8.9454,8.9454,8.9491,8.9491,8.9491,8.9491,8.9491,8.9454,8.9454,8.6297,8.3324,8.248,8.2296,8.1746,8.0204,8.2627,0.0,8.4719,8.7472,8.9711,9.0445,9.1253,9.173,9.173,8.8793,8.7288,8.8023,8.3618,8.128,8.1866,7.9367,7.7533,7.6577,6.9999,6.4661,6.0648,0.0,0.0,0.0,0.0,0.0,0.0,0.0,0.0,0.0,0.0,0.0,0.0,0.0,0.0,0.0,0.0,0.0,0.0,0.0,0.0,0.0,0.0,6.6769,6.7357,7.2716,7.7598,8.0277,8.3434,8.5159,8.4609,8.4829,8.5563,8.6811,8.7655,8.8904,9.0702,9.184,9.2794,9.3565,9.518,9.6139,9.6326,9.787,9.8277,9.758,9.8749,9.9208,9.9065,9.9847,10.0589,10.1327,10.1091,10.0709,10.0019,9.917,9.8442,9.775,9.6826,9.6095,9.5518,9.4864,9.4634,9.4711,9.5365,9.5018,9.4287,9.4287,9.371,9.2979,9.2749,9.2715,9.2603,9.1902,9.1344,9.0982,9.1035,9.0642,9.0445,9.0996,9.1143,9.1143,9.1143,9.0702,9.0298,9.0298,8.894,8.7325,8.593,8.4719,8.3985,8.4132,8.4903,0.0,8.7068,8.85,8.9271,8.8904,8.9601,9.0078,9.0078,8.7655,8.5967,8.56,8.27,8.0588,7.962,7.9702,7.9798,7.9786,7.2562,6.7944,0.0,0.0,0.0,0.0,0.0,0.0,0.0,0.0,0.0,0.0,0.0,0.0,0.0,0.0,0.0,0.0,0.0,0.0,0.0,0.0,0.0,0.0,6.8935,7.4221,7.635,7.925,8.237,8.571,8.7545,8.883,8.9674,8.9307,8.9381,9.0188,9.0702,9.1657,9.3272,9.3822,9.4483,9.529,9.6539,9.7392,9.7691,9.9131,9.9353,9.8393,9.9029,9.9167,9.9007,9.9455,10.028,10.1289,10.1289,10.1019,10.0596,10.0096,9.9558,0.0,0.0,0.0,0.0,0.0,9.5518,9.5634,9.6134,9.598,9.5518,9.5518,9.5211,9.4711,9.4364,9.448,9.4561,9.3497,9.2972,9.2654,9.2692,9.1919,9.1326,9.2134,9.206,9.1803,9.1803,9.1436,9.1106,9.1106,9.0445,0.0,8.8683,8.7472,8.6554,8.6334,8.6885,8.7509,8.8133,8.9197,8.9858,8.9711,9.0152,9.0408,9.0408,8.7582,0.0,0.0,0.0,7.8467,7.6273,7.6928,0.0,0.0,0.0,0.0,0.0,0.0,0.0,0.0,5.9525,5.7685,0.0,0.0,0.0,0.0,0.0,0.0,0.0,0.0,0.0,0.0,0.0,0.0,0.0,0.0,0.0,0.0,7.6166,8.1709,8.5637,8.5747,8.6224,8.8353,8.9968,9.1216,9.206,9.2097,9.2391,9.3198,9.3308,9.4042,9.5547,0.0,0.0,0.0,0.0,9.8502,9.9076,9.9278,9.9204,9.8927,9.8319,9.8342,9.889,9.8949,9.9809,10.121,10.1288,10.1212,10.1212,10.1212,10.1096,10.0712,9.7865,9.6596,9.6442,9.6442,9.6365,9.6288,9.6288,0.0,0.0,9.6288,9.6288,9.6172,9.5365,9.5672,9.5983,9.4572,9.4198,9.4198,9.4161,9.3054,9.2132,9.2758,9.2354,9.1803,9.1803,9.1803,9.1803,9.1803,9.1216,9.0739,9.0739,9.0005,8.894,8.7509,8.85,8.9197,8.8536,8.9711,9.0886,9.1583,0.0,0.0,9.1803,8.828,8.604,8.593,8.0755,7.6625,7.4124,7.4017,7.4256,7.4793,7.5399,7.6823,7.9092,7.9309,7.875,7.7225,6.6083,6.248,0.0,0.0,0.0,0.0,0.0,0.0,0.0,0.0,0.0,0.0,0.0,0.0,0.0,0.0,0.0,7.4184,7.9837,8.4866,8.8243,8.9711,9.0592,9.1033,9.1987,9.2941,9.3749,9.3822,9.3896,9.4042,9.4666,9.5474,9.6428,9.7089,9.7787,9.8631,9.9438,9.9591,9.9124,10.0389,10.0092,9.813,0.0,0.0,9.8058,9.8712,9.9547,10.0375,10.1011,10.0904,10.0289,10.0289,9.9904,9.9288,9.9327,9.8519,9.7288,9.7288,9.6865,9.6288,9.6288,9.6288,9.6288,9.6288,9.6288,9.6288,9.6095,9.6172,0.0,9.5944,9.5418,9.4855,9.4291,9.3438,9.2603,9.2204,9.1913,9.1803,9.1803,9.1803,9.1803,9.1803,9.1657,9.1583,9.1583,9.0372,8.9307,8.9014,8.9234,8.9601,9.0078,9.0408,9.0665,9.0812,9.0849,9.1106,9.173,8.9307,8.7472,8.6811,8.27,8.0496,8.0962,8.1009,8.1512,8.2676,8.217,8.2131,8.2593,8.2682,8.2294,8.1416,7.6056,7.2934,0.0,0.0,0.0,0.0,0.0,0.0,0.0,0.0,0.0,0.0,0.0,6.152,6.5191,0.0,7.4698,7.9543,8.4095,8.7839,9.0262,9.2354,9.3492,9.3088,9.3786,9.463,9.5401,9.5878,9.6098,9.6098,9.6869,9.7676,9.8447,9.8484,9.8888,9.9695,10.0099,10.0099,9.9695,10.0533,10.0127,9.8484,9.8503,9.8271,9.783,9.8651,9.9401,10.0195,10.1008,10.1096,10.0712,10.0712,10.0212,9.9519,10.0404,9.9673,9.8134,9.8134,9.7634,9.6903,9.6903,9.6634,9.6288,9.6288,9.6288,9.6288,9.6288,9.6288,9.6288,9.6288,9.5741,9.5125,9.4756,9.383,9.2942,9.2535,9.2464,9.2317,9.1877,9.2134,9.2317,9.1877,9.1803,9.1803,9.1803,9.1143,9.0592,9.0592,9.0592,9.0739,9.1143,9.1583,9.184,9.184,9.2207,9.2611,9.3015,9.0445,8.8463,8.7655,8.4572,8.3053,8.3597,8.3979,8.4605,8.5552,8.5958,8.6363,8.6748,8.7171,8.7077,8.6421,8.4152,8.1211,0.0,0.0,0.0,0.0,0.0,0.0,0.0,0.0,5.8033,6.2732,6.5118,6.7981,7.3377,7.635,7.969,8.4939,8.8096,9.0519,9.2281,9.4263,9.5327,9.4813,9.5327,9.6061,9.6869,9.753,9.797,9.8117,9.8741,9.9475,10.0283,9.9695,9.9622,10.0283,10.0503,10.0283,9.9842,9.9989,9.9585,9.8631,9.797,9.7654,9.7595,9.8405,9.9235,9.9999,10.0889,10.1289,10.1289,10.1289,10.0904,10.0404,10.1019,10.0519,9.925,9.9096,9.8481,9.775,9.775,9.7326,9.6788,9.6788,9.6788,9.6749,9.6596,9.6519,9.6519,9.6519,9.6092,9.5608,9.5567,9.4624,9.3621,9.3417,9.3345,9.3088,9.2244,9.2611,9.2831,9.195,9.1803,9.1803,9.1803,9.1803,9.1803,9.1803,9.1803,9.1803,9.1803,9.2574,9.3161,9.3308,9.4042,9.452,9.452,9.1987,9.0005,8.9197,8.7178,8.5972,8.5953,8.6701,8.7371,8.8009,8.9458,9.0402,9.0902,9.1595,9.1567,9.0861,9.0314,8.7555,5.3115,5.1206,0.0,5.6932,5.774,5.9942,0.0,0.0,7.044,7.4588,7.7341,7.9396,8.0865,8.3067,8.5857,8.9381,9.0849,9.2354,9.4777,9.5327,9.5731,9.6355,9.6502,9.6869,9.7676,9.7823,9.819,9.8924,9.9071,9.9475,10.0283,10.0209,10.0209,10.0283,10.098,10.0283,9.819,9.8888,9.8484,9.6979,9.6869,9.6835,9.6877,9.7595,9.8342,9.9235,10.0716,10.1289,10.1289,10.1289,10.1212,10.1212,10.1289,10.1212,10.0904,10.0212,9.9404,9.8634,9.8634,9.8596,9.8519,9.8519,9.8519,9.8365,9.7596,9.7365,9.7365,9.7365,9.7327,9.7127,9.6506,9.6272,9.5765,9.4482,9.4153,9.3932,9.3125,9.3015,9.2831,9.195,9.1803,9.1803,9.1803,9.1803,9.1803,9.1803,9.1803,9.1803,9.1803,9.2574,9.3382,9.4079,9.4887,9.5364,9.5364,9.4373,9.3418,9.2611,9.1583,9.1311,9.1891,9.2671,9.344,9.4113,9.4982,9.5095,9.4441,9.4518,9.4136,9.333,9.3349,9.1244,6.1741,0.0,0.0,0.0,6.6696,6.9192,7.4404,7.5579,7.657,8.0131,8.2443,8.4168,8.5453,8.6518,8.8096,0.0,9.2024,9.3235,9.5217,9.5914,9.6171,9.6025,9.6428,9.7016,9.7823,9.83,9.9121,10.0389,10.0487,10.0556,10.0981,10.056,10.0099,9.9622,10.0393,10.0283,9.9292,9.9622,9.9475,9.8778,9.8337,9.8117,9.8158,9.9382,10.0577,10.1903,10.2508,10.2789,10.2789,10.2789,10.2789,10.2789,10.2789,10.2789,10.2597,10.1289,10.0289,9.9558,9.9558,9.9211,9.8788,9.8788,9.8788,9.8711,9.8365,9.825,9.825,9.825,9.825,9.8095,9.7371,9.6847,9.6229,9.518,9.4999,9.4777,9.3969,9.4189,9.4263,9.3418,9.3235,9.3235,9.3235,9.3235,9.3235,9.3235,9.2427,9.1987,9.2501,9.3272,9.4299,9.5547,9.5988,9.6208,9.6208,9.5474,9.485,9.452,9.3712,9.3345,9.3739,9.4833,9.5609,9.593,9.7116,9.7596,9.7211,9.7211,9.7019,9.6673,9.6303,9.5022,6.6182,0.0,0.0,7.1064,7.4515,7.7304,7.8772,8.0204,8.1966,8.4535,8.6004,8.7215,8.861,8.905,8.9931,9.217,9.3418,9.4593,9.5988,9.6465,9.6392,9.5621,9.5621,9.6098,9.7126,9.8374,9.9787,10.1425,10.1342,10.1186,10.1202,10.0564,9.9916,9.9145,10.0099,10.0393,9.9989,10.0209,10.0294,10.0346,9.9485,9.9228,9.9461,10.0853,10.2121,10.3327,10.3706,10.3905,10.3905,10.3905,10.3905,10.3905,10.3905,10.3905,10.3712,10.252,10.1481,10.0789,10.0789,10.0212,9.9481,9.9481,9.9481,9.9442,9.9211,9.9173,9.9173,9.9173,9.9173,9.9018,9.8541,9.7779,9.7024,9.6201,9.595,9.5621,9.4813,9.5107,9.5254,9.4446,9.4299,9.4299,9.4299,9.4299,9.4299,9.4299,9.3272,9.2721,9.3345,9.4116,9.5144,9.6539,9.6685,9.6685,9.6685,9.6171,9.5841,9.5841,9.529,9.496,9.496,9.6173,9.6965,9.7196,9.8533,9.917,9.9173,9.9173,9.9019,9.8788,9.8504,9.7925,0.0,0.0,6.9155,7.5506,7.9543,8.281,8.5967,8.7325,8.8169,8.905,8.9271,8.9564,9.0372,9.1179,9.2244,9.3932,9.5547,9.6869,9.7713,9.7163,9.6392,9.5621,9.4153,9.3822,0.0,9.7713,9.9769,10.1427,10.076,10.0283,10.0325,10.0283,9.9916,9.9145,10.0613,10.0686,9.9145,9.9916,10.0312,10.0326,9.9461,9.95,10.0289,10.1095,10.146,10.1711,10.3205,10.3905,10.3905,10.3905,10.3905,10.3905,10.3905,10.3905,10.3905,10.3789,10.3289,10.252,10.252,10.202,10.1212,10.1212,10.1212,10.1096,10.0289,10.0096,10.0096,10.0096,10.0096,10.0094,10.0107,9.9524,9.8756,9.7918,9.7208,9.6428,9.5658,9.5474,9.5254,9.4446,9.4299,9.4299,9.4299,9.4299,9.4299,9.4299,9.4263,9.4226,9.4263,9.496,9.5804,9.6612,9.6685,9.6685,9.6685,9.6685,9.6649,9.6649,9.6649,9.6612,9.6612,9.7348,9.814,9.8932,9.9771,10.0091,10.0096,10.0096,9.9635,9.8827,9.9635,9.9581,0.0,0.0,7.7011,8.2406,8.5783,8.8206,8.9821,9.1196,9.2113,9.1824,9.0518,8.9294,8.9034,8.8766,8.9344,9.151,9.4153,9.6575,9.8447,9.8447,9.7419,9.4997,9.5621,0.0,0.0,0.0,0.0,10.0499,10.0491,10.0303,10.0276,10.0306,9.9916,9.9145,10.0099,10.0393,9.9916,10.0686,10.1419,10.1891,10.1572,10.1891,10.2825,10.2998,10.3491,10.3992,10.5103,10.5597,10.5597,10.5597,10.5597,10.5597,10.5597,10.5597,10.5597,10.5597,10.4982,10.4212,10.3597,10.2904,10.2212,10.2212,10.1789,10.1212,10.1019,10.1289,10.1789,10.1789,10.1789,10.1788,10.1817,10.1215,10.0283,9.8944,9.8441,9.7909,9.6581,9.6318,9.6208,9.5951,9.5878,9.5878,9.5878,9.5878,9.5878,9.5878,9.5437,9.5107,9.5107,9.5804,9.6392,9.6685,9.6685,9.6685,9.6685,9.6685,9.6685,9.6685,9.6685,9.6685,9.6685,9.7422,9.8151,9.9007,9.9796,10.0435,10.0904,10.0904,10.0712,10.0519,10.0789,10.0506,0.0,7.8442,8.281,8.8243,9.0776,9.217,9.3265,9.4079,9.442,9.355,9.0774,8.8205,8.7384,8.5899,8.5857,8.883,9.1803,9.4923,9.8227,9.8411,9.7493,9.5401,9.6025,9.5988,0.0,0.0,0.0,9.9683,9.9864,9.9898,9.9906,10.0122,10.0099,9.9548,10.0283,10.0686,10.0686,10.12,10.1899,10.2711,10.302,10.3289,10.3588,10.4206,10.4591,10.479,10.5908,10.6405,10.6405,10.6405,10.6405,10.6405,10.6405,10.6405,10.6405,10.6405,10.602,10.5405,10.4597,10.3789,10.3097,10.3097,10.2712,10.2212,10.2212,10.2597,10.3097,10.3097,10.3097,10.3097,10.3097,10.2484,10.1484,10.0199,9.9717,9.9188,9.7833,9.7346,9.7126,9.7126,9.6906,9.6685,9.6685,9.6942,9.7126,9.7126,9.6685,9.6245,9.5988,9.6392,9.6685,9.6685,9.6685,9.6685,9.6685,9.6685,9.6685,9.6685,9.6979,9.7016,9.6722,9.7433,9.8196,9.9007,9.9547,10.0319,10.1289,10.1289,10.1289,10.1289,10.1597,10.128,7.9889,8.3309,8.6696,9.2978,9.4558,9.4927,9.6257,9.6042,9.5182,9.3991,8.9929,8.6191,0.0,0.0,8.2113,8.6114,8.905,9.2537,9.7383,9.7419,9.6906,0.0,0.0,0.0,0.0,0.0,0.0,9.8888,0.0,9.9108,9.915,9.9879,10.0356,10.0399,10.117,10.1501,10.1494,10.1501,10.2012,10.2781,10.3614,10.3614,10.292,10.4458,10.4812,10.4071,10.5733,10.6405,10.6405,10.6405,10.6405,10.6405,10.6405,10.6405,10.6521,10.6405,10.6521,10.6405,10.5482,10.4597,10.3982,10.3982,10.3905,10.3905,10.3905,10.3905,10.3982,10.3982,10.3982,10.3982,10.3982,10.341,10.2601,10.1673,10.0944,10.0225,9.9305,9.8484,9.797,9.797,9.7346,9.6832,9.6872,9.7533,9.7933,9.8011,9.8011,9.764,9.6795,9.6722,9.6759,9.6759,9.6795,9.6832,9.6832,9.6832,9.6832,9.6832,9.753,9.7603,9.6869,9.7566,9.8349,9.912,9.912,9.9872,10.1404,10.1404,10.1404,10.152,10.2289,10.2212,8.5982,9.0251,9.4288,9.7186,9.8305,9.842,9.7027,9.7003,9.5794,9.0654,8.5339,8.0576,0.0,0.0,0.0,8.2847,8.9528,0.0,9.9952,10.0393,0.0,0.0,0.0,9.7823,9.5401,9.6465,0.0,0.0,9.8778,9.9345,9.9975,10.0826,10.1522,10.2128,10.2314,10.2091,10.1494,10.2091,10.2814,10.3715,10.3903,10.4168,10.4609,10.4987,10.5078,10.5011,10.603,10.6405,10.6405,10.6405,10.6405,10.6405,10.6405,10.679,10.729,10.6597,10.7213,10.8098,10.6597,10.5482,10.4789,10.4789,10.4405,10.3905,10.3905,10.4289,10.4789,10.4789,10.4789,10.4789,10.4789,10.4631,10.3971,10.2034,10.183,10.149,9.9532,9.8961,9.8778,9.8778,9.8631,9.868,9.931,9.9094,9.8974,9.9607,9.9204,9.83,9.6869,9.7199,9.7566,9.7566,9.8117,9.8484,9.8484,9.8484,9.8484,9.8484,9.8668,9.8704,9.8521,9.8704,9.9498,10.0759,10.0894,10.1582,10.3212,10.3212,10.3212,10.3212,10.3482,10.3405,9.2428,9.6363,9.9642,10.0918,10.133,10.0264,9.6329,9.5021,9.2533,8.511,7.9266,0.0,0.0,0.0,0.0,0.0,0.0,0.0,9.9659,10.0393,10.0393,0.0,10.0209,0.0,9.7273,9.8227,9.8814,0.0,9.9203,9.9944,10.0811,10.2044,10.2818,10.326,10.3327,10.2888,10.2015,10.2888,10.3486,10.3988,10.4419,10.4812,10.518,10.5974,10.6127,10.5803,0.0,10.7521,10.7521,10.7521,10.7521,10.7521,10.7521,10.779,10.8213,10.7713,10.8098,10.879,10.779,10.6905,10.6213,10.579,10.5405,10.4982,10.4982,10.529,10.5713,10.5713,10.5713,10.5713,10.5713,10.5713,10.5186,10.3094,10.2893,10.2723,10.0604,9.9879,9.9512,9.9181,9.9108,9.9338,10.0204,10.0204,10.0167,10.0278,10.0204,9.961,9.7974,9.8154,9.8411,9.8411,9.8851,9.9108,9.9108,9.9108,9.9108,9.9108,9.9438,9.9475,9.9108,9.9438,10.0166,10.1476,10.1497,10.2304,10.3905,10.3905,10.3905,10.3905,10.4289,10.4405,9.8643,10.1618,10.3395,10.4113,10.3563,10.122,9.4931,9.1621,8.7382,7.8598,0.0,6.8315,6.5963,0.0,7.066,7.6533,0.0,9.0959,9.8374,9.9328,9.9916,10.1604,10.098,10.0099,9.9365,9.9879,9.9989,9.9328,10.0017,10.0805,10.1614,10.2997,10.3927,10.4184,10.4124,10.3678,10.2983,10.3715,10.4124,10.4206,10.4866,10.5307,10.5598,10.7,10.7302,10.6832,10.8306,10.8906,10.8906,10.8906,10.8906,10.8906,10.8906,10.8983,10.9098,10.8906,10.8983,10.9213,10.8983,10.8482,10.7905,10.6905,10.6521,10.6405,10.6405,10.6521,10.6597,10.6597,10.6597,10.6713,10.6713,10.6713,10.6304,10.4742,10.4199,10.37,10.1975,10.0986,10.0283,9.9548,9.9438,9.9701,10.0478,10.113,10.1313,10.0671,10.1204,10.1203,9.9737,9.9402,9.9255,9.9255,9.9365,9.9438,9.9438,9.9438,9.9438,9.9438,10.0099,10.0099,9.9475,10.0099,10.087,10.2026,10.1988,10.2798,10.4597,10.4482,10.4482,10.4597,10.5213,10.5482,10.3311,10.4903,10.5787,10.5901,10.4835,10.1596,9.3623,8.9087,0.0,0.0,0.0,6.353,6.1761,6.4963,0.0,7.7231,0.0,0.0,0.0,0.0,10.0907,0.0,0.0,0.0,0.0,0.0,0.0,0.0,0.0,10.16,10.2385,10.2773,10.3614,10.4897,10.4306,10.4189,10.4812,10.4265,10.4285,10.5026,10.5091,10.5897,10.7318,10.7594,10.8017,10.8509,10.8787,0.0,10.8906,10.8906,10.8906,10.8906,10.8906,10.929,10.9906,10.9213,10.979,11.0791,10.9406,10.929,10.9483,10.7982,10.7021,10.6405,10.6405,10.6905,10.7521,10.7521,10.7982,10.8482,10.8482,10.8482,10.8004,10.6414,10.5482,10.4493,10.2897,10.1902,10.1274,10.109,10.109,10.1334,10.2128,10.1793,10.1751,10.2203,10.2421,10.2353,10.2081,10.0907,10.0099,10.0099,10.0686,10.109,10.109,10.109,10.109,10.109,10.12,10.12,10.109,10.12,10.2315,10.4516,10.4591,10.5741,10.7982,10.7405,10.7405,10.7982,10.7482,10.7598,10.5128,10.7388,10.8814,10.7933,10.6131,10.1514,8.9703,0.0,0.0,0.0,0.0,5.8547,5.6969,0.0,0.0,0.0,0.0,0.0,0.0,0.0,0.0,0.0,0.0,0.0,0.0,0.0,0.0,0.0,0.0,10.249,10.3286,10.4174,10.4987,10.5817,10.5495,10.518,10.518,10.518,10.518,10.518,10.6098,10.6918,10.7713,10.8598,10.9213,10.9598,11.0098,11.0291,11.0291,11.0291,11.0291,11.0291,11.0291,11.0521,11.0791,11.0406,11.0791,11.1406,11.0521,11.0214,11.0098,10.929,10.8406,10.7713,10.7713,10.7982,10.829,10.829,10.8598,10.8906,10.8906,10.8906,10.8624,10.7443,10.6468,10.5498,10.4302,10.3688,10.3345,10.275,10.2705,10.2904,10.3268,10.3385,10.3613,10.3905,10.3984,10.3977,10.4054,10.288,10.2191,10.2191,10.2485,10.2705,10.2705,10.2705,10.2705,10.2705,10.2705,10.2705,10.2705,10.2705,10.3456,10.5201,10.5649,10.662,10.8184,10.8317,10.8482,10.8906,10.8482,10.879,10.6032,10.9189,11.1291,10.9406,10.6905,10.0979,8.6317,7.9513,0.0,0.0,0.0,5.4803,5.3885,0.0,0.0,0.0,0.0,0.0,0.0,0.0,0.0,0.0,0.0,0.0,0.0,0.0,0.0,0.0,0.0,0.0,10.4168,10.5601,10.6521,10.6713,10.6521,10.6194,10.5686,10.6425,10.6425,10.5811,10.7192,10.8098,10.829,10.9598,11.0291,11.0483,11.1214,11.1522,11.1522,11.1522,11.1522,11.1522,11.1522,11.1522,11.1522,11.1522,11.1522,11.1522,11.1522,11.1098,11.0483,11.0483,10.979,10.8906,10.8906,10.8983,10.9213,10.9213,10.929,10.9483,10.9483,10.9483,10.92,10.8207,10.7434,10.6464,10.5732,10.5525,10.5242,10.4297,10.4169,10.4051,10.3925,10.4528,10.495,10.5207,10.5318,10.5502,10.5679,10.5133,10.4648,10.4648,10.4228,10.388,10.388,10.388,10.388,10.388,10.388,10.388,10.388,10.388,10.4366,10.5357,10.6293,10.7204,10.8231,10.8791,10.9406,10.9713,10.9483,10.9983,10.6719,10.9993,11.2022,10.9483,10.6405,10.0287,8.6202,0.0,0.0,5.8689,5.4785,5.3812,5.5133,0.0,0.0,0.0,0.0,0.0,0.0,0.0,0.0,0.0,0.0,0.0,0.0,0.0,0.0,0.0,0.0,0.0,10.4987,10.5908,10.679,10.7598,10.679,10.6672,10.7475,10.7479,10.7479,10.7475,10.8364,10.9213,10.9983,11.0098,11.0598,11.1406,11.1522,11.1522,0.0,11.1522,11.1522,11.1522,11.1522,11.1522,11.1522,11.1522,11.1522,11.1522,11.1522,11.1406,11.1406,11.1406,11.0291,10.8906,10.8906,10.9483,11.0098,11.0098,11.0714,11.1291,11.1291,11.1291,11.0929,10.9315,10.8231,10.7393,10.6601,10.6378,10.6123,10.5204,10.5061,10.4763,10.4007,10.3999,10.4292,10.5061,10.5803,10.6609,10.7381,10.731,10.7293,10.7293,10.5183,10.388,10.388,10.388,10.388,10.388,10.388,10.388,10.388,10.388,10.4661,10.6324,10.7148,10.8379,10.9986,10.9981,11.0906,11.2291,11.1598,11.2099,10.551,10.9687,11.2099,10.9483,10.5213,9.8019,8.421,0.0,6.7959,5.6729,5.376,5.3408,5.4032,5.506,0.0,0.0,0.0,0.0,0.0,0.0,0.0,0.0,0.0,0.0,0.0,0.0,0.0,0.0,0.0,0.0,10.6591,10.6511,10.6597,10.6905,10.7098,10.729,10.7713,10.8213,10.8406,10.8406,10.929,10.9906,11.0214,11.0714,11.1214,11.1522,11.1522,11.1522,0.0,11.1522,11.1522,11.1522,11.1522,11.1522,11.1522,11.1522,11.1522,11.1522,11.1522,11.1522,11.1522,11.1522,11.1021,11.0521,11.0521,11.0714,11.0983,11.0983,11.1214,11.1522,11.1522,11.1522,11.1325,11.0717,11.0203,10.983,10.8876,10.8726,10.8535,10.7628,10.7391,10.7193,10.6324,10.6093,10.621,10.6586,10.6883,10.7394,10.8275,10.8935,10.8873,10.841,10.6592,10.5605,10.6082,10.6082,10.6302,10.6816,10.6816,10.6816,10.6816,10.6816,10.7253,10.7811,10.9173,11.0291,11.0902,11.2024,11.2791,11.3483,11.3214,11.3407,10.3178,10.8404,11.1291,10.879,10.3712,9.5829,0.0,7.4141,6.6219,5.5438,5.3225,5.3225,5.3225,5.3849,5.5317,0.0,0.0,0.0,0.0,0.0,0.0,0.0,0.0,0.0,0.0,0.0,0.0,0.0,0.0,0.0,10.7609,10.7322,10.729,10.7521,10.7598,10.7905,10.8406,10.8983,10.929,10.929,11.0214,11.0598,11.0598,11.1214,11.1522,11.1522,11.1522,11.1522,0.0,11.1522,11.1522,11.1522,11.1522,11.1522,11.1522,11.1522,11.1522,11.1522,11.1522,11.1522,11.1522,11.1522,11.1522,11.1522,11.1522,11.1522,11.1522,11.1522,11.1522,11.1522,11.1522,11.1522,11.1522,11.1522,11.1522,11.1275,11.0701,11.0601,11.032,10.9521,10.9303,10.9019,10.8092,10.8175,10.84,10.8325,10.883,10.9283,10.9924,11.0591,11.058,10.9668,10.8288,10.7639,10.7844,10.7991,10.8175,10.8799,10.8799,10.8799,10.8799,10.8799,10.8799,10.8799,11.0457,11.1383,11.1383,11.31,11.4099,11.4407,11.4407,11.4484,9.9897,10.5803,10.9598,10.7098,10.1904,9.4177,0.0,7.3268,6.554,5.5291,5.3225,5.3225,5.3225,5.3849,5.495,5.6565,0.0,0.0,0.0,0.0,0.0,0.0,0.0,0.0,0.0,0.0,0.0,0.0,0.0,0.0,10.7711,10.8408,10.929,11.0098,10.8598,10.8482,11.0175,11.0214,11.0214,11.0214,11.1098,11.1522,11.1522,11.1522,11.1522,11.1522,11.1522,11.1522,0.0,11.1522,11.1522,11.1522,11.1522,11.1522,11.1522,11.1522,11.1522,11.1522,11.1522,11.1522,11.1522,11.1522,11.1522,11.1522,11.1522,11.1522,11.1522,11.1522,11.1522,11.1522,11.1522,11.1522,11.1522,11.1522,11.1522,11.1522,11.1522,11.1522,11.123,11.041,11.0214,10.9921,10.8981,10.961,11.0176,11.0138,11.1498,11.2693,11.2677,11.2693,11.23,11.1486,11.0601,10.9739,10.8885,10.8799,10.8799,10.8799,10.8799,10.8799,10.8799,10.8799,10.8799,10.8799,11.0457,11.1383,11.1383,11.31,11.4407,11.5291,11.5291,11.5676,8.9364,9.4209,9.7104,9.4436,9.0287,8.4538,7.5396,6.9126,6.2956,5.487,5.3225,5.3225,5.3225,5.3408,5.5207,6.0126,6.152,0.0,0.0,0.0,0.0,0.0,0.0,0.0,0.0,0.0,0.0,0.0,0.0,0.0,10.9412,10.909,10.8983,10.929,10.9406,10.9675,11.0214,11.0791,11.1098,11.1098,11.1406,11.1522,11.1522,11.1522,11.1522,11.1522,11.1522,11.1522,11.1522,11.1522,11.1522,11.1522,11.1522,11.1522,11.1522,11.1522,11.1522,11.1522,11.1522,11.1522,11.1522,11.1522,11.1522,11.1522,11.1522,11.1522,11.1522,11.1522,11.1522,11.1522,11.1522,11.1522,11.1522,11.1522,11.1522,11.1522,11.1522,11.1906,11.2209,11.203,11.2406,11.2522,11.1596,11.171,11.1688,11.1097,11.1488,11.2008,11.26,11.3189,11.3213,11.2278,11.2473,11.1917,10.9779,10.9606,10.99,11.0414,11.0414,11.0414,11.0414,11.0414,11.0414,11.0414,11.2178,11.3081,11.3081,11.4898,11.5907,11.6099,11.6099,11.6292,0.0,8.69,8.9931,8.7916,8.4126,7.9043,7.2015,6.6515,6.1069,5.4744,5.3404,5.3404,5.3404,5.3785,5.534,5.9034,0.0,0.0,0.0,0.0,0.0,0.0,0.0,0.0,0.0,0.0,0.0,0.0,0.0,0.0,11.0598,11.0214,10.9906,10.9906,11.0098,11.0406,11.0714,11.1214,11.1522,11.1522,11.1522,11.1522,11.1522,11.1522,11.1522,11.1522,11.1522,11.1522,0.0,11.1522,11.1522,11.1522,11.1522,11.1522,11.1522,11.1522,11.1714,11.1906,11.1598,11.1714,11.1906,11.1598,11.1522,11.1522,11.1522,11.1522,11.1522,11.1522,11.1522,11.1522,11.1522,11.1522,11.1522,11.1522,11.1714,11.2022,11.2022,11.2599,11.3214,11.3214,11.3599,11.3773,11.3277,11.3495,11.3389,11.2501,11.2886,11.3403,11.3609,11.4412,11.4672,11.4109,11.4222,11.3665,11.2041,11.13,11.1111,11.1588,11.1698,11.1515,11.1221,11.1221,11.1221,11.1221,11.2963,11.3911,11.3873,11.5587,11.6484,11.6484,11.6484,11.6484,0.0,8.2095,8.5925,8.5126,8.1308,7.6274,7.0308,6.4857,0.0,5.4801,5.3796,5.3795,5.3981,5.4868,5.5503,5.5233,0.0,0.0,0.0,0.0,0.0,0.0,0.0,0.0,0.0,0.0,0.0,0.0,0.0,0.0,11.1522,11.1522,11.1522,11.1522,11.0714,11.0714,11.1522,11.1522,11.1522,11.1522,11.1522,11.1522,11.1522,11.1522,11.1522,0.0,11.1522,11.1522,11.1522,11.1522,11.1522,11.1522,11.1522,11.1522,11.1522,11.1598,11.2099,11.2599,11.1906,11.2099,11.2599,11.1791,11.1522,11.1522,11.1522,11.1522,11.1522,11.1522,11.1522,11.1522,11.1522,11.1522,11.1522,11.1598,11.2214,11.2714,11.2791,11.3483,11.4099,11.4099,11.4099,11.4214,11.4214,11.4791,11.511,11.4191,11.5368,11.6215,11.549,11.6031,11.6512,11.6619,11.5715,11.5156,11.5083,11.3499,11.2506,11.2506,11.2396,11.2102,11.1295,11.1221,11.1221,11.1221,11.2963,11.4015,11.4184,11.5792,11.6599,11.6676,11.6599,11.6599,6.2103,0.0,6.9415,6.8334,6.7138,6.5448,0.0,6.0041,0.0,0.0,0.0,0.0,0.0,0.0,0.0,0.0,0.0,0.0,0.0,0.0,0.0,0.0,0.0,0.0,0.0,0.0,0.0,0.0,0.0,11.1291,11.1522,11.1522,11.1522,11.1522,11.1291,11.1291,11.1522,11.1522,11.1522,11.1522,11.1522,11.1522,11.1522,11.1522,11.1522,11.1522,11.1522,11.1522,11.1522,11.1522,11.1522,11.1522,11.1522,11.1522,11.1598,11.2214,11.2522,11.2791,11.3214,11.3099,11.2599,11.1791,11.1522,11.1522,11.1522,11.1522,11.1522,11.1522,11.1522,11.1522,11.1522,11.1522,11.1714,11.2291,11.2599,11.2906,11.3599,11.4407,11.4984,11.4984,11.5484,11.5907,11.5907,11.6099,11.6093,11.5916,11.569,11.5893,11.6973,11.68,11.6728,11.7402,11.6587,11.5983,11.5866,11.4311,11.3277,11.3277,11.2689,11.2286,11.2102,11.1515,11.1221,11.1221,11.2963,11.4891,11.6902,11.7308,11.7792,11.8484,11.7792,11.7484,5.6124,6.0324,6.4345,6.3698,6.3392,6.2738,6.1014,0.0,0.0,0.0,0.0,0.0,0.0,0.0,0.0,0.0,0.0,0.0,0.0,0.0,0.0,0.0,0.0,0.0,0.0,0.0,0.0,0.0,0.0,11.1522,11.1522,11.1522,11.1522,11.1522,11.1522,11.1522,11.1522,11.1522,11.1522,11.1522,11.1522,11.1522,11.1522,11.1522,11.1522,11.1522,11.1522,11.1522,11.1522,11.1522,11.1522,11.1522,11.1522,11.1522,11.1598,11.2022,11.2406,11.2714,11.2791,11.2522,11.2099,11.1598,11.1522,11.1522,11.1522,11.1791,11.2022,11.1598,11.1522,11.1598,11.2022,11.2099,11.2291,11.3099,11.3599,11.3984,11.4484,11.5291,11.5907,11.5907,11.6176,11.6484,11.6484,11.6484,11.6484,11.6484,11.6397,11.6721,11.7708,11.7702,11.7987,11.8791,11.771,11.7023,11.7418,11.5677,11.4488,11.4194,11.3717,11.3203,11.2396,11.1992,11.1925,11.229,11.3371,11.5195,11.7821,11.7807,11.8215,11.91,11.86,11.8407,5.462,5.9656,6.4435,6.3891,6.3753,6.3314,0.0,0.0,0.0,0.0,0.0,0.0,0.0,0.0,0.0,0.0,0.0,0.0,0.0,0.0,0.0,0.0,0.0,0.0,0.0,0.0,0.0,0.0,0.0,11.1522,11.1522,11.1522,11.1522,11.1522,11.1522,11.1522,11.1522,11.1522,11.1522,11.1522,11.1522,11.1522,11.1522,11.1522,11.1522,11.1522,0.0,0.0,11.1522,11.1522,11.1522,11.1522,11.1522,11.1522,11.1522,11.1598,11.2099,11.2599,11.1906,11.1714,11.1714,11.1522,11.1522,11.1522,11.1522,11.2022,11.2406,11.1791,11.1714,11.1906,11.2714,11.2791,11.2983,11.3984,11.4791,11.5291,11.5484,11.5984,11.6484,11.6484,11.6484,11.6484,11.6676,11.6676,11.6676,11.6907,11.7484,11.8023,11.8215,11.8792,11.96,12.0408,11.8908,11.8198,11.8703,11.7181,11.5882,11.5002,11.4892,11.4121,11.2616,11.2506,11.2885,11.3924,11.3995,11.5311,11.7918,11.8075,11.86,11.9485,11.9292,11.9292,5.6675,6.022,6.2435,5.9371,5.989,6.067,0.0,0.0,0.0,0.0,0.0,0.0,0.0,0.0,0.0,0.0,0.0,0.0,0.0,0.0,0.0,0.0,0.0,0.0,0.0,0.0,0.0,0.0,0.0,11.1522,11.1522,11.1522,11.1522,11.1522,11.1522,11.1522,11.1522,11.1522,11.1522,11.1522,11.1522,11.1522,11.1522,11.1522,11.1522,11.1522,0.0,11.1522,11.1522,11.1522,11.1522,11.1522,11.1522,11.1522,11.1598,11.2291,11.2599,11.2714,11.2599,11.2522,11.2406,11.1714,11.1522,11.1522,11.1522,11.1598,11.1791,11.2406,11.2522,11.2714,11.3599,11.3291,11.3099,11.4714,11.5215,11.5484,11.6176,11.6407,11.6484,11.6484,11.6484,11.6676,11.7484,11.76,11.7907,11.86,11.8792,11.91,11.9792,11.9985,12.0408,12.1293,12.0392,11.9457,11.8885,11.7826,11.6799,11.5901,11.5185,11.4415,11.3497,11.28,11.3106,11.4665,11.4784,11.622,11.8719,11.9494,12.0408,12.1177,12.0485,12.01,5.5023,5.7776,6.0407,6.1164,6.3652,0.0,0.0,0.0,0.0,0.0,0.0,0.0,0.0,0.0,0.0,0.0,0.0,0.0,0.0,0.0,0.0,0.0,0.0,0.0,0.0,0.0,0.0,0.0,0.0,11.1522,11.1522,11.1522,11.1522,11.1522,11.1522,11.1522,11.1522,11.1522,11.1522,11.1522,11.1522,11.1522,11.1522,11.1522,11.1522,11.1522,0.0,11.1522,11.1522,11.1522,11.1522,11.1522,11.1522,11.1522,11.1522,11.1906,11.2099,11.2099,11.2099,11.2099,11.2022,11.1598,11.1522,11.1522,11.1522,11.1791,11.2291,11.3214,11.3099,11.3022,11.4407,11.4407,11.4407,11.5676,11.5907,11.5984,11.6407,11.6484,11.6599,11.71,11.7215,11.7484,11.8407,11.8484,11.86,11.8985,11.9485,11.9908,12.0292,12.0677,12.1177,12.16,12.0806,12.0013,11.9647,11.8205,11.6969,11.6085,11.5222,11.4598,11.4305,11.3497,11.3618,11.4841,11.5357,11.6792,11.8774,11.9801,12.0716,12.16,12.1177,12.0985,5.473,5.6765,5.9708,0.0,0.0,0.0,0.0,0.0,0.0,0.0,0.0,0.0,0.0,0.0,0.0,0.0,0.0,0.0,0.0,0.0,0.0,0.0,0.0,0.0,0.0,0.0,0.0,0.0,11.1522,11.1522,11.1522,11.1522,11.1522,11.1522,11.1291,11.1291,11.1522,11.1291,11.1291,11.1522,11.1522,11.1522,11.1522,11.1522,11.1522,11.1522,11.1522,11.1522,11.1522,11.1522,11.1522,11.1522,11.1522,11.1522,11.1522,11.1522,11.1522,11.1522,11.1522,11.1522,11.1522,11.1522,11.1522,11.1522,11.1522,11.1906,11.2599,11.3714,11.3483,11.3407,11.5099,11.5407,11.5484,11.6292,11.6484,11.6484,11.6484,11.6676,11.6984,11.7715,11.8023,11.8407,11.9215,11.9408,11.9485,11.9715,12.0216,12.06,12.06,12.1177,12.16,12.16,12.1003,12.0434,12.0168,11.8534,11.7136,11.6373,11.5514,11.5112,11.5112,11.4305,11.4305,11.5112,11.5911,11.7099,11.8778,11.9823,12.0689,12.16,12.16,12.16,5.9281,6.0396,0.0,0.0,0.0,0.0,0.0,0.0,0.0,0.0,0.0,0.0,0.0,0.0,0.0,0.0,0.0,0.0,0.0,0.0,0.0,0.0,0.0,0.0,0.0,0.0,0.0,11.1522,11.1522,11.1522,11.1522,11.1522,11.1522,11.1522,11.0714,11.0714,11.1522,11.0714,11.0714,11.1522,11.1522,11.1522,11.1522,11.1522,11.1522,11.1522,11.1522,11.1522,11.1522,11.1522,11.1522,11.1522,11.1522,11.1522,11.1522,11.1522,11.1522,11.1522,11.1522,11.1522,11.1522,11.1522,11.1522,11.1522,11.1522,11.1522,11.1906,11.3483,11.3984,11.4291,11.5984,11.5907,11.5484,11.6292,11.6484,11.6484,11.6484,11.71,11.7715,11.7792,11.8484,11.9292,12.01,12.0216,12.0485,12.1293,12.1485,12.1485,12.1485,12.16,12.16,12.16,12.1476,12.1117,12.0302,11.8534,11.7426,11.7345,11.6403,11.5883,11.5883,11.5112,11.5112,11.5883,11.6078,11.7118,11.8778,11.9718,12.0691,12.16,12.16,12.16,5.7299,5.9025,0.0,0.0,0.0,0.0,0.0,0.0,0.0,0.0,0.0,0.0,0.0,0.0,0.0,0.0,0.0,0.0,0.0,0.0,0.0,0.0,0.0,0.0,0.0,0.0,0.0,11.1522,11.1522,11.1522,11.1522,11.1522,11.1522,11.1522,11.0714,11.0406,11.0714,11.0406,11.0406,11.0714,11.1214,11.1522,11.1522,11.1522,11.1522,11.1522,11.1522,11.1522,11.1522,11.1522,11.1522,11.1522,11.1522,11.1522,11.1522,11.1522,11.1522,11.1522,11.1522,11.1522,11.1522,11.1522,11.1522,11.1522,11.1522,11.1791,11.2522,11.3714,11.4407,11.5099,11.6176,11.6292,11.6099,11.6407,11.6484,11.6484,11.6484,11.7215,11.7984,11.8484,11.9292,12.01,12.0985,12.11,12.1177,12.16,12.16,12.16,12.16,12.16,12.16,12.16,12.16,12.1206,12.0264,11.8984,11.8018,11.7432,11.6477,11.5993,11.5993,11.5699,11.5699,11.5993,11.6588,11.7604,11.8778,11.9733,12.0714,12.16,12.16,12.16,5.6809,0.0,0.0,0.0,0.0,0.0,0.0,0.0,0.0,0.0,0.0,0.0,0.0,0.0,0.0,0.0,0.0,0.0,0.0,0.0,0.0,0.0,0.0,0.0,0.0,0.0,11.1522,11.1522,11.1522,11.1522,11.1522,11.1522,11.1406,11.1098,11.0214,10.979,10.979,10.979,10.9906,11.0214,11.1098,11.1522,11.1522,11.1522,11.1522,11.1522,11.1522,11.1522,11.1522,11.1522,11.1522,11.1522,11.1522,11.1522,11.1522,11.1522,11.1522,11.1522,11.1522,11.1522,11.1522,11.1522,11.1522,11.1522,11.1522,11.2099,11.2906,11.3791,11.4599,11.5484,11.6292,11.6484,11.6484,11.6484,11.6484,11.6599,11.6907,11.76,11.8484,11.9292,12.01,12.0908,12.1485,12.16,12.16,12.16,12.16,12.16,12.16,12.16,12.16,12.16,12.1793,12.1562,12.0676,11.9786,11.8797,11.7903,11.6701,11.5993,11.5993,11.5993,11.5993,11.5993,11.6615,11.7549,11.8778,11.938,12.0416,12.16,12.16,12.16,0.0,0.0,0.0,0.0,0.0,0.0,0.0,0.0,0.0,0.0,0.0,0.0,0.0,0.0,0.0,0.0,0.0,0.0,0.0,0.0,0.0,0.0,0.0,0.0,0.0,11.05,11.1522,11.1522,11.1522,11.1522,11.1522,11.1522,11.1098,11.0214,10.9406,10.8906,10.8906,10.8906,10.929,11.0214,11.1098,11.1522,11.1522,11.1522,11.1522,11.1522,11.1522,11.1522,11.1522,11.1522,11.1522,11.1522,11.1522,11.1522,11.1522,11.1522,11.1522,11.1522,11.1522,11.1522,11.1522,11.1522,11.1522,11.1522,11.1522,11.2099,11.2906,11.3791,11.4599,11.5484,11.6292,11.6484,11.6484,11.6484,11.6484,11.6715,11.76,11.8484,11.9292,12.01,12.0985,12.16,12.16,12.16,12.16,12.16,12.16,12.16,12.16,12.16,12.16,12.16,12.2408,12.2485,12.1677,12.073,11.9684,11.8892,11.7015,11.5993,11.5993,11.5993,11.5993,11.5993,11.5993,11.6884,11.8778,11.8778,11.9809,12.16,12.16,12.16,0.0,0.0,0.0,0.0,0.0,0.0,0.0,0.0,0.0,0.0,0.0,0.0,0.0,0.0,0.0,0.0,0.0,0.0,0.0,0.0,0.0,0.0,0.0,10.9809,10.9809,11.0798,11.1522,11.1522,11.1522,11.1522,11.1522,11.1522,11.1098,11.0214,10.9406,10.8598,10.8098,10.8098,10.8482,10.929,11.0214,11.0906,11.1522,11.1522,11.1522,11.1522,11.1522,11.1522,11.1522,11.1522,11.1522,11.1522,11.1522,11.1522,11.1522,11.1522,11.1522,11.1522,11.1522,11.1522,11.1522,11.1522,11.1522,11.1522,11.1522,11.2522,11.3714,11.3907,11.4984,11.6176,11.6407,11.6484,11.6484,11.6484,11.6984,11.7484,11.7715,11.8908,11.9985,12.0292,12.0985,12.16,12.16,12.16,12.16,12.16,12.16,12.16,12.16,12.16,12.16,12.16,12.1793,12.1908,12.16,12.0702,11.9786,11.8923,11.7707,11.6701,11.5956,11.5993,11.5993,11.5993,11.5993,11.6884,11.8778,11.8778,11.9809,12.16,12.16,12.16,0.0,0.0,0.0,0.0,0.0,0.0,0.0,0.0,0.0,0.0,0.0,0.0,0.0,0.0,0.0,0.0,0.0,0.0,0.0,0.0,0.0,10.9414,10.9909,11.0176,11.0176,11.1008,11.1522,11.1522,11.1522,11.1522,11.1522,11.1522,11.1098,11.0214,10.9713,10.8906,10.7713,10.8406,10.879,10.8906,11.0098,11.0983,11.1522,11.1522,11.1522,11.1522,11.1522,11.1522,11.1522,11.1522,11.1522,11.1522,11.1522,11.1522,11.1522,11.1522,11.1522,11.1522,11.1522,11.1522,11.1522,11.1522,11.1522,11.1522,11.1522,11.2406,11.3599,11.3907,11.4984,11.6099,11.6407,11.6484,11.6484,11.6484,11.7215,11.7907,11.8215,11.9408,12.0408,12.0716,12.1177,12.16,12.16,12.16,12.16,12.16,12.16,12.16,12.16,12.16,12.16,12.16,12.1908,12.1985,12.16,12.1112,12.0334,11.9418,11.8056,11.7061,11.6564,11.6193,11.5993,11.5993,11.5993,11.6751,11.8205,11.8568,11.9584,12.1093,12.1429,12.16,0.0,0.0,0.0,0.0,0.0,0.0,0.0,0.0,0.0,0.0,0.0,0.0,0.0,0.0,0.0,0.0,0.0,0.0,0.0,0.0,11.0091,11.0205,11.0205,11.0205,11.032,11.1016,11.1522,11.1522,11.1522,11.1522,11.1522,11.1522,11.1098,11.0098,11.0098,10.929,10.7598,10.9098,10.9483,10.879,11.0406,11.1214,11.1291,11.1291,11.1406,11.1406,11.1522,11.1522,11.1522,11.1522,11.1522,11.1522,11.1522,11.1522,11.1522,11.1522,11.1522,11.1522,11.1522,11.1522,11.1522,11.1522,11.1522,11.1522,11.1522,11.2099,11.2906,11.3791,11.4599,11.5484,11.6292,11.6484,11.6484,11.6484,11.7215,11.81,11.8908,11.9792,12.0677,12.1408,12.16,12.16,12.16,12.16,12.16,12.16,12.16,12.16,12.16,12.16,12.16,12.16,12.2293,12.2485,12.1677,12.151,12.1065,12.0282,11.8496,11.7469,11.7389,11.6477,11.5993,11.5993,11.5993,11.6513,11.7389,11.8352,11.9288,12.0168,12.1194,12.16,0.0,0.0,0.0,0.0,0.0,0.0,0.0,0.0,0.0,0.0,0.0,0.0,0.0,0.0,0.0,0.0,0.0,0.0,0.0,0.0,10.9425,11.0117,11.0193,11.0501,11.123,11.1396,11.1522,11.1522,11.1522,11.1522,11.1522,11.1522,11.0791,10.9213,10.9213,10.8406,10.6713,10.7021,10.7521,10.7982,10.829,10.879,10.9483,11.0214,11.0483,11.0483,11.1214,11.1522,11.1522,11.1522,11.1522,11.1522,11.1522,11.1522,11.1522,11.1522,11.1522,11.1522,11.1522,11.1522,11.1522,11.1522,11.1522,11.1522,11.1522,11.2099,11.2906,11.3791,11.4599,11.5484,11.6292,11.6484,11.6484,11.6484,11.7677,11.8908,11.91,12.0292,12.1408,12.16,12.16,12.16,12.16,12.16,12.16,12.16,12.16,12.16,12.16,12.16,12.16,12.16,12.1793,12.1793,12.16,12.1573,12.1194,12.0302,11.9119,11.8206,11.7352,11.6477,11.5993,11.5993,11.5993,11.6513,11.7389,11.8352,11.9288,12.0168,12.1194,12.16,0.0,0.0,0.0,0.0,0.0,0.0,0.0,0.0,0.0,0.0,0.0,0.0,0.0,0.0,0.0,0.0,0.0,0.0,0.0,10.8906,10.9406,11.0714,11.0483,11.0483,11.1406,11.1522,11.1522,11.1522,11.1522,11.1291,11.0906,11.1291,11.0714,10.8983,10.929,10.8713,10.7021,10.7405,10.7598,10.7713,10.8098,10.829,10.8406,10.9213,10.979,11.0214,11.0714,11.1098,11.1522,11.1021,11.1098,11.1522,11.1021,11.1098,11.1522,11.1522,11.1522,11.1522,11.1522,11.1522,11.1522,11.1522,11.1522,11.1522,11.1522,11.1791,11.2406,11.3599,11.4291,11.4984,11.6176,11.6484,11.6484,11.6484,11.7484,11.86,11.8985,12.01,12.11,12.1485,12.16,12.16,12.16,12.16,12.16,12.16,12.16,12.16,12.16,12.16,12.16,12.16,12.16,12.16,12.16,12.16,12.1381,12.0874,11.9991,11.9014,11.8093,11.7218,11.6513,11.5993,11.5993,11.6156,11.6664,11.8056,11.9127,11.9584,12.1003,12.16,0.0,0.0,0.0,0.0,0.0,0.0,0.0,0.0,0.0,0.0,0.0,0.0,0.0,0.0,0.0,0.0,10.9098,10.8983,10.8713,10.8713,10.9213,11.0714,11.0214,11.0098,11.1021,11.1098,11.1098,11.1098,11.1098,11.0714,10.9983,11.0714,11.0291,10.8713,10.9406,10.8983,10.7521,10.8098,10.8098,10.7521,10.8213,10.8098,10.7521,10.8213,10.8906,10.979,10.9906,11.0406,11.1021,11.0291,11.0483,11.1214,11.0483,11.0714,11.1522,11.1522,11.1522,11.1522,11.1522,11.1522,11.1522,11.1522,11.1522,11.1522,11.1522,11.1522,11.1791,11.3483,11.3984,11.4407,11.6099,11.6484,11.6484,11.6484,11.71,11.7907,11.8908,11.9715,12.06,12.1408,12.16,12.16,12.16,12.16,12.16,12.16,12.16,12.16,12.16,12.16,12.16,12.16,12.16,12.16,12.16,12.16,12.16,12.16,12.073,11.9771,11.881,11.7903,11.7006,11.5956,11.5993,11.5993,11.5993,11.7903,11.8778,11.881,12.073,12.16,0.0,0.0,0.0,0.0,0.0,0.0,0.0,0.0,0.0,0.0,0.0,0.0,0.0,0.0,11.1021,11.0214,10.9983,10.9483,10.8098,10.7905,10.7905,10.8213,10.8098,10.8406,10.9213,10.9213,10.9213,10.9213,10.9213,10.9213,10.9098,10.9213,10.879,10.7905,10.7982,10.7598,10.6597,10.6713,10.6713,10.6597,10.6713,10.6713,10.6597,10.6713,10.7213,10.8098,10.879,10.9098,10.9213,10.9098,10.9598,11.0406,11.0214,11.0714,11.1522,11.1522,11.1522,11.1522,11.1522,11.1522,11.1522,11.1522,11.1522,11.1522,11.1522,11.1522,11.1791,11.3483,11.3984,11.4407,11.6099,11.6484,11.6484,11.6484,11.6599,11.71,11.8715,11.9715,12.06,12.1408,12.16,12.16,12.16,12.16,12.16,12.16,12.16,12.16,12.16,12.16,12.16,12.16,12.16,12.16,12.16,12.16,12.16,12.16,12.073,11.9771,11.881,11.7903,11.7006,11.5956,11.5993,11.5993,11.5993,11.7903,11.8778,11.881,12.073,12.16,0.0,0.0,0.0,0.0,0.0,0.0,0.0,0.0,0.0,0.0,0.0,0.0,11.1522,11.1522,11.1214,11.0291,10.979,10.9213,10.8482,10.7598,10.729,10.829,10.7982,10.7982,10.879,10.8906,10.8906,10.8906,10.8906,10.8713,10.829,10.8713,10.829,10.7021,10.7405,10.729,10.6405,10.6405,10.6405,10.6405,10.6405,10.6405,10.6405,10.6405,10.6905,10.7713,10.8098,10.8482,10.8906,10.8406,10.8713,10.9483,10.9483,10.9983,11.0791,11.1291,11.1522,11.1522,11.1522,11.1522,11.1522,11.1522,11.1522,11.1522,11.1522,11.1522,11.1791,11.3483,11.3984,11.4407,11.6099,11.6484,11.6484,11.6484,11.6484,11.6792,11.81,11.8985,11.9985,12.1293,12.16,12.16,12.16,12.16,12.16,12.16,12.16,12.16,12.16,12.16,12.16,12.16,12.16,12.16,12.16,12.16,12.16,12.16,12.1206,12.0566,11.9609,11.8676,11.7711,11.6836,11.632,11.5993,11.5993,11.7903,11.8778,11.881,12.073,12.16,0.0,0.0,0.0,0.0,0.0,0.0,0.0,0.0,0.0,0.0,0.0,11.0906,11.1098,11.1406,11.1214,11.0291,10.9713,10.9098,10.8713,10.7521,10.7098,10.8098,10.7713,10.7598,10.8213,10.829,10.829,10.829,10.829,10.7982,10.7405,10.7905,10.7713,10.6405,10.7021,10.7098,10.6405,10.6405,10.6405,10.6405,10.6405,10.6405,10.6405,10.6405,10.679,10.7405,10.7405,10.7713,10.8213,10.7598,10.7905,10.8598,10.879,10.9406,11.0291,11.1214,11.1522,11.1522,11.1522,11.1522,11.1522,11.1522,11.1522,11.1522,11.1522,11.1522,11.1791,11.3483,11.3984,11.4407,11.6099,11.6484,11.6484,11.6484,11.6484,11.6792,11.7907,11.8792,11.9792,12.1293,12.16,12.16,12.16,12.16,12.16,12.16,12.16,12.16,12.16,12.16,12.16,12.16,12.16,12.16,12.16,12.16,12.16,12.16,12.16,12.1194,12.0226,11.9546,11.8568,11.7352,11.6664,11.6156,11.5993,11.7633,11.8605,11.881,12.0472,12.1419,0.0,0.0,0.0,0.0,0.0,0.0,0.0,0.0,0.0,0.0,10.8482,10.929,11.0098,11.0906,11.1214,11.0291,11.0175,10.9598,10.7982,10.7713,10.7405,10.6597,10.6521,10.6521,10.6521,10.6521,10.6521,10.6521,10.6521,10.6521,10.6521,10.6521,10.6521,10.6405,10.6405,10.6405,10.6405,10.6405,10.6405,10.6405,10.6405,10.6405,10.6405,10.6405,10.6405,10.6521,10.6521,10.6521,10.6521,10.6521,10.7021,10.779,10.8598,10.9406,11.0291,11.1214,11.1522,11.1522,11.1522,11.1522,11.1522,11.1522,11.1522,11.1522,11.1522,11.1522,11.1791,11.3483,11.3984,11.4407,11.6099,11.6484,11.6484,11.6484,11.6484,11.6984,11.8715,11.9715,12.0485,12.1408,12.16,12.16,12.16,12.16,12.16,12.16,12.16,12.16,12.16,12.16,12.16,12.16,12.16,12.16,12.16,12.16,12.16,12.16,12.16,12.1194,12.0226,12.0244,11.9326,11.7432,11.7382,11.6921,11.5993,11.6969,11.7942,11.8778,11.9832,12.0691,0.0,0.0,0.0,0.0,0.0,0.0,0.0,0.0,0.0,10.6713,10.7982,10.8983,10.929,11.0098,11.0598,11.0291,10.9713,10.8983,10.7905,10.7213,10.6713,10.6405,10.6405,10.6405,10.6405,10.6405,10.6405,10.6405,10.6405,10.6405,10.6405,10.6405,10.6405,10.6405,10.6405,10.6405,10.6405,10.6405,10.6405,10.6405,10.6405,10.6405,10.6405,10.6405,10.6405,10.6405,10.6405,10.6405,10.6405,10.6405,10.6905,10.779,10.8598,10.9406,11.0291,11.1214,11.1522,11.1522,11.1522,11.1522,11.1522,11.1522,11.1522,11.1522,11.1522,11.1522,11.1791,11.3483,11.3984,11.4407,11.6099,11.6484,11.6484,11.6484,11.6484,11.6792,11.7984,11.8908,11.9792,12.06,12.1177,12.16,12.16,12.16,12.1408,12.0793,12.1177,12.1408,12.0793,12.1293,12.16,12.16,12.16,12.16,12.16,12.16,12.16,12.16,12.16,12.139,12.1105,12.0528,11.9609,11.8279,11.767,11.6884,11.5993,11.6847,11.7903,11.8778,11.9809,12.0676,0.0,0.0,0.0,0.0,0.0,0.0,0.0,0.0,10.1712,10.452,10.6482,10.779,10.8406,10.8983,10.9406,10.9406,10.8906,10.8213,10.7405,10.679,10.629,10.602,10.602,10.5905,10.5597,10.5597,10.5597,10.5597,10.5597,10.5713,10.5905,10.602,10.602,10.602,10.5713,10.5597,10.5597,10.5597,10.5713,10.602,10.602,10.6097,10.6405,10.6405,10.6405,10.6405,10.6405,10.6405,10.6405,10.6405,10.6713,10.7405,10.8482,10.929,10.9906,11.1098,11.1522,11.1522,11.1522,11.1522,11.1522,11.1522,11.1522,11.1522,11.1522,11.1522,11.1791,11.3483,11.3984,11.4407,11.6099,11.6484,11.6484,11.6484,11.6484,11.6715,11.76,11.8484,11.9292,12.01,12.0985,12.16,12.16,12.16,12.1408,12.0793,12.1177,12.1408,12.0793,12.1177,12.16,12.16,12.16,12.16,12.16,12.16,12.16,12.16,12.16,12.16,12.16,12.1016,12.0226,11.9288,11.8676,11.7711,11.6513,11.6788,11.7629,11.8778,11.938,12.0378,0.0,0.0,0.0,0.0,0.0,0.0,0.0,0.0,9.4018,10.0904,10.3597,10.529,10.7213,10.7598,10.7598,10.7598,10.7713,10.7405,10.6521,10.6405,10.602,10.5213,10.5097,10.4789,10.3982,10.3905,10.3905,10.3905,10.3905,10.4212,10.4982,10.5097,10.5097,10.5097,10.4289,10.3905,10.3905,10.3905,10.4289,10.5097,10.5097,10.5482,10.6405,10.6405,10.6405,10.6405,10.6405,10.6405,10.6405,10.6405,10.6405,10.6597,10.829,10.8906,10.9098,11.0906,11.1522,11.1522,11.1522,11.1522,11.1522,11.1522,11.1522,11.1522,11.1522,11.1522,11.1906,11.3483,11.3984,11.4407,11.6099,11.6484,11.6484,11.6484,11.6484,11.6715,11.76,11.8484,11.9292,12.01,12.0985,12.16,12.16,12.16,12.16,12.16,12.16,12.16,12.16,12.16,12.16,12.16,12.16,12.16,12.16,12.16,12.16,12.16,12.16,12.16,12.16,12.16,12.1194,12.0168,12.0206,11.9288,11.7389,11.6513,11.6969,11.8778,11.8885,11.987,5.051,0.0,0.0,0.0,0.0,0.0,0.0,0.0,8.4824,9.3518,9.6134,9.8519,10.3982,10.5405,10.579,10.579,10.6905,10.7405,10.6521,10.5905,10.5405,10.5097,10.4597,10.4097,10.3905,10.3905,10.3905,0.0,10.3905,10.3982,10.4212,10.4212,10.4212,10.4212,10.3982,10.3905,10.3905,10.3905,10.3982,10.4212,10.4789,10.5213,10.5482,10.6097,10.6405,10.6405,10.6405,10.6405,10.6405,10.6405,10.679,10.7405,10.8482,10.929,10.9983,11.1098,11.1522,11.1522,11.1522,11.1522,11.1522,11.1522,11.1522,11.1522,11.1522,11.1906,11.2599,11.3714,11.4484,11.5176,11.6176,11.6484,11.6484,11.6484,11.6484,11.6715,11.76,11.8484,11.9292,12.01,12.0985,12.16,12.16,12.16,12.1408,12.0793,12.0677,12.0677,12.0677,12.0677,12.0908,12.1485,12.16,12.16,12.16,12.16,12.16,12.16,12.16,12.16,12.16,12.16,12.1194,12.0168,12.0206,11.9288,11.7389,11.7061,11.7591,11.8848,12.0206,12.1105,0.0,0.0,0.0,0.0,0.0,0.0,7.2322,7.5822,7.9862,0.0,9.3441,9.5903,10.1289,10.2404,10.2789,10.3905,10.5213,10.6213,10.6405,10.602,10.5405,10.4713,10.4212,10.3597,10.2904,10.2789,10.2789,10.2789,10.2789,10.2981,10.3289,10.3405,10.3405,10.3405,10.2981,10.2789,10.2789,10.2789,10.2981,10.3405,10.4212,10.4789,10.5097,10.602,10.6405,10.6405,10.6405,10.6405,10.6405,10.6405,10.6713,10.729,10.8406,10.9213,10.979,11.1021,11.1522,11.1522,11.1522,11.1522,11.1522,11.1522,11.1522,11.1522,11.1522,11.2099,11.2906,11.3791,11.4907,11.5907,11.6407,11.6484,11.6484,11.6484,11.6484,11.6792,11.81,11.8715,11.9292,12.01,12.0985,12.16,12.16,12.16,12.1408,12.0908,12.0793,12.0793,12.0793,12.0793,12.0985,12.1485,12.16,12.16,12.16,12.16,12.16,12.16,12.16,12.16,12.16,12.16,12.1293,12.0821,12.0821,11.987,11.7979,11.7629,11.7903,11.881,12.073,12.16,5.4241,5.5049,0.0,0.0,0.0,0.0,7.3707,7.5024,7.6378,8.7671,9.1287,9.3672,9.7557,9.7865,9.8173,10.0212,10.1981,10.3905,10.579,10.6213,10.5713,10.4097,10.3789,10.3097,10.1597,10.1404,10.1404,10.1404,10.1404,10.1712,10.2404,10.252,10.252,10.252,10.1712,10.1289,10.1289,10.1289,10.1712,10.252,10.3289,10.4212,10.4982,10.5905,10.629,10.6405,10.6405,10.6405,10.6405,10.6405,10.6405,10.6597,10.8098,10.879,10.9098,11.0714,11.1406,11.1522,11.1522,11.1522,11.1522,11.1522,11.1522,11.1522,11.1522,11.2099,11.3022,11.3984,11.5407,11.6484,11.6484,11.6484,11.6484,11.6484,11.6484,11.6984,11.8715,11.91,11.9408,12.0292,12.11,12.16,12.16,12.16,12.16,12.16,12.1485,12.1485,12.16,12.1485,12.1485,12.16,12.16,12.16,12.16,12.16,12.16,12.16,12.16,12.16,12.16,12.16,12.16,12.16,12.1515,12.0621,11.8778,11.8131,11.8093,11.881,12.073,12.16,5.7934,5.905,6.0473,5.8858,0.0,0.0,5.9672,6.172,6.5788,7.2727,7.5476,7.8707,8.5555,8.8363,8.9133,8.7555,9.3749,10.0096,10.3905,10.4905,10.4982,10.3982,10.3289,10.2712,10.2404,10.2289,10.2289,10.2289,10.2289,10.2097,10.1597,10.1597,10.1597,10.1597,10.1404,10.1289,10.1289,10.1289,10.1404,10.1597,10.2404,10.3289,10.4212,10.4982,10.5713,10.6405,10.6405,10.6405,10.6405,10.6405,10.6405,10.6521,10.7521,10.829,10.8983,11.0098,11.0906,11.1522,11.1522,11.1522,11.1522,11.1522,11.1522,11.1522,11.1522,11.2599,11.4099,11.5599,11.6176,11.6484,11.6484,11.6484,11.6484,11.6484,11.6484,11.6984,11.8715,11.91,11.9485,12.11,12.1485,12.16,12.16,12.16,12.16,12.16,12.0985,12.0793,12.1485,12.0985,12.0793,12.1485,12.16,12.16,12.16,12.16,12.16,12.16,12.16,12.16,12.16,12.16,12.16,12.16,12.0912,11.9893,11.8778,11.9392,11.9392,11.881,12.073,12.16,6.0473,6.0473,6.1358,6.0896,0.0,0.0,0.0,6.125,6.3521,7.0228,7.1552,7.336,7.9361,8.0477,8.1016,8.267,8.8671,9.4018,9.6557,10.1289,10.4212,10.3405,10.2904,10.2404,10.202,10.202,10.2097,10.2597,10.2212,10.202,10.1904,10.152,10.1289,10.1289,10.1289,10.1289,10.1289,10.1289,10.1289,10.1289,10.2212,10.3097,10.3905,10.4713,10.5597,10.6405,10.6405,10.6405,10.6405,10.6405,10.6405,10.6521,10.7405,10.8213,10.8983,10.9906,11.0791,11.1522,11.1522,11.1522,11.1522,11.1522,11.1522,11.1522,11.1522,11.2714,11.4291,11.5984,11.6484,11.6484,11.6484,11.6484,11.6484,11.6484,11.6484,11.6984,11.8715,11.91,11.96,12.1293,12.16,12.16,12.16,12.16,12.16,12.16,12.1177,12.11,12.1485,12.1177,12.11,12.16,12.16,12.16,12.16,12.16,12.16,12.16,12.16,12.16,12.16,12.16,12.16,12.16,12.1117,12.0434,11.9482,12.0434,12.0206,11.881,12.0226,12.1194,0.0,0.0,0.0,0.0,0.0,6.1031,0.0,0.0,0.0,0.0,6.941,6.9821,7.3437,7.2706,7.3014,7.7438,8.2708,8.6363,8.6709,9.4403,10.0212,10.0596,10.1404,10.152,10.0712,10.0096,10.0596,10.252,10.0904,10.0596,10.2289,10.1712,10.1289,10.1289,10.1289,10.1289,10.1289,10.1289,10.1289,10.1289,10.202,10.2904,10.3905,10.4597,10.5405,10.6405,10.6405,10.6405,10.6405,10.6405,10.6405,10.6521,10.7213,10.8021,10.8983,10.9713,11.0598,11.1522,11.1522,11.1522,11.1522,11.1522,11.1522,11.1598,11.1906,11.2906,11.4291,11.5984,11.6484,11.6484,11.6484,11.6484,11.6484,11.6484,11.6484,11.6984,11.8715,11.91,11.96,12.1293,12.16,12.16,12.16,12.16,12.16,12.16,12.16,12.16,12.16,12.16,12.16,12.16,12.16,12.16,12.16,12.16,12.16,12.16,12.16,12.16,12.16,12.16,12.16,12.16,12.16,12.1117,12.0206,12.1003,12.0604,11.9089,12.0013,12.0912,0.0,0.0,0.0,0.0,6.7735,0.0,0.0,0.0,0.0,5.8776,0.0,6.1166,6.2435,0.0,0.0,6.3358,7.1245,7.6976,7.5553,8.1439,8.7825,9.3018,9.6942,9.8904,9.8019,9.5903,9.6788,10.2212,9.7596,9.6596,10.1212,10.1404,10.1289,10.1289,10.1289,10.1289,10.1289,10.1289,10.1289,10.1289,10.1404,10.2289,10.3905,10.3982,10.4905,10.6405,10.6405,10.6405,10.6405,10.6405,10.6405,10.6405,10.6521,10.7521,10.8906,10.8983,11.0098,11.1522,11.1522,11.1522,11.1522,11.1522,11.1522,11.1791,11.3291,11.3791,11.4291,11.5984,11.6484,11.6484,11.6484,11.6484,11.6484,11.6484,11.6484,11.6984,11.8715,11.91,11.96,12.1293,12.16,12.16,12.16,12.16,12.16,12.16,12.16,12.16,12.16,12.16,12.16,12.16,12.16,12.16,12.16,12.16,12.16,12.16,12.16,12.16,12.16,12.16,12.16,12.16,12.16,12.1117,12.0206,12.0321,12.0226,12.0089,12.1016,12.1515,0.0,0.0,0.0,0.0,0.0,0.0,5.9818,0.0,5.7927,0.0,0.0,0.0,0.0,0.0,0.0,0.0,6.6436,7.0591,6.9898,7.5207,8.14,8.7363,8.7902,8.8786,9.1402,9.2018,9.4287,9.9288,9.5942,9.5711,10.0404,10.1019,10.1289,10.1289,10.1289,10.1289,10.1289,10.1289,10.1289,10.1289,10.1789,10.2712,10.3905,10.4405,10.529,10.6405,10.6405,10.6405,10.6405,10.6405,10.6405,10.6405,10.6405,10.7405,10.8906,10.8906,11.0021,11.1522,11.1522,11.1522,11.1522,11.1522,11.1522,11.1791,11.3483,11.3984,11.4291,11.5984,11.6484,11.6484,11.6484,11.6484,11.6484,11.6484,11.6484,11.6792,11.81,11.8715,11.9408,12.06,12.1293,12.16,12.16,12.16,12.16,12.16,12.16,12.16,12.16,12.16,12.16,12.16,12.16,12.16,12.16,12.16,12.16,12.16,12.16,12.16,12.16,12.16,12.16,12.16,12.16,12.1381,12.1016,12.1016,12.1016,12.1016,12.0912,12.1105,7.4053,0.0,0.0,0.0,0.0,0.0,0.0,0.0,0.0,0.0,0.0,0.0,0.0,0.0,0.0,0.0,0.0,6.6167,6.5474,6.8898,7.3707,7.9669,7.9823,8.1362,8.6247,8.7325,8.9979,9.5365,9.2556,9.3249,9.9404,10.0289,10.0789,10.1289,10.1289,10.1289,10.1289,10.1289,10.1289,10.1289,10.1904,10.2789,10.3905,10.4482,10.5405,10.6405,10.6405,10.6405,10.6405,10.6405,10.6405,10.6405,10.6405,10.7405,10.8906,10.8906,11.0021,11.1522,11.1522,11.1522,11.1522,11.1522,11.1598,11.2099,11.3291,11.3984,11.4599,11.5792,11.6292,11.6484,11.6484,11.6484,11.6484,11.6484,11.6484,11.6715,11.76,11.8292,11.91,12.01,12.0793,12.1293,12.16,12.16,12.16,12.16,12.16,12.16,12.16,12.16,12.16,12.16,12.16,12.16,12.16,12.16,12.16,12.16,12.16,12.16,12.16,12.16,12.16,12.16,12.16,12.16,12.16,12.16,12.16,12.16,12.0874,12.0926,0.0,0.0,0.0,7.0244,0.0,0.0,0.0,0.0,6.2515,0.0,0.0,0.0,0.0,0.0,0.0,0.0,0.0,0.0,0.0,6.0435,6.2243,6.8244,7.463,8.0246,8.4555,8.1285,8.2362,9.0787,8.5978,8.7401,9.825,9.8865,9.9635,10.1212,10.1289,10.1289,10.1289,10.1289,10.1289,10.1289,10.1289,10.2212,10.3905,10.3905,10.4789,10.6405,10.6405,10.6405,10.6405,10.6405,10.6405,10.6405,10.6405,10.7405,10.8906,10.8906,11.0021,11.1522,11.1522,11.1522,11.1522,11.1522,11.2022,11.2714,11.2714,11.3907,11.5291,11.5291,11.5907,11.6484,11.6484,11.6484,11.6484,11.6484,11.6484,11.6715,11.76,11.7792,11.8292,11.9985,12.0292,12.06,12.1485,12.16,12.16,12.16,12.16,12.16,12.16,12.16,12.16,12.16,12.16,12.16,12.16,12.16,12.16,12.16,12.16,12.16,12.16,12.16,12.16,12.16,12.16,12.16,12.16,12.16,12.16,12.16,12.16,12.16,0.0,0.0,8.8479,7.74,0.0,0.0,0.0,0.0,0.0,0.0,0.0,0.0,0.0,0.0,0.0,0.0,0.0,0.0,0.0,5.5703,5.6472,6.1858,6.9013,0.0,7.2399,7.6592,8.0785,8.4247,8.4209,8.7132,9.4249,9.6711,9.8442,9.9596,10.0712,10.1289,10.1289,10.1289,10.1289,10.1289,10.252,10.3289,10.3905,10.502,10.5905,10.6405,10.6405,10.6405,10.6405,10.6405,10.6405,10.6521,10.7021,10.7905,10.8906,10.8906,11.0021,11.1522,11.1522,11.1522,11.1522,11.1522,11.1714,11.2099,11.3214,11.3984,11.4714,11.5792,11.6292,11.6484,11.6484,11.6484,11.6484,11.6484,11.6484,11.6599,11.6907,11.7407,11.81,11.9292,11.9908,12.06,12.1408,12.16,12.16,12.16,12.16,12.16,12.16,12.16,12.16,12.16,12.16,12.16,12.16,12.16,12.16,12.16,12.16,12.16,12.16,12.16,12.16,12.16,12.16,12.16,12.16,12.16,12.16,12.16,12.16,12.16,9.2826,9.3595,0.0,8.3901,8.04,0.0,6.7782,0.0,0.0,0.0,0.0,0.0,0.0,0.0,0.0,0.0,0.0,6.132,0.0,5.3664,5.4164,5.7703,0.0,0.0,6.809,7.1668,7.5822,8.0285,8.0477,8.3516,9.0748,9.4326,9.6826,9.8288,10.0289,10.1289,10.1289,10.1289,10.1289,10.1289,10.2789,10.3597,10.3905,10.529,10.6097,10.6405,10.6405,10.6405,10.6405,10.6405,10.6405,10.6521,10.7021,10.7905,10.8906,10.9213,11.0291,11.1522,11.1522,11.1522,11.1522,11.1522,11.1714,11.2099,11.3214,11.3984,11.4714,11.5792,11.6292,11.6484,11.6484,11.6484,11.6484,11.6484,11.6484,11.6484,11.6484,11.6907,11.76,11.8484,11.9292,12.01,12.0985,12.1408,12.16,12.16,12.16,12.16,12.16,12.16,12.16,12.16,12.16,12.16,12.16,12.16,12.16,12.16,12.16,12.16,12.16,12.16,12.16,12.16,12.16,12.16,12.16,12.16,12.16,12.16,12.16,12.16]},{"header":{"parameterUnit":"m.s-1","parameterCategory":1,"la1":30.6,"la2":29.2853,"lo1":-89.7004,"lo2":-87.6739,"dy":0.0162,"dx":0.0183,"nx":112,"ny":82,"refTime":"2026-03-16T12:00:00:Z","depth":0,"parameterNumber":3,"parameterNumberName":"V-component_of_WINDS"},"data":[0.0,0.0,0.0,0.0,0.0,0.0,0.0,0.0,0.0,0.0,0.0,0.0,0.0,0.0,0.0,0.0,0.0,0.0,0.0,0.0,0.0,0.0,0.0,0.0,0.0,0.0,0.0,0.0,0.0,0.0,0.0,0.0,0.0,0.0,0.0,0.0,0.0,0.0,0.0,0.0,0.0,0.0,0.0,0.0,0.0,0.0,0.0,0.0,0.0,0.0,0.0,0.0,0.0,0.0,0.0,0.0,0.0,0.0,0.0,0.0,0.0,0.0,0.0,0.0,0.0,0.0,0.0,0.0,0.0,0.0,0.0,0.0,0.0,0.0,0.0,0.0,0.0,0.0,0.0,0.0,0.0,0.0,0.0,0.0,0.0,0.0,0.0,0.0,0.0,0.0,0.0,-2.5154,-2.7798,-2.9379,-2.9125,-2.8711,-2.6774,-2.2806,0.0,0.0,0.0,0.0,0.0,0.0,0.0,0.0,0.0,0.0,0.0,0.0,0.0,0.0,0.0,0.0,0.0,0.0,0.0,0.0,0.0,0.0,0.0,0.0,0.0,0.0,0.0,0.0,0.0,0.0,0.0,0.0,0.0,0.0,0.0,0.0,0.0,0.0,0.0,0.0,0.0,0.0,0.0,0.0,0.0,0.0,0.0,0.0,0.0,0.0,0.0,0.0,0.0,0.0,0.0,0.0,0.0,0.0,0.0,0.0,0.0,0.0,0.0,0.0,0.0,0.0,0.0,0.0,0.0,0.0,0.0,0.0,0.0,0.0,0.0,0.0,0.0,0.0,0.0,0.0,0.0,0.0,0.0,0.0,0.0,0.0,0.0,0.0,0.0,0.0,0.0,0.0,0.0,0.0,0.0,0.0,0.0,0.0,0.0,0.0,0.0,0.0,0.0,0.0,-2.4785,-2.7323,-2.8802,-2.9459,-2.9419,-2.8444,-2.6507,-2.338,0.0,0.0,0.0,0.0,0.0,0.0,0.0,0.0,0.0,0.0,0.0,0.0,0.0,0.0,0.0,0.0,0.0,0.0,0.0,0.0,0.0,0.0,0.0,0.0,0.0,0.0,0.0,0.0,0.0,0.0,0.0,0.0,0.0,0.0,0.0,0.0,0.0,0.0,0.0,0.0,0.0,0.0,0.0,0.0,0.0,0.0,0.0,0.0,0.0,0.0,0.0,0.0,0.0,0.0,0.0,0.0,0.0,0.0,0.0,0.0,0.0,0.0,0.0,0.0,0.0,0.0,0.0,0.0,0.0,0.0,0.0,0.0,0.0,0.0,0.0,0.0,0.0,0.0,0.0,0.0,0.0,0.0,0.0,0.0,0.0,0.0,0.0,0.0,0.0,0.0,0.0,0.0,0.0,0.0,0.0,0.0,0.0,0.0,0.0,0.0,0.0,0.0,0.0,-2.3837,-2.4722,-2.8305,-2.9285,-2.9659,-2.9499,-2.8684,-2.68,-2.3541,-2.1657,0.0,0.0,0.0,0.0,0.0,0.0,0.0,0.0,0.0,0.0,0.0,0.0,0.0,0.0,0.0,0.0,0.0,0.0,0.0,0.0,0.0,0.0,0.0,0.0,0.0,0.0,0.0,0.0,0.0,0.0,0.0,0.0,0.0,0.0,0.0,0.0,0.0,0.0,0.0,0.0,0.0,0.0,0.0,0.0,0.0,0.0,0.0,0.0,0.0,0.0,0.0,0.0,0.0,0.0,0.0,0.0,0.0,0.0,0.0,0.0,0.0,0.0,0.0,0.0,0.0,0.0,0.0,0.0,0.0,0.0,0.0,0.0,0.0,0.0,0.0,0.0,0.0,0.0,0.0,0.0,0.0,0.0,0.0,0.0,0.0,0.0,0.0,0.0,0.0,0.0,0.0,0.0,0.0,0.0,0.0,0.0,0.0,0.0,0.0,0.0,0.0,0.0,-2.5397,-2.5571,-2.8804,-2.9606,-2.982,-2.9606,-2.8724,-2.6827,-2.3634,-2.1443,0.0,0.0,0.0,0.0,0.0,0.0,0.0,0.0,0.0,0.0,0.0,0.0,0.0,0.0,0.0,0.0,0.0,0.0,0.0,0.0,0.0,0.0,0.0,0.0,0.0,0.0,0.0,0.0,0.0,0.0,0.0,0.0,0.0,0.0,0.0,0.0,0.0,0.0,0.0,0.0,0.0,0.0,0.0,0.0,0.0,0.0,0.0,0.0,0.0,0.0,0.0,0.0,0.0,0.0,0.0,0.0,0.0,0.0,0.0,0.0,0.0,0.0,0.0,0.0,0.0,0.0,0.0,0.0,0.0,0.0,0.0,0.0,0.0,0.0,0.0,0.0,0.0,0.0,0.0,0.0,0.0,0.0,0.0,0.0,0.0,0.0,0.0,0.0,0.0,0.0,0.0,0.0,0.0,0.0,0.0,0.0,0.0,0.0,0.0,0.0,0.0,0.0,-2.6475,-2.7923,-2.9299,-2.9726,-2.9913,-2.9887,-2.8083,-2.6026,-2.3875,-2.0788,0.0,0.0,0.0,0.0,0.0,0.0,0.0,0.0,0.0,0.0,0.0,0.0,0.0,0.0,0.0,0.0,0.0,0.0,0.0,0.0,0.0,0.0,0.0,0.0,0.0,0.0,0.0,0.0,0.0,0.0,0.0,0.0,0.0,0.0,0.0,0.0,0.0,0.0,0.0,0.0,0.0,0.0,0.0,0.0,0.0,0.0,0.0,0.0,0.0,0.0,0.0,0.0,0.0,0.0,0.0,0.0,0.0,0.0,0.0,0.0,0.0,0.0,0.0,0.0,0.0,0.0,0.0,0.0,0.0,0.0,0.0,0.0,0.0,0.0,0.0,0.0,0.0,0.0,0.0,0.0,0.0,0.0,0.0,0.0,0.0,0.0,0.0,0.0,0.0,0.0,0.0,0.0,0.0,0.0,0.0,0.0,0.0,0.0,0.0,0.0,0.0,0.0,-2.5622,-2.7215,0.0,-3.0181,-3.0394,-3.0207,-2.9138,-2.7134,-2.3968,0.0,0.0,0.0,0.0,0.0,0.0,0.0,0.0,0.0,0.0,0.0,0.0,0.0,0.0,0.0,0.0,0.0,0.0,0.0,0.0,0.0,0.0,0.0,0.0,0.0,0.0,0.0,0.0,0.0,0.0,0.0,0.0,0.0,0.0,0.0,0.0,0.0,0.0,0.0,0.0,0.0,0.0,0.0,0.0,0.0,0.0,0.0,0.0,0.0,0.0,0.0,0.0,0.0,0.0,0.0,0.0,0.0,0.0,0.0,0.0,0.0,0.0,0.0,0.0,0.0,0.0,0.0,0.0,0.0,0.0,0.0,0.0,0.0,0.0,0.0,0.0,0.0,0.0,0.0,0.0,0.0,0.0,0.0,0.0,0.0,0.0,0.0,0.0,0.0,0.0,0.0,0.0,0.0,0.0,0.0,0.0,0.0,0.0,0.0,0.0,0.0,0.0,-2.4671,-2.6064,-2.7549,0.0,-3.0635,-3.0849,-3.0648,-2.9673,-2.7549,-2.3995,0.0,0.0,0.0,0.0,0.0,0.0,0.0,0.0,0.0,0.0,0.0,0.0,0.0,0.0,0.0,0.0,0.0,0.0,0.0,0.0,0.0,0.0,0.0,0.0,0.0,0.0,0.0,0.0,0.0,0.0,0.0,0.0,0.0,0.0,0.0,0.0,0.0,0.0,0.0,0.0,0.0,0.0,0.0,0.0,0.0,0.0,0.0,0.0,0.0,0.0,0.0,0.0,0.0,0.0,0.0,0.0,0.0,0.0,0.0,0.0,0.0,0.0,0.0,0.0,0.0,0.0,0.0,0.0,0.0,0.0,0.0,0.0,0.0,0.0,0.0,0.0,0.0,0.0,0.0,0.0,0.0,0.0,0.0,0.0,0.0,0.0,0.0,0.0,0.0,0.0,0.0,0.0,0.0,0.0,0.0,0.0,0.0,0.0,0.0,0.0,0.0,0.0,-2.568,-2.7678,-2.9499,-3.0675,-3.1062,-3.1236,-3.1236,-2.9352,-2.6907,0.0,0.0,0.0,0.0,0.0,0.0,0.0,0.0,0.0,0.0,0.0,0.0,0.0,0.0,0.0,0.0,0.0,0.0,0.0,0.0,0.0,0.0,0.0,0.0,0.0,0.0,0.0,0.0,0.0,0.0,0.0,0.0,0.0,0.0,0.0,0.0,0.0,0.0,0.0,0.0,0.0,0.0,0.0,0.0,0.0,0.0,0.0,0.0,0.0,0.0,0.0,0.0,0.0,0.0,0.0,0.0,0.0,0.0,0.0,0.0,0.0,0.0,0.0,0.0,0.0,0.0,0.0,0.0,0.0,0.0,0.0,0.0,0.0,0.0,0.0,0.0,0.0,0.0,0.0,0.0,0.0,0.0,0.0,0.0,0.0,0.0,0.0,0.0,0.0,0.0,0.0,0.0,0.0,0.0,0.0,0.0,0.0,0.0,0.0,0.0,0.0,0.0,0.0,-2.589,-2.8382,-3.0341,-3.1303,-3.1864,-3.1984,-3.157,-3.0421,-2.8003,-2.4022,0.0,0.0,0.0,0.0,0.0,0.0,0.0,0.0,0.0,0.0,0.0,0.0,0.0,0.0,0.0,0.0,0.0,0.0,0.0,0.0,0.0,0.0,0.0,0.0,0.0,0.0,0.0,0.0,0.0,0.0,0.0,0.0,0.0,0.0,0.0,0.0,0.0,0.0,0.0,0.0,0.0,0.0,0.0,0.0,0.0,0.0,0.0,0.0,0.0,0.0,0.0,0.0,0.0,0.0,0.0,0.0,0.0,0.0,0.0,0.0,0.0,0.0,0.0,0.0,0.0,0.0,0.0,0.0,0.0,0.0,0.0,0.0,0.0,0.0,0.0,0.0,0.0,0.0,0.0,0.0,0.0,0.0,0.0,0.0,0.0,0.0,0.0,0.0,0.0,0.0,0.0,0.0,0.0,0.0,0.0,0.0,0.0,0.0,0.0,0.0,0.0,0.0,-2.5952,-2.8687,-3.0955,-3.2078,-3.2505,-3.2625,-3.2385,-3.145,-2.9098,-2.4903,0.0,0.0,0.0,0.0,0.0,0.0,0.0,0.0,0.0,0.0,0.0,0.0,0.0,0.0,0.0,0.0,0.0,0.0,0.0,0.0,0.0,0.0,0.0,0.0,0.0,0.0,0.0,0.0,0.0,0.0,0.0,0.0,0.0,0.0,0.0,0.0,0.0,0.0,0.0,0.0,0.0,0.0,0.0,0.0,0.0,0.0,0.0,0.0,0.0,0.0,0.0,0.0,0.0,0.0,0.0,0.0,0.0,0.0,0.0,0.0,0.0,0.0,0.0,0.0,0.0,0.0,0.0,0.0,0.0,0.0,0.0,0.0,0.0,0.0,0.0,0.0,0.0,0.0,0.0,0.0,0.0,0.0,0.0,0.0,0.0,0.0,0.0,0.0,0.0,0.0,0.0,0.0,0.0,0.0,0.0,0.0,0.0,0.0,0.0,0.0,0.0,0.0,-2.5768,-2.8937,-3.141,-3.2826,-3.3,-3.312,-3.3347,-3.2332,-3.006,-2.6279,0.0,0.0,0.0,0.0,0.0,0.0,0.0,0.0,0.0,0.0,0.0,0.0,0.0,0.0,0.0,0.0,0.0,0.0,0.0,0.0,0.0,0.0,0.0,0.0,0.0,0.0,0.0,0.0,0.0,0.0,0.0,0.0,0.0,0.0,0.0,0.0,0.0,0.0,0.0,0.0,0.0,0.0,0.0,0.0,0.0,0.0,0.0,0.0,0.0,0.0,0.0,0.0,0.0,0.0,0.0,0.0,0.0,0.0,0.0,0.0,-1.6673,0.0,0.0,0.0,0.0,0.0,0.0,0.0,0.0,0.0,0.0,0.0,0.0,0.0,0.0,0.0,0.0,0.0,0.0,0.0,0.0,0.0,0.0,0.0,0.0,0.0,0.0,0.0,0.0,0.0,0.0,0.0,0.0,0.0,0.0,0.0,0.0,0.0,0.0,0.0,0.0,0.0,-2.6099,-2.9432,-3.1864,-3.2866,-3.3187,-3.3253,-3.3093,-3.2211,-3.0234,-2.6854,-2.4596,0.0,0.0,0.0,0.0,0.0,0.0,0.0,0.0,0.0,0.0,0.0,0.0,0.0,0.0,0.0,0.0,0.0,0.0,0.0,0.0,0.0,0.0,0.0,0.0,0.0,0.0,0.0,0.0,0.0,0.0,0.0,0.0,0.0,0.0,0.0,0.0,0.0,0.0,0.0,0.0,0.0,0.0,0.0,0.0,0.0,0.0,0.0,0.0,0.0,0.0,0.0,0.0,0.0,0.0,0.0,0.0,0.0,0.0,0.0,0.0,-1.791,0.0,0.0,0.0,0.0,0.0,0.0,0.0,0.0,0.0,0.0,0.0,0.0,0.0,0.0,0.0,0.0,0.0,0.0,0.0,0.0,0.0,0.0,0.0,0.0,0.0,0.0,0.0,0.0,0.0,0.0,0.0,0.0,0.0,0.0,0.0,0.0,0.0,0.0,0.0,0.0,-2.5987,-2.9526,-3.2171,-3.348,-3.3494,-3.3467,-3.3614,-3.2545,-3.0862,-2.8457,-2.5985,0.0,0.0,0.0,0.0,0.0,0.0,0.0,0.0,0.0,0.0,0.0,0.0,0.0,0.0,0.0,0.0,0.0,0.0,0.0,0.0,0.0,0.0,0.0,0.0,0.0,0.0,0.0,0.0,0.0,0.0,0.0,0.0,0.0,0.0,0.0,0.0,0.0,0.0,0.0,0.0,0.0,0.0,0.0,0.0,0.0,0.0,0.0,0.0,0.0,0.0,0.0,0.0,0.0,-2.0734,-2.0252,-2.0197,-2.0461,-2.1022,-2.1785,-2.1832,-2.1121,-1.9439,-1.7247,0.0,0.0,0.0,0.0,0.0,0.0,0.0,0.0,0.0,0.0,0.0,0.0,0.0,0.0,0.0,0.0,0.0,0.0,0.0,0.0,0.0,0.0,0.0,0.0,-2.3594,-2.3634,0.0,0.0,0.0,0.0,0.0,0.0,0.0,0.0,0.0,0.0,0.0,0.0,-2.5825,-2.9392,-3.2305,-3.3988,-3.3708,-3.3614,-3.4122,-3.2986,-3.165,-3.0234,-2.7615,-2.4111,0.0,0.0,0.0,0.0,0.0,0.0,0.0,0.0,0.0,0.0,0.0,0.0,0.0,0.0,0.0,0.0,0.0,0.0,0.0,0.0,0.0,0.0,0.0,0.0,0.0,0.0,0.0,0.0,0.0,0.0,0.0,0.0,-1.7311,-1.7482,0.0,0.0,0.0,0.0,0.0,0.0,0.0,0.0,0.0,0.0,0.0,0.0,0.0,-2.1911,-2.2859,-2.4489,-2.4252,-2.214,-2.3387,-2.2895,-2.0726,-2.0955,-2.2585,-2.4905,-2.4984,0.0,-2.0388,-1.6053,0.0,0.0,0.0,0.0,0.0,0.0,0.0,0.0,0.0,0.0,0.0,0.0,0.0,0.0,0.0,0.0,0.0,0.0,0.0,0.0,0.0,0.0,-2.6026,-2.5852,-2.6319,-2.6613,0.0,-2.3033,-2.0227,-1.9118,-1.8343,0.0,0.0,0.0,0.0,0.0,0.0,0.0,-2.6694,-2.9766,-3.2144,-3.34,-3.3454,-3.344,-3.3521,-3.312,-3.2345,-3.1129,-2.9486,-2.6108,-2.0377,-1.9521,0.0,0.0,0.0,0.0,0.0,0.0,0.0,0.0,0.0,0.0,0.0,0.0,0.0,0.0,0.0,0.0,0.0,0.0,0.0,0.0,0.0,0.0,0.0,0.0,0.0,0.0,0.0,0.0,0.0,-1.7061,-1.821,-1.7889,-1.8742,-1.8977,0.0,0.0,0.0,0.0,0.0,0.0,0.0,0.0,0.0,-2.3768,-2.4249,-2.513,-2.652,-2.7629,-2.7814,-2.6908,-2.4879,-2.3477,-2.2486,-2.1095,-2.1933,-2.4657,-2.4657,-2.3828,-2.2468,-1.9144,-1.6082,-1.3379,0.0,0.0,0.0,0.0,-1.5971,-1.7971,-1.8883,-1.8042,-1.6644,-1.7217,0.0,0.0,0.0,0.0,0.0,0.0,0.0,0.0,0.0,0.0,-2.7255,-2.7963,-2.8444,-2.8724,-2.8591,-2.676,-2.4436,0.0,-2.1416,-2.0321,-1.7328,0.0,0.0,0.0,0.0,-2.485,-2.7428,-3.0194,-3.2372,-3.3547,-3.3521,-3.348,-3.3668,-3.3253,-3.2612,-3.177,-3.0501,-2.7347,-2.1598,-2.0248,-1.6787,0.0,0.0,0.0,0.0,0.0,0.0,0.0,0.0,0.0,0.0,0.0,0.0,0.0,0.0,0.0,0.0,0.0,0.0,0.0,0.0,0.0,0.0,0.0,0.0,0.0,0.0,0.0,0.0,-1.8397,-1.9466,-1.8798,-1.996,-2.0319,0.0,0.0,0.0,0.0,0.0,0.0,-2.2926,-2.3634,-2.4903,-2.6907,-2.7321,-2.8217,-2.97,-3.014,-3.028,-3.0285,-2.5847,-2.3551,-2.3227,-2.0274,-2.0465,-2.3227,-2.3819,-2.3789,-2.2965,-2.1204,-1.7574,-1.3159,-1.2338,-1.3783,-1.6339,-1.5095,-1.6396,-1.8874,-1.9203,-1.8697,-1.7888,-1.7527,-1.7171,-1.6292,-1.4595,0.0,0.0,0.0,0.0,-2.4022,-2.6092,-2.7281,-2.8243,-2.9432,-2.9927,-3.014,-3.014,-2.9513,-2.807,0.0,-2.4436,-2.3233,-1.976,0.0,0.0,0.0,0.0,-2.6186,-2.8323,-3.0648,-3.2505,-3.3547,-3.3507,-3.3507,-3.3748,-3.3347,-3.2839,-3.2251,-3.133,-2.8307,-2.2713,-2.1211,-1.7892,-1.2285,0.0,0.0,0.0,0.0,0.0,0.0,0.0,0.0,0.0,0.0,0.0,0.0,0.0,0.0,0.0,0.0,0.0,0.0,0.0,0.0,0.0,0.0,0.0,0.0,0.0,0.0,0.0,0.0,0.0,-2.0641,-2.2338,0.0,0.0,0.0,0.0,-2.1867,-2.2645,-2.3928,-2.5665,-2.6573,-2.7869,-2.9659,-3.0274,-3.0875,-3.153,-3.157,-3.0702,-2.8867,-2.5681,-2.3298,-2.1242,-1.8373,-1.8581,-2.1242,-2.3913,-2.3389,-2.0663,-1.969,-1.7453,-1.4577,-1.396,-1.4695,-1.6057,-1.6246,-1.6541,-1.7237,-1.9718,-1.8134,-1.5184,-1.7421,-1.6705,-1.513,-1.5209,-1.7388,0.0,0.0,-2.4165,-2.6894,-2.815,-2.9125,-2.9873,-3.0234,-3.0541,-3.0755,-3.0755,-3.0274,-2.9459,0.0,-2.6787,-2.5344,-2.3741,0.0,-2.3327,-2.3861,-2.5304,-2.7175,-2.9526,-3.1156,-3.2345,-3.2959,-3.3253,-3.3414,-3.3427,-3.3414,-3.3146,-3.2559,-3.2198,-2.9355,-2.3427,-2.2501,-1.9238,-1.3089,-1.3163,0.0,0.0,0.0,0.0,0.0,0.0,0.0,0.0,0.0,0.0,0.0,0.0,0.0,0.0,0.0,0.0,0.0,0.0,0.0,0.0,0.0,0.0,0.0,0.0,0.0,0.0,0.0,0.0,-2.2979,-2.477,0.0,-2.326,-2.3594,-2.4182,-2.4783,-2.5812,-2.7121,-2.8711,-2.9259,-3.0087,-3.1289,-3.1717,-3.2198,-3.2786,-3.3,-3.2881,-3.2238,-2.7664,-2.4845,-2.4165,-1.9364,-1.8734,-2.1238,-2.2293,-2.2249,-2.1088,-2.0596,-1.8584,-1.5554,-1.5045,-1.6044,-1.7723,-1.625,-1.6795,-1.8207,-1.76,-1.667,-1.5671,-1.6176,-1.5579,-1.4945,-1.6262,-1.763,-1.9529,-2.2888,-2.5127,-2.6847,-2.9436,-3.0528,-3.1116,-3.141,-3.1704,-3.1917,-3.1917,-3.1463,-3.0915,-3.0488,-2.8925,-2.7134,-2.5464,-2.5718,-2.5959,-2.5411,-2.7068,-2.8885,-3.0301,-3.1597,-3.2545,-3.2933,-3.324,-3.3414,-3.3414,-3.324,-3.2879,-3.2291,-3.181,-2.9644,-2.5706,-2.3475,-2.0371,-1.6358,-1.5361,-1.4002,0.0,0.0,0.0,0.0,0.0,0.0,0.0,0.0,0.0,0.0,0.0,0.0,0.0,0.0,0.0,0.0,0.0,0.0,0.0,0.0,0.0,0.0,0.0,0.0,0.0,0.0,-2.4756,-2.4663,-2.664,-2.7362,-2.5678,-2.6239,-2.6987,-2.7682,-2.8537,-2.9593,-3.0875,-3.1316,-3.1837,-3.2519,-3.2933,-3.2907,-3.2251,-3.3501,-3.3752,-3.2968,-2.9142,-2.6859,-2.5872,-2.1201,-1.9498,-2.0347,-2.1417,-2.1169,-2.0245,-2.1069,-1.9407,-1.6483,-1.5981,-1.6745,-1.7889,-1.6243,-1.6717,-1.8059,-1.6518,-1.6035,-1.611,-1.5811,-1.5479,-1.5348,-1.6657,-1.7821,-1.9427,-2.3656,-2.5604,-2.7342,-3.0674,-3.1677,-3.2011,-3.2211,-3.2398,-3.2545,-3.2545,-3.2238,-3.1971,-3.1971,-3.0461,-2.8791,-2.7509,-2.7936,-2.8123,-2.7148,-2.8671,-3.014,-3.0715,-3.1824,-3.2652,-3.2946,-3.324,-3.3414,-3.3414,-3.2879,-3.2412,-3.2118,-3.1183,-2.9337,-2.6553,-2.3526,-2.0618,-1.7665,-1.6024,-1.412,-1.1818,0.0,0.0,0.0,0.0,0.0,0.0,0.0,0.0,0.0,0.0,0.0,0.0,0.0,0.0,0.0,0.0,0.0,0.0,0.0,0.0,0.0,0.0,0.0,-2.2098,-2.4369,-2.5945,-2.5705,-2.7976,-2.8991,-2.7562,-2.8444,-2.9472,-3.0354,-3.0688,-3.1223,-3.2091,-3.2692,-3.3146,-3.3427,-3.4028,-3.3072,-3.0094,-3.2878,-3.3006,-3.0482,-3.0482,-2.889,-2.6313,-2.3511,-2.0694,-1.8088,-2.0905,-2.0388,-1.7854,-2.0643,-2.0108,-1.7358,-1.6768,-1.6537,-1.6537,-1.653,-1.653,-1.653,-1.653,-1.6442,-1.6327,-1.6327,-1.6218,-1.6069,-1.592,-1.7727,-2.0389,-2.3111,-2.581,-2.8617,-3.1672,-3.2559,-3.2559,-3.2572,-3.2572,-3.2572,-3.2572,-3.2572,-3.2559,-3.2559,-3.141,-3.0327,-3.002,-2.9953,-2.9753,-2.9192,-3.0074,0.0,-3.0835,-3.1837,-3.2652,-3.2919,-3.3213,-3.3387,-3.3387,-3.2318,-3.177,-3.2038,-3.0434,-2.8384,-2.6009,-2.2946,-1.9871,-1.6801,-1.4879,-1.3302,-1.2064,0.0,0.0,0.0,0.0,0.0,0.0,0.0,0.0,0.0,0.0,0.0,0.0,0.0,0.0,0.0,0.0,0.0,0.0,0.0,0.0,0.0,0.0,-2.4302,-2.4516,-2.6466,-2.8243,-2.9219,-3.0368,-3.0996,-3.0795,-3.0875,-3.1142,-3.1597,-3.1904,-3.2358,-3.3013,-3.3427,-3.3774,-3.4055,-3.4643,-3.4518,-3.3875,-3.2747,-3.2883,-3.4077,-2.972,-2.728,-2.6313,-2.3511,-2.0694,-1.7867,-1.8736,-1.8438,-1.7636,-1.838,-1.8023,-1.7236,-1.7073,-1.6944,-1.6842,-1.6727,-1.6686,-1.67,-1.6815,-1.6754,-1.6625,-1.6625,-1.6524,-1.6395,-1.6354,-1.6766,-1.8,-2.0585,-2.3411,-2.6089,-2.9141,-3.1432,-3.2919,-3.312,-3.3173,-3.3173,-3.3173,-3.3013,-3.2866,-3.2866,-3.2372,-3.1784,-3.1276,-3.0835,-3.0568,-3.0621,-3.0902,0.0,-3.169,-3.2211,-3.2492,-3.2358,-3.2612,-3.2786,-3.2786,-3.1904,-3.1289,-3.1156,-3.01,-2.8934,-2.7805,-2.3609,-1.9342,-1.5148,-1.3612,-1.2593,0.0,0.0,0.0,0.0,0.0,0.0,0.0,0.0,0.0,0.0,0.0,0.0,0.0,0.0,0.0,0.0,0.0,0.0,0.0,0.0,0.0,0.0,-2.509,-2.7014,-2.7789,-2.8845,-2.998,-3.1196,-3.1864,-3.2332,-3.2639,-3.2505,-3.2532,-3.2826,-3.3013,-3.336,-3.3948,-3.4148,-3.4389,-3.4683,-3.5137,-3.4728,-3.3638,-3.3409,-3.3484,-3.3879,-3.1461,-2.9139,-2.6529,-2.4797,-2.1773,-1.786,-1.786,-1.7812,-1.7738,-1.765,-1.7555,0.0,0.0,0.0,0.0,0.0,-1.6842,-1.6863,-1.6951,-1.6924,-1.6842,-1.6842,-1.6788,-1.67,-1.6639,-1.6659,-1.7313,-1.9873,-2.2535,-2.5478,-2.856,-3.1202,-3.324,-3.3534,-3.3507,-3.3414,-3.3414,-3.328,-3.316,-3.316,-3.2919,0.0,-3.2278,-3.1837,-3.1503,-3.1423,-3.1623,-3.1851,-3.2078,-3.2465,-3.2706,-3.2652,-3.2812,-3.2906,-3.2906,-3.1877,0.0,0.0,0.0,-2.7787,-2.5151,-2.224,0.0,0.0,0.0,0.0,0.0,0.0,0.0,0.0,-1.9054,-2.0003,0.0,0.0,0.0,0.0,0.0,0.0,0.0,0.0,0.0,0.0,0.0,0.0,0.0,0.0,0.0,0.0,-2.7722,-2.974,-3.1169,-3.1209,-3.1383,-3.2158,-3.2746,-3.32,-3.3507,-3.3521,-3.3627,-3.3921,-3.3961,-3.4229,-3.4776,0.0,0.0,0.0,0.0,-3.4399,-3.1953,-3.4427,-3.4401,-3.1905,-3.4094,-3.2191,-2.6961,-2.6745,-2.3502,-1.8302,-1.8088,-1.7846,-1.7846,-1.7846,-1.7826,-1.7758,-1.7256,-1.7032,-1.7005,-1.7005,-1.6992,-1.6978,-1.6978,0.0,0.0,-1.6978,-1.6978,-1.6958,-1.6815,-1.687,-1.7573,-1.9886,-2.2615,-2.5461,-2.8563,-3.1135,-3.3079,-3.3761,-3.3614,-3.3414,-3.3414,-3.3414,-3.3414,-3.3414,-3.32,-3.3026,-3.3026,-3.2759,-3.2372,-3.1851,-3.2211,-3.2465,-3.2225,-3.2652,-3.308,-3.3334,0.0,0.0,-3.3414,-3.2131,-3.1316,-3.1276,-2.9392,-2.5824,-2.0382,-2.0179,-1.7999,-1.3356,-1.3295,-1.3546,-1.3946,-1.5956,-1.8,-1.9972,-1.9105,-2.0452,0.0,0.0,0.0,0.0,0.0,0.0,0.0,0.0,0.0,0.0,0.0,0.0,0.0,0.0,0.0,-2.7001,-2.9058,-3.0889,-3.2118,-3.2652,-3.2973,-3.3133,-3.348,-3.3828,-3.4122,-3.4148,-3.4175,-3.4229,-3.4456,-3.475,-3.5097,-3.5338,-3.5591,-3.5899,-3.6193,-3.6002,-3.5102,-3.359,-3.349,-3.475,0.0,0.0,-2.9979,-2.7607,-2.4589,-2.1335,-1.8949,-1.7792,-1.7684,-1.7684,-1.7616,-1.7507,-1.7514,-1.7372,-1.7154,-1.7154,-1.708,-1.6978,-1.6978,-1.6978,-1.6978,-1.6978,-1.6978,-1.6978,-1.6944,-1.6958,0.0,-1.7566,-1.9847,-2.2554,-2.5265,-2.8122,-3.076,-3.2878,-3.3454,-3.3414,-3.3414,-3.3414,-3.3414,-3.3414,-3.336,-3.3334,-3.3334,-3.2893,-3.2505,-3.2398,-3.2478,-3.2612,-3.2786,-3.2906,-3.3,-3.3053,-3.3066,-3.316,-3.3387,-3.2505,-3.1837,-3.1597,-3.01,-2.6934,-2.1883,-2.1706,-1.9569,-1.4764,-1.4489,-1.4482,-1.4563,-1.4951,-1.6369,-1.8609,-2.145,-2.405,0.0,0.0,0.0,0.0,0.0,0.0,0.0,0.0,0.0,0.0,0.0,-2.2392,-2.3728,0.0,-2.7188,-2.8951,-3.0608,-3.1971,-3.2853,-3.3614,-3.4028,-3.3881,-3.4135,-3.4442,-3.4723,-3.4897,-3.4977,-3.4977,-3.5257,-3.5551,-3.5832,-3.5845,-3.5992,-3.6286,-3.6433,-3.6433,-3.6286,-3.4862,-3.4721,-3.5845,-3.4158,-3.2405,-3.0846,-2.7823,-2.5014,-2.1983,-1.9177,-1.7826,-1.7758,-1.7758,-1.767,-1.7548,-1.7704,-1.7575,-1.7304,-1.7304,-1.7216,-1.7087,-1.7087,-1.7039,-1.6978,-1.6978,-1.6978,-1.6978,-1.6978,-1.6978,-1.6978,-1.6978,-1.9044,-2.1743,-2.4726,-2.7349,-2.9975,-3.2996,-3.3654,-3.3601,-3.344,-3.3534,-3.3601,-3.344,-3.3414,-3.3414,-3.3414,-3.3173,-3.2973,-3.2973,-3.2973,-3.3026,-3.3173,-3.3334,-3.3427,-3.3427,-3.3561,-3.3708,-3.3855,-3.2919,-3.2198,-3.1904,-3.0782,-2.8395,-2.4763,-2.3289,-2.0899,-1.7406,-1.5931,-1.5228,-1.5296,-1.5371,-1.6532,-1.8961,-2.2352,-2.4829,0.0,0.0,0.0,0.0,0.0,0.0,0.0,0.0,-2.1122,-2.2832,-2.3701,-2.4743,-2.6707,-2.7789,-2.9005,-3.0915,-3.2064,-3.2946,-3.3587,-3.4309,-3.4696,-3.4509,-3.4696,-3.4963,-3.5257,-3.5498,-3.5658,-3.5712,-3.5939,-3.6206,-3.65,-3.6286,-3.6259,-3.65,-3.658,-3.65,-3.634,-3.6393,-3.6246,-3.5899,-3.5658,-3.4102,-3.171,-2.8682,-2.5664,-2.2857,-1.9383,-1.786,-1.786,-1.786,-1.7792,-1.7704,-1.7812,-1.7724,-1.75,-1.7473,-1.7365,-1.7236,-1.7236,-1.7161,-1.7066,-1.7066,-1.7066,-1.706,-1.7032,-1.7019,-1.7019,-1.7019,-1.8678,-2.1196,-2.4715,-2.7133,-2.9518,-3.3081,-3.3975,-3.3881,-3.3574,-3.3708,-3.3788,-3.3467,-3.3414,-3.3414,-3.3414,-3.3414,-3.3414,-3.3414,-3.3414,-3.3414,-3.3414,-3.3694,-3.3908,-3.3961,-3.4229,-3.4402,-3.4402,-3.348,-3.2759,-3.2465,-3.173,-3.0233,-2.7721,-2.4861,-2.2392,-1.9914,-1.7186,-1.594,-1.6029,-1.6151,-1.7178,-1.9313,-2.1891,-2.4281,-1.9332,-1.8637,0.0,-2.0722,-2.1015,-2.1817,0.0,0.0,-2.5638,-2.7148,-2.815,-2.8898,-2.9432,-3.0234,-3.1249,-3.2532,-3.3066,-3.3614,-3.4496,-3.4696,-3.4843,-3.507,-3.5124,-3.5257,-3.5551,-3.5605,-3.5738,-3.6006,-3.6059,-3.6206,-3.65,-3.6473,-3.6473,-3.65,-3.6754,-3.65,-3.5738,-3.5992,-3.5845,-3.5297,-3.5257,-3.5006,-3.4544,-3.171,-2.8897,-2.5664,-2.0262,-1.786,-1.786,-1.786,-1.7846,-1.7846,-1.786,-1.7846,-1.7792,-1.767,-1.7528,-1.7392,-1.7392,-1.7385,-1.7372,-1.7372,-1.7372,-1.7344,-1.7209,-1.7168,-1.7168,-1.7168,-1.738,-1.888,-2.451,-2.6021,-2.7687,-3.2995,-3.4269,-3.4189,-3.3895,-3.3855,-3.3788,-3.3467,-3.3414,-3.3414,-3.3414,-3.3414,-3.3414,-3.3414,-3.3414,-3.3414,-3.3414,-3.3694,-3.3988,-3.4242,-3.4536,-3.471,-3.471,-3.4349,-3.4002,-3.3708,-3.3334,-3.1887,-2.9415,-2.6573,-2.3731,-2.108,-1.8248,-1.6768,-1.6653,-1.6666,-1.681,-1.6877,-1.9629,-2.3173,-2.2472,0.0,0.0,0.0,-2.4275,-2.5184,-2.7081,-2.7509,-2.7869,-2.9165,-3.0007,-3.0635,-3.1102,-3.149,-3.2064,0.0,-3.3494,-3.3935,-3.4656,-3.491,-3.5004,-3.495,-3.5097,-3.5311,-3.5605,-3.5778,-3.5344,-3.3833,-3.5584,-3.5856,-3.4033,-3.561,-3.6433,-3.6259,-3.654,-3.65,-3.6139,-3.6259,-3.6206,-3.5952,-3.5792,-3.5712,-3.5484,-3.0859,-2.6245,-2.166,-1.923,-1.8124,-1.8124,-1.8124,-1.8124,-1.8124,-1.8124,-1.8124,-1.8091,-1.786,-1.7684,-1.7555,-1.7555,-1.7494,-1.7419,-1.7419,-1.7419,-1.7405,-1.7344,-1.7324,-1.7324,-1.7324,-1.7324,-1.8181,-2.2256,-2.4596,-2.6913,-3.0926,-3.3175,-3.4496,-3.4202,-3.4282,-3.4309,-3.4002,-3.3935,-3.3935,-3.3935,-3.3935,-3.3935,-3.3935,-3.3641,-3.348,-3.3668,-3.3948,-3.4322,-3.4776,-3.4937,-3.5017,-3.5017,-3.475,-3.4523,-3.4402,-3.4108,-3.3514,-3.2277,-2.8091,-2.5172,-2.3918,-1.9538,-1.7209,-1.7141,-1.7141,-1.7107,-1.7046,-1.9812,-2.3032,-2.4088,0.0,0.0,-2.5865,-2.7121,-2.8136,-2.8671,-2.9192,-2.9833,-3.0768,-3.1303,-3.1744,-3.2251,-3.2412,-3.2732,-3.3547,-3.4002,-3.4429,-3.4937,-3.511,-3.5084,-3.4803,-3.4803,-3.4977,-3.5351,-3.5805,-3.5337,-3.3445,-3.539,-3.5832,-3.3371,-3.5365,-3.6366,-3.6086,-3.6433,-3.654,-3.6393,-3.6473,-3.6009,-3.5042,-3.5719,-3.5626,-3.4733,-2.9635,-2.4753,-2.0553,-1.8987,-1.8321,-1.8321,-1.8321,-1.8321,-1.8321,-1.8321,-1.8321,-1.8287,-1.8077,-1.7894,-1.7772,-1.7772,-1.767,-1.7541,-1.7541,-1.7541,-1.7534,-1.7494,-1.7487,-1.7487,-1.7487,-1.7487,-1.8129,-2.0945,-2.3926,-2.6679,-2.9641,-3.2571,-3.4803,-3.4509,-3.4616,-3.467,-3.4376,-3.4322,-3.4322,-3.4322,-3.4322,-3.4322,-3.4322,-3.3948,-3.3748,-3.3975,-3.4255,-3.4629,-3.5137,-3.5191,-3.5191,-3.5191,-3.5004,-3.4883,-3.4883,-3.4683,-3.4563,-3.4563,-2.9863,-2.6891,-2.6044,-2.1169,-1.838,-1.7487,-1.7487,-1.746,-1.7419,-1.937,-2.1934,0.0,0.0,-2.517,-2.7482,-2.8951,-3.014,-3.1289,-3.1784,-3.2091,-3.2412,-3.2492,-3.2599,-3.2893,-3.3187,-3.3574,-3.4189,-3.4776,-3.5257,-3.5565,-3.5364,-3.5084,-3.4803,-3.4269,-3.4148,0.0,-3.5565,-3.6313,-3.6666,-3.6674,-3.65,-3.6268,-3.65,-3.6366,-3.6086,-3.662,-3.6647,-3.6086,-3.6366,-3.4785,-3.1633,-3.4733,-3.4503,-3.1621,-2.8512,-2.7186,-2.6541,-2.0763,-1.8321,-1.8321,-1.8321,-1.8321,-1.8321,-1.8321,-1.8321,-1.8321,-1.8301,-1.8213,-1.8077,-1.8077,-1.7989,-1.7846,-1.7846,-1.7846,-1.7826,-1.7684,-1.765,-1.765,-1.765,-1.765,-1.8326,-2.1278,-2.4353,-2.7156,-3.017,-3.2998,-3.5097,-3.4817,-3.475,-3.467,-3.4376,-3.4322,-3.4322,-3.4322,-3.4322,-3.4322,-3.4322,-3.4309,-3.4295,-3.4309,-3.4563,-3.487,-3.5164,-3.5191,-3.5191,-3.5191,-3.5191,-3.5177,-3.5177,-3.5177,-3.5164,-3.5164,-3.2336,-2.9303,-2.6509,-2.3493,-2.0591,-1.765,-1.765,-1.7568,-1.7426,-1.7568,-1.9357,0.0,0.0,-2.803,-2.9993,-3.1223,-3.2104,-3.2692,-3.1624,-3.0374,-3.0501,-2.9848,-2.9445,-2.9359,-3.0999,-3.2519,-3.3307,-3.4269,-3.5151,-3.5832,-3.5832,-3.5458,-3.4576,-3.4803,0.0,0.0,0.0,0.0,-3.3383,-3.5339,-3.5519,-3.3309,-3.5274,-3.6366,-3.6086,-3.6433,-3.654,-3.6366,-3.6647,-3.5169,-3.2126,-3.3248,-3.2126,-2.9,-2.8081,-2.6524,-2.4487,-2.043,-1.862,-1.862,-1.862,-1.862,-1.862,-1.862,-1.862,-1.862,-1.862,-1.8511,-1.8375,-1.8267,-1.8145,-1.8023,-1.8023,-1.7948,-1.7846,-1.7812,-1.786,-1.7948,-1.7948,-1.7948,-1.8177,-1.9101,-2.1514,-2.4539,-2.7207,-3.0331,-3.2998,-3.4676,-3.5057,-3.5017,-3.4923,-3.4897,-3.4897,-3.4897,-3.4897,-3.4897,-3.4897,-3.4736,-3.4616,-3.4616,-3.487,-3.5084,-3.5191,-3.5191,-3.5191,-3.5191,-3.5191,-3.5191,-3.5191,-3.5191,-3.5191,-3.5191,-3.2361,-2.954,-2.6529,-2.3729,-2.0662,-1.7792,-1.7792,-1.7758,-1.7724,-1.7772,-1.9309,0.0,-2.8551,-3.014,-3.2118,-3.304,-3.332,-3.257,-3.1023,-2.9318,-2.8155,-2.7752,-2.7599,-2.7343,-2.9368,-3.1249,-3.2332,-3.3414,-3.4549,-3.5752,-3.5819,-3.5485,-3.4723,-3.495,-3.4937,0.0,0.0,0.0,-3.3112,-3.5119,-3.5376,-3.3186,-3.5209,-3.6433,-3.6233,-3.65,-3.6647,-3.6647,-3.6834,-3.5335,-3.2385,-3.1251,-3.0351,-2.9459,-2.7192,-2.5835,-2.4675,-2.0586,-1.8762,-1.8762,-1.8762,-1.8762,-1.8762,-1.8762,-1.8762,-1.8762,-1.8762,-1.8694,-1.8586,-1.8443,-1.8301,-1.8179,-1.8179,-1.8111,-1.8023,-1.8023,-1.8091,-1.8179,-1.8179,-1.8179,-1.8179,-1.8179,-2.0385,-2.3196,-2.6147,-2.9065,-3.1989,-3.4885,-3.5431,-3.5351,-3.5351,-3.5271,-3.5191,-3.5191,-3.5284,-3.5351,-3.5351,-3.5191,-3.503,-3.4937,-3.5084,-3.5191,-3.5191,-3.5191,-3.5191,-3.5191,-3.5191,-3.5191,-3.5191,-3.5297,-3.5311,-3.5204,-3.3549,-3.0726,-2.6529,-2.4589,-2.1781,-1.786,-1.786,-1.786,-1.786,-1.7914,-1.9,-2.8683,-2.9911,-3.1341,-3.3612,-3.4183,-3.3615,-3.1276,-3.0282,-2.91,-2.6066,-2.6212,-2.6969,0.0,0.0,-2.9887,-3.1343,-3.2412,-3.3681,-3.5444,-3.5458,-3.5271,0.0,0.0,0.0,0.0,0.0,0.0,-3.5992,0.0,-3.6072,-3.5843,-3.6353,-3.6527,-3.6294,-3.6573,-3.6693,-3.6941,-3.6693,-3.5126,-3.216,-2.9222,-2.9222,-3.1712,-2.6044,-2.4921,-2.7399,-2.1271,-1.8762,-1.8762,-1.8762,-1.8762,-1.8762,-1.8762,-1.8762,-1.8782,-1.8762,-1.8782,-1.8762,-1.8599,-1.8443,-1.8335,-1.8335,-1.8321,-1.8321,-1.8321,-1.8321,-1.8335,-1.8335,-1.8335,-1.8335,-1.8335,-2.0335,-2.3216,-2.6531,-2.9184,-3.2082,-3.541,-3.5845,-3.5658,-3.5658,-3.5431,-3.5244,-3.5019,-3.5258,-3.5645,-3.5431,-3.5431,-3.5538,-3.5231,-3.5204,-3.5217,-3.5217,-3.5231,-3.5244,-3.5244,-3.5244,-3.5244,-3.5244,-3.5498,-3.5525,-3.5257,-3.5511,-3.2669,-2.6559,-2.6559,-2.3747,-1.788,-1.788,-1.788,-1.7901,-1.8036,-1.8023,-2.4249,-2.7593,-3.0636,-3.1578,-3.2178,-3.2454,-3.3646,-3.0352,-2.7017,-2.7068,-2.5887,-2.4635,0.0,0.0,0.0,-3.0154,-3.2585,0.0,-3.638,-3.654,0.0,0.0,0.0,-3.5605,-3.4723,-3.511,0.0,0.0,-3.5952,-3.518,-3.2725,-3.521,-3.5702,-3.343,-3.3491,-3.4655,-3.6941,-3.4655,-3.1924,-2.9007,-2.8327,-2.7182,-2.5598,-2.3997,-2.3777,-2.4244,-2.037,-1.8762,-1.8762,-1.8762,-1.8762,-1.8762,-1.8762,-1.883,-1.8918,-1.8796,-1.8905,-1.9061,-1.8796,-1.8599,-1.8477,-1.8477,-1.8409,-1.8321,-1.8321,-1.8389,-1.8477,-1.8477,-1.8477,-1.8477,-1.8477,-1.892,-2.0917,-2.5913,-2.7762,-2.9822,-3.5002,-3.6019,-3.5952,-3.5952,-3.5899,-3.5187,-3.2748,-3.4363,-3.5292,-3.2845,-3.4401,-3.5778,-3.5257,-3.5378,-3.5511,-3.5511,-3.5712,-3.5845,-3.5845,-3.5845,-3.5845,-3.5845,-3.5912,-3.5925,-3.5859,-3.5925,-3.305,-2.7234,-2.7034,-2.4153,-1.8199,-1.8199,-1.8199,-1.8199,-1.8247,-1.8233,-2.3903,-2.6724,-2.9043,-2.9415,-2.9535,-2.97,-2.9221,-2.7023,-2.4578,-2.3004,-2.2729,0.0,0.0,0.0,0.0,0.0,0.0,0.0,-3.6273,-3.654,-3.654,0.0,-3.6473,0.0,-3.5404,-3.5752,-3.5965,0.0,-3.4643,-3.3441,-3.1785,-3.2419,-3.2172,-3.0587,-3.0362,-3.1948,-3.4878,-3.1948,-2.9674,-2.7863,-2.6519,-2.4921,-2.3318,-2.2043,-2.2074,-2.3214,0.0,-1.8959,-1.8959,-1.8959,-1.8959,-1.8959,-1.8959,-1.9006,-1.9081,-1.8993,-1.9061,-1.9183,-1.9006,-1.885,-1.8728,-1.8654,-1.8586,-1.8511,-1.8511,-1.8565,-1.864,-1.864,-1.864,-1.864,-1.864,-1.864,-2.0208,-2.6183,-2.757,-2.9213,-3.5133,-3.6353,-3.6219,-3.6099,-3.6072,-3.5666,-3.4015,-3.4015,-3.4246,-3.3796,-3.4015,-3.4542,-3.5418,-3.5725,-3.5819,-3.5819,-3.5979,-3.6072,-3.6072,-3.6072,-3.6072,-3.6072,-3.6193,-3.6206,-3.6072,-3.6193,-3.3515,-2.7428,-2.7196,-2.4325,-1.8321,-1.8321,-1.8321,-1.8321,-1.8389,-1.8409,-2.4823,-2.5808,-2.674,-2.6926,-2.7024,-2.5942,-2.2572,-2.2631,-2.2192,-1.7965,0.0,-2.1049,-2.0324,0.0,-2.5718,-2.7856,0.0,-3.3106,-3.5805,-3.6153,-3.6366,-3.6981,-3.6754,-3.6433,-3.6166,-3.6353,-3.6393,-3.6153,-3.3223,-3.1542,-3.1309,-2.9534,-2.809,-2.7429,-2.7657,-2.8996,-3.124,-2.9007,-2.7657,-2.7192,-2.4693,-2.3105,-2.2686,-2.0073,-2.0372,-2.2708,-2.0318,-1.9203,-1.9203,-1.9203,-1.9203,-1.9203,-1.9203,-1.9217,-1.9237,-1.9203,-1.9217,-1.9257,-1.9217,-1.9128,-1.9027,-1.885,-1.8782,-1.8762,-1.8762,-1.8782,-1.8796,-1.8796,-1.8796,-1.8816,-1.8816,-1.8816,-2.0182,-2.5873,-2.7677,-2.9491,-3.5113,-3.6507,-3.65,-3.6233,-3.6193,-3.6042,-3.6075,-3.4083,-3.3408,-3.5649,-3.4108,-3.3617,-3.6055,-3.6179,-3.6126,-3.6126,-3.6166,-3.6193,-3.6193,-3.6193,-3.6193,-3.6193,-3.6433,-3.6433,-3.6206,-3.6433,-3.3751,-2.7338,-2.7328,-2.4443,-1.8443,-1.8423,-1.8423,-1.8443,-1.8552,-1.8599,-1.9614,-2.182,-2.418,-2.4206,-2.3962,-2.3923,-2.443,-2.3247,0.0,0.0,0.0,-2.2341,-2.1719,-2.3324,0.0,-2.811,0.0,0.0,0.0,0.0,-3.6727,0.0,0.0,0.0,0.0,0.0,0.0,0.0,0.0,-3.082,-2.8394,-3.0443,-2.9222,-2.4217,-2.649,-2.6945,-2.4921,-2.6965,-2.6727,-2.4006,-2.3539,-2.2027,-1.9648,-1.9214,-1.9289,-1.9866,-1.9427,0.0,-1.9203,-1.9203,-1.9203,-1.9203,-1.9203,-1.9271,-1.9379,-1.9257,-1.9359,-1.9535,-1.9291,-1.9271,-1.9305,-1.904,-1.8871,-1.8762,-1.8762,-1.885,-1.8959,-1.8959,-1.904,-1.9128,-1.9128,-1.9128,-2.0017,-2.3348,-2.6299,-2.8979,-3.2443,-3.5088,-3.6861,-3.6794,-3.6794,-3.5884,-3.343,-3.4802,-3.5284,-3.3454,-3.5017,-3.6748,-3.7155,-3.6727,-3.6433,-3.6433,-3.6647,-3.6794,-3.6794,-3.6794,-3.6794,-3.6794,-3.6834,-3.6834,-3.6794,-3.6834,-3.3986,-2.8005,-2.8025,-2.4899,-1.904,-1.8938,-1.8938,-1.904,-1.8952,-1.8972,-2.0911,-2.1361,-2.1398,-2.1224,-2.087,-2.0653,-2.0916,0.0,0.0,0.0,0.0,-2.1309,-2.0735,0.0,0.0,0.0,0.0,0.0,0.0,0.0,0.0,0.0,0.0,0.0,0.0,0.0,0.0,0.0,0.0,-3.0846,-2.7917,-2.6215,-2.3997,-2.1048,-2.2424,-2.3318,-2.3318,-2.3318,-2.3318,-2.3318,-2.1827,-2.0299,-1.8993,-1.9149,-1.9257,-1.9325,-1.9413,-1.9447,-1.9447,-1.9447,-1.9447,-1.9447,-1.9447,-1.9488,-1.9535,-1.9468,-1.9535,-1.9644,-1.9488,-1.9434,-1.9413,-1.9271,-1.9115,-1.8993,-1.8993,-1.904,-1.9094,-1.9094,-1.9149,-1.9203,-1.9203,-1.9203,-1.9887,-2.2838,-2.6053,-2.9009,-3.2137,-3.394,-3.5333,-3.7144,-3.7382,-3.6946,-3.5558,-3.5095,-3.4417,-3.3011,-3.4289,-3.5295,-3.5069,-3.6432,-3.7195,-3.7195,-3.7301,-3.7382,-3.7382,-3.7382,-3.7382,-3.7382,-3.7382,-3.7382,-3.7382,-3.7382,-3.5371,-3.0912,-2.9051,-2.609,-2.1765,-1.9831,-1.9128,-1.9203,-1.9128,-1.9183,-2.3264,-2.1719,-1.9624,-1.9291,-1.885,-1.826,-1.7365,-1.7992,0.0,0.0,0.0,-1.9947,-1.9613,0.0,0.0,0.0,0.0,0.0,0.0,0.0,0.0,0.0,0.0,0.0,0.0,0.0,0.0,0.0,0.0,0.0,-2.7182,-2.1725,-1.8782,-1.8816,-1.8782,-1.9922,-2.2464,-1.9965,-1.9965,-2.225,-2.0109,-1.9061,-1.9094,-1.9325,-1.9447,-1.9481,-1.961,-1.9664,-1.9664,-1.9664,-1.9664,-1.9664,-1.9664,-1.9664,-1.9664,-1.9664,-1.9664,-1.9664,-1.9664,-1.959,-1.9481,-1.9481,-1.9359,-1.9203,-1.9203,-1.9217,-1.9257,-1.9257,-1.9271,-1.9305,-1.9305,-1.9305,-1.9993,-2.3,-2.5545,-2.8278,-3.1319,-3.2011,-3.293,-3.6167,-3.6888,-3.7102,-3.7569,-3.5737,-3.41,-3.3172,-3.3207,-3.3012,-3.2309,-3.4922,-3.7058,-3.7058,-3.7422,-3.7809,-3.7809,-3.7809,-3.7809,-3.7809,-3.7809,-3.7809,-3.7809,-3.7809,-3.6446,-3.3472,-3.0228,-2.6978,-2.3994,-2.0901,-1.9291,-1.9345,-1.9305,-1.9393,-2.3415,-2.1879,-1.9752,-1.9305,-1.8762,-1.8135,-1.7342,0.0,0.0,-1.7524,-1.8464,-1.9586,-2.0067,0.0,0.0,0.0,0.0,0.0,0.0,0.0,0.0,0.0,0.0,0.0,0.0,0.0,0.0,0.0,0.0,0.0,-2.3997,-2.0586,-1.883,-1.8972,-1.883,-1.9049,-1.9435,-1.9193,-1.9193,-1.9435,-1.9351,-1.9257,-1.9393,-1.9413,-1.9501,-1.9644,-1.9664,-1.9664,0.0,-1.9664,-1.9664,-1.9664,-1.9664,-1.9664,-1.9664,-1.9664,-1.9664,-1.9664,-1.9664,-1.9644,-1.9644,-1.9644,-1.9447,-1.9203,-1.9203,-1.9305,-1.9413,-1.9413,-1.9522,-1.9624,-1.9624,-1.9624,-2.0309,-2.3236,-2.3994,-2.504,-2.8066,-2.8753,-2.968,-3.2919,-3.363,-3.4546,-3.7342,-3.7596,-3.642,-3.363,-3.3359,-3.2339,-2.9527,-3.2042,-3.4345,-3.4345,-3.6474,-3.7809,-3.7809,-3.7809,-3.7809,-3.7809,-3.7809,-3.7809,-3.7809,-3.7809,-3.6549,-3.3524,-3.0219,-2.7273,-2.4383,-2.1129,-1.9556,-1.98,-1.9678,-1.9766,-2.3633,-2.1818,-1.9766,-1.9305,-1.8552,-1.7946,-1.8284,0.0,-1.7734,-1.8432,-1.9037,-1.9439,-1.9666,-2.004,0.0,0.0,0.0,0.0,0.0,0.0,0.0,0.0,0.0,0.0,0.0,0.0,0.0,0.0,0.0,0.0,-2.0961,-1.95,-1.8796,-1.885,-1.8884,-1.8918,-1.8993,-1.9081,-1.9115,-1.9115,-1.9271,-1.9379,-1.9434,-1.9522,-1.961,-1.9664,-1.9664,-1.9664,0.0,-1.9664,-1.9664,-1.9664,-1.9664,-1.9664,-1.9664,-1.9664,-1.9664,-1.9664,-1.9664,-1.9664,-1.9664,-1.9664,-1.9576,-1.9488,-1.9488,-1.9522,-1.9569,-1.9569,-1.961,-1.9664,-1.9664,-1.9664,-1.988,-2.102,-2.1421,-2.2096,-2.5386,-2.5852,-2.6809,-3.0101,-3.0794,-3.1752,-3.4803,-3.5498,-3.5023,-3.3862,-3.37,-3.2578,-2.9519,-3.021,-3.1992,-3.3922,-3.6703,-3.8437,-3.8611,-3.8611,-3.8691,-3.8878,-3.8878,-3.8878,-3.8878,-3.8878,-3.8244,-3.7122,-3.208,-2.878,-2.7651,-2.2283,-1.9888,-2.001,-1.9963,-1.9997,-2.4533,-2.2055,-1.9624,-1.9183,-1.8287,-1.7761,0.0,-1.8142,-1.7589,-1.9089,-1.9372,-1.9372,-1.9372,-1.9599,-2.0134,0.0,0.0,0.0,0.0,0.0,0.0,0.0,0.0,0.0,0.0,0.0,0.0,0.0,0.0,0.0,-2.043,-1.9407,-1.8918,-1.8959,-1.8972,-1.9027,-1.9115,-1.9217,-1.9271,-1.9271,-1.9434,-1.9501,-1.9501,-1.961,-1.9664,-1.9664,-1.9664,-1.9664,0.0,-1.9664,-1.9664,-1.9664,-1.9664,-1.9664,-1.9664,-1.9664,-1.9664,-1.9664,-1.9664,-1.9664,-1.9664,-1.9664,-1.9664,-1.9664,-1.9664,-1.9664,-1.9664,-1.9664,-1.9664,-1.9664,-1.9664,-1.9664,-1.9664,-1.9664,-1.9664,-2.0373,-2.2522,-2.3005,-2.3953,-2.7053,-2.7759,-2.8702,-3.2018,-3.2557,-3.2625,-3.2602,-3.1721,-3.0564,-2.8172,-2.8086,-2.9371,-3.2746,-3.5708,-3.7853,-3.9252,-3.9306,-3.9372,-3.9599,-3.9599,-3.9599,-3.9599,-3.9599,-3.9599,-3.9599,-3.3244,-2.9845,-2.9845,-2.3268,-2.0119,-2.0173,-2.0173,-2.0187,-2.6068,-2.3214,-1.9325,-1.8884,-1.7968,-1.7455,0.0,-1.7929,-1.7408,-1.9038,-1.9372,-1.9372,-1.9372,-1.9599,-2.0,-2.0588,0.0,0.0,0.0,0.0,0.0,0.0,0.0,0.0,0.0,0.0,0.0,0.0,0.0,0.0,-2.3633,-2.0827,-1.9271,-1.9413,-1.9149,-1.9128,-1.9427,-1.9434,-1.9434,-1.9434,-1.959,-1.9664,-1.9664,-1.9664,-1.9664,-1.9664,-1.9664,-1.9664,0.0,-1.9664,-1.9664,-1.9664,-1.9664,-1.9664,-1.9664,-1.9664,-1.9664,-1.9664,-1.9664,-1.9664,-1.9664,-1.9664,-1.9664,-1.9664,-1.9664,-1.9664,-1.9664,-1.9664,-1.9664,-1.9664,-1.9664,-1.9664,-1.9664,-1.9664,-1.9664,-1.9664,-1.9664,-1.9664,-2.0615,-2.372,-2.4434,-2.5377,-2.8692,-2.937,-2.9521,-2.9511,-2.7026,-2.4983,-2.5238,-2.4983,-2.6185,-2.9612,-3.2762,-3.5921,-3.9362,-3.9599,-3.9599,-3.9599,-3.9599,-3.9599,-3.9599,-3.9599,-3.9599,-3.9599,-3.3244,-2.9845,-2.9845,-2.3268,-2.0173,-2.0329,-2.0329,-2.0397,-2.3111,-2.24,-2.1305,-1.8999,-1.9191,-1.9323,-1.8101,-1.8361,-1.8798,-1.9296,-1.9372,-1.9372,-1.9372,-1.9439,-2.0094,-2.1884,-2.2392,0.0,0.0,0.0,0.0,0.0,0.0,0.0,0.0,0.0,0.0,0.0,0.0,0.0,-2.0773,-1.9727,-1.9217,-1.9271,-1.9291,-1.9339,-1.9434,-1.9535,-1.959,-1.959,-1.9644,-1.9664,-1.9664,-1.9664,-1.9664,-1.9664,-1.9664,-1.9664,-1.9664,-1.9664,-1.9664,-1.9664,-1.9664,-1.9664,-1.9664,-1.9664,-1.9664,-1.9664,-1.9664,-1.9664,-1.9664,-1.9664,-1.9664,-1.9664,-1.9664,-1.9664,-1.9664,-1.9664,-1.9664,-1.9664,-1.9664,-1.9664,-1.9664,-1.9664,-1.9664,-1.9664,-1.9664,-1.9732,-2.0038,-2.1016,-2.1341,-2.2382,-2.5764,-2.6304,-2.7072,-2.9249,-2.8833,-2.7408,-2.5221,-2.5093,-2.6398,-2.9823,-3.1192,-3.395,-3.9415,-3.9893,-4.0,-4.0187,-4.0187,-4.0187,-4.0187,-4.0187,-4.0187,-4.0187,-3.3762,-3.03,-3.03,-2.3637,-2.0438,-2.0471,-2.0471,-2.0505,0.0,-2.1868,-2.0969,-1.8888,-1.8843,-1.8977,-1.7789,-1.829,-1.8962,-1.8583,-1.8519,-1.8519,-1.8519,-1.8127,-1.8651,-2.1341,0.0,0.0,0.0,0.0,0.0,0.0,0.0,0.0,0.0,0.0,0.0,0.0,0.0,0.0,-1.9501,-1.9434,-1.9379,-1.9379,-1.9413,-1.9468,-1.9522,-1.961,-1.9664,-1.9664,-1.9664,-1.9664,-1.9664,-1.9664,-1.9664,-1.9664,-1.9664,-1.9664,0.0,-1.9664,-1.9664,-1.9664,-1.9664,-1.9664,-1.9664,-1.9664,-1.9698,-1.9732,-1.9678,-1.9698,-1.9732,-1.9678,-1.9664,-1.9664,-1.9664,-1.9664,-1.9664,-1.9664,-1.9664,-1.9664,-1.9664,-1.9664,-1.9664,-1.9664,-1.9698,-1.9752,-1.9752,-1.9854,-1.9963,-1.9963,-2.0031,-2.083,-2.2789,-2.3091,-2.436,-2.7529,-2.7101,-2.5921,-2.5186,-2.4058,-2.4898,-2.8186,-2.9806,-3.2861,-3.8033,-3.9687,-4.0441,-4.0615,-4.0655,-4.0588,-4.0481,-4.0481,-4.0481,-4.0481,-3.3998,-3.0522,-3.0512,-2.3779,-2.0539,-2.0539,-2.0539,-2.0539,0.0,-2.1422,-1.8852,-1.8483,-1.784,-1.7084,-1.7204,-1.7986,0.0,-1.7279,-1.7091,-1.722,-1.728,-1.6122,-1.6178,-1.9559,0.0,0.0,0.0,0.0,0.0,0.0,0.0,0.0,0.0,0.0,0.0,0.0,0.0,0.0,-1.9664,-1.9664,-1.9664,-1.9664,-1.9522,-1.9522,-1.9664,-1.9664,-1.9664,-1.9664,-1.9664,-1.9664,-1.9664,-1.9664,-1.9664,0.0,-1.9664,-1.9664,-1.9664,-1.9664,-1.9664,-1.9664,-1.9664,-1.9664,-1.9664,-1.9678,-1.9766,-1.9854,-1.9732,-1.9766,-1.9854,-1.9712,-1.9664,-1.9664,-1.9664,-1.9664,-1.9664,-1.9664,-1.9664,-1.9664,-1.9664,-1.9664,-1.9664,-1.9678,-1.9786,-1.9875,-1.9888,-2.001,-2.0119,-2.0119,-2.0119,-2.0139,-2.0139,-2.0241,-2.1334,-2.4533,-2.2687,-2.1801,-2.4812,-2.2554,-2.2121,-2.532,-2.8851,-3.2477,-3.601,-3.9081,-4.0949,-4.0949,-4.0909,-4.0802,-4.0508,-4.0481,-4.0481,-4.0481,-3.3998,-3.0284,-2.9796,-2.3558,-2.056,-2.0573,-2.056,-2.056,-2.1687,0.0,-2.172,-1.9756,-1.9252,-1.8767,0.0,-1.7217,0.0,0.0,0.0,0.0,0.0,0.0,0.0,0.0,0.0,0.0,0.0,0.0,0.0,0.0,0.0,0.0,0.0,0.0,0.0,0.0,0.0,-1.9624,-1.9664,-1.9664,-1.9664,-1.9664,-1.9624,-1.9624,-1.9664,-1.9664,-1.9664,-1.9664,-1.9664,-1.9664,-1.9664,-1.9664,-1.9664,-1.9664,-1.9664,-1.9664,-1.9664,-1.9664,-1.9664,-1.9664,-1.9664,-1.9664,-1.9678,-1.9786,-1.9841,-1.9888,-1.9963,-1.9942,-1.9854,-1.9712,-1.9664,-1.9664,-1.9664,-1.9664,-1.9664,-1.9664,-1.9664,-1.9664,-1.9664,-1.9664,-1.9698,-1.98,-1.9854,-1.9908,-2.0031,-2.0173,-2.0275,-2.0275,-2.0363,-2.0438,-2.0438,-2.0471,-2.0732,-2.1484,-2.3275,-2.3842,-2.2208,-2.3498,-2.4811,-2.5759,-2.9068,-3.2711,-3.6255,-3.9361,-4.1229,-4.1229,-4.1016,-4.0869,-4.0802,-4.0588,-4.0481,-4.0481,-3.3998,-2.8114,-2.2988,-2.1477,-2.077,-2.0892,-2.077,-2.0716,-2.0428,-2.1214,-2.153,-2.0237,-1.9381,-1.8435,-1.6491,0.0,0.0,0.0,0.0,0.0,0.0,0.0,0.0,0.0,0.0,0.0,0.0,0.0,0.0,0.0,0.0,0.0,0.0,0.0,0.0,0.0,0.0,-1.9664,-1.9664,-1.9664,-1.9664,-1.9664,-1.9664,-1.9664,-1.9664,-1.9664,-1.9664,-1.9664,-1.9664,-1.9664,-1.9664,-1.9664,-1.9664,-1.9664,-1.9664,-1.9664,-1.9664,-1.9664,-1.9664,-1.9664,-1.9664,-1.9664,-1.9678,-1.9752,-1.982,-1.9875,-1.9888,-1.9841,-1.9766,-1.9678,-1.9664,-1.9664,-1.9664,-1.9712,-1.9752,-1.9678,-1.9664,-1.9678,-1.9752,-1.9766,-1.98,-1.9942,-2.0031,-2.0098,-2.0187,-2.0329,-2.0438,-2.0438,-2.0485,-2.0539,-2.0539,-2.0539,-2.0539,-2.0539,-2.2099,-2.2688,-2.102,-2.2346,-2.3737,-2.3899,-2.826,-3.2179,-3.4224,-3.8986,-4.167,-4.1563,-4.139,-4.1203,-4.0909,-4.0762,-3.991,-3.8391,-3.3313,-2.8188,-2.3169,-2.1569,-2.0845,-2.1001,-2.0912,-2.0878,-1.988,-2.0396,-2.0626,-2.0145,-1.8582,-1.7113,0.0,0.0,0.0,0.0,0.0,0.0,0.0,0.0,0.0,0.0,0.0,0.0,0.0,0.0,0.0,0.0,0.0,0.0,0.0,0.0,0.0,0.0,0.0,-1.9664,-1.9664,-1.9664,-1.9664,-1.9664,-1.9664,-1.9664,-1.9664,-1.9664,-1.9664,-1.9664,-1.9664,-1.9664,-1.9664,-1.9664,-1.9664,-1.9664,0.0,0.0,-1.9664,-1.9664,-1.9664,-1.9664,-1.9664,-1.9664,-1.9664,-1.9678,-1.9766,-1.9854,-1.9732,-1.9698,-1.9698,-1.9664,-1.9664,-1.9664,-1.9664,-1.9752,-1.982,-1.9712,-1.9698,-1.9732,-1.9875,-1.9888,-1.9922,-2.0098,-2.0241,-2.0329,-2.0363,-2.0451,-2.0539,-2.0539,-2.0539,-2.0539,-2.0573,-2.0573,-2.0573,-2.0614,-2.0716,-2.0811,-2.0845,-2.0946,-2.1089,-2.1231,-2.6906,-3.1119,-3.1806,-3.7792,-4.1606,-4.1857,-4.1817,-4.1537,-4.0989,-4.0949,-3.9421,-3.592,-3.2419,-2.9018,-2.6142,-2.2684,-2.0912,-2.1068,-2.1034,-2.1034,-2.0628,-2.1621,-2.1803,-1.9148,-1.7598,-1.6115,0.0,0.0,0.0,0.0,0.0,0.0,0.0,0.0,0.0,0.0,0.0,0.0,0.0,0.0,0.0,0.0,0.0,0.0,0.0,0.0,0.0,0.0,0.0,-1.9664,-1.9664,-1.9664,-1.9664,-1.9664,-1.9664,-1.9664,-1.9664,-1.9664,-1.9664,-1.9664,-1.9664,-1.9664,-1.9664,-1.9664,-1.9664,-1.9664,0.0,-1.9664,-1.9664,-1.9664,-1.9664,-1.9664,-1.9664,-1.9664,-1.9678,-1.98,-1.9854,-1.9875,-1.9854,-1.9841,-1.982,-1.9698,-1.9664,-1.9664,-1.9664,-1.9678,-1.9712,-1.982,-1.9841,-1.9875,-2.0031,-1.9976,-1.9942,-2.0227,-2.0315,-2.0363,-2.0485,-2.0526,-2.0539,-2.0539,-2.0539,-2.0573,-2.0716,-2.0736,-2.079,-2.0912,-2.0946,-2.1001,-2.1123,-2.1157,-2.1231,-2.1387,-2.5042,-2.8679,-3.1577,-3.5462,-3.908,-4.1898,-4.1924,-4.1644,-4.131,-4.1056,-3.9498,-3.6429,-3.2643,-2.9246,-2.6319,-2.2957,-2.1231,-2.1367,-2.1245,-2.1177,-2.0027,-2.1029,-2.1095,-1.7973,-1.7652,0.0,0.0,0.0,0.0,0.0,0.0,0.0,0.0,0.0,0.0,0.0,0.0,0.0,0.0,0.0,0.0,0.0,0.0,0.0,0.0,0.0,0.0,0.0,0.0,-1.9664,-1.9664,-1.9664,-1.9664,-1.9664,-1.9664,-1.9664,-1.9664,-1.9664,-1.9664,-1.9664,-1.9664,-1.9664,-1.9664,-1.9664,-1.9664,-1.9664,0.0,-1.9664,-1.9664,-1.9664,-1.9664,-1.9664,-1.9664,-1.9664,-1.9664,-1.9732,-1.9766,-1.9766,-1.9766,-1.9766,-1.9752,-1.9678,-1.9664,-1.9664,-1.9664,-1.9712,-1.98,-1.9963,-1.9942,-1.9929,-2.0173,-2.0173,-2.0173,-2.0397,-2.0438,-2.0451,-2.0526,-2.0539,-2.056,-2.0648,-2.0668,-2.0716,-2.0878,-2.0892,-2.0912,-2.098,-2.1068,-2.1143,-2.1211,-2.1279,-2.1367,-2.1441,-2.4578,-2.7156,-2.8725,-3.3895,-3.857,-4.1965,-4.1937,-4.171,-4.1603,-4.131,-4.0513,-3.9263,-3.3897,-3.0476,-2.9339,-2.383,-2.1285,-2.1441,-2.1367,-2.1333,-1.992,-2.0381,-2.0123,0.0,0.0,0.0,0.0,0.0,0.0,0.0,0.0,0.0,0.0,0.0,0.0,0.0,0.0,0.0,0.0,0.0,0.0,0.0,0.0,0.0,0.0,0.0,0.0,0.0,-1.9664,-1.9664,-1.9664,-1.9664,-1.9664,-1.9664,-1.9624,-1.9624,-1.9664,-1.9624,-1.9624,-1.9664,-1.9664,-1.9664,-1.9664,-1.9664,-1.9664,-1.9664,-1.9664,-1.9664,-1.9664,-1.9664,-1.9664,-1.9664,-1.9664,-1.9664,-1.9664,-1.9664,-1.9664,-1.9664,-1.9664,-1.9664,-1.9664,-1.9664,-1.9664,-1.9664,-1.9664,-1.9732,-1.9854,-2.0051,-2.001,-1.9997,-2.0295,-2.0349,-2.0363,-2.0505,-2.0539,-2.0539,-2.0539,-2.0573,-2.0627,-2.0756,-2.0811,-2.0878,-2.1021,-2.1055,-2.1068,-2.1109,-2.1197,-2.1265,-2.1265,-2.1367,-2.1441,-2.1441,-2.3795,-2.5599,-2.6641,-3.2872,-3.806,-4.0924,-4.1474,-4.1897,-4.1897,-4.1603,-4.1603,-4.1897,-3.5714,-3.2199,-3.1827,-2.5469,-2.2096,-2.1441,-2.1441,-2.1441,-2.1577,-2.0649,0.0,0.0,0.0,0.0,0.0,0.0,0.0,0.0,0.0,0.0,0.0,0.0,0.0,0.0,0.0,0.0,0.0,0.0,0.0,0.0,0.0,0.0,0.0,0.0,0.0,-1.9664,-1.9664,-1.9664,-1.9664,-1.9664,-1.9664,-1.9664,-1.9522,-1.9522,-1.9664,-1.9522,-1.9522,-1.9664,-1.9664,-1.9664,-1.9664,-1.9664,-1.9664,-1.9664,-1.9664,-1.9664,-1.9664,-1.9664,-1.9664,-1.9664,-1.9664,-1.9664,-1.9664,-1.9664,-1.9664,-1.9664,-1.9664,-1.9664,-1.9664,-1.9664,-1.9664,-1.9664,-1.9664,-1.9664,-1.9732,-2.001,-2.0098,-2.0153,-2.0451,-2.0438,-2.0363,-2.0505,-2.0539,-2.0539,-2.0539,-2.0648,-2.0756,-2.077,-2.0892,-2.1034,-2.1177,-2.1197,-2.1245,-2.1387,-2.1421,-2.1421,-2.1421,-2.1441,-2.1441,-2.1441,-2.1693,-2.2995,-2.6395,-3.2872,-3.7024,-3.728,-4.0365,-4.2178,-4.2178,-4.1897,-4.1897,-4.2178,-3.8277,-3.4692,-3.1827,-2.7914,-2.4555,-2.1441,-2.1441,-2.1441,-2.0855,-2.0902,0.0,0.0,0.0,0.0,0.0,0.0,0.0,0.0,0.0,0.0,0.0,0.0,0.0,0.0,0.0,0.0,0.0,0.0,0.0,0.0,0.0,0.0,0.0,0.0,0.0,-1.9664,-1.9664,-1.9664,-1.9664,-1.9664,-1.9664,-1.9664,-1.9522,-1.9468,-1.9522,-1.9468,-1.9468,-1.9522,-1.961,-1.9664,-1.9664,-1.9664,-1.9664,-1.9664,-1.9664,-1.9664,-1.9664,-1.9664,-1.9664,-1.9664,-1.9664,-1.9664,-1.9664,-1.9664,-1.9664,-1.9664,-1.9664,-1.9664,-1.9664,-1.9664,-1.9664,-1.9664,-1.9664,-1.9712,-1.9841,-2.0051,-2.0173,-2.0295,-2.0485,-2.0505,-2.0471,-2.0526,-2.0539,-2.0539,-2.0539,-2.0668,-2.0804,-2.0892,-2.1034,-2.1177,-2.1333,-2.1353,-2.1367,-2.1441,-2.1441,-2.1441,-2.1441,-2.1441,-2.1441,-2.1441,-2.1441,-2.2738,-2.6387,-3.1048,-3.4679,-3.6745,-4.0391,-4.2218,-4.2218,-4.2111,-4.2111,-4.2218,-3.8727,-3.5115,-3.1827,-2.8193,-2.4834,-2.1441,-2.1441,-2.1441,-2.0257,0.0,0.0,0.0,0.0,0.0,0.0,0.0,0.0,0.0,0.0,0.0,0.0,0.0,0.0,0.0,0.0,0.0,0.0,0.0,0.0,0.0,0.0,0.0,0.0,0.0,-1.9664,-1.9664,-1.9664,-1.9664,-1.9664,-1.9664,-1.9644,-1.959,-1.9434,-1.9359,-1.9359,-1.9359,-1.9379,-1.9434,-1.959,-1.9664,-1.9664,-1.9664,-1.9664,-1.9664,-1.9664,-1.9664,-1.9664,-1.9664,-1.9664,-1.9664,-1.9664,-1.9664,-1.9664,-1.9664,-1.9664,-1.9664,-1.9664,-1.9664,-1.9664,-1.9664,-1.9664,-1.9664,-1.9664,-1.9766,-1.9908,-2.0064,-2.0207,-2.0363,-2.0505,-2.0539,-2.0539,-2.0539,-2.0539,-2.056,-2.0614,-2.0736,-2.0892,-2.1034,-2.1177,-2.1319,-2.1421,-2.1441,-2.1441,-2.1441,-2.1441,-2.1441,-2.1441,-2.1441,-2.1441,-2.1441,-2.1475,-2.253,-2.4826,-2.9311,-3.2945,-3.5204,-3.9615,-4.2218,-4.2218,-4.2218,-4.2218,-4.2218,-3.9869,-3.65,-3.1827,-2.9488,-2.587,-2.1441,-2.1441,-2.1441,0.0,0.0,0.0,0.0,0.0,0.0,0.0,0.0,0.0,0.0,0.0,0.0,0.0,0.0,0.0,0.0,0.0,0.0,0.0,0.0,0.0,0.0,0.0,0.0,0.0,-2.3487,-1.9664,-1.9664,-1.9664,-1.9664,-1.9664,-1.9664,-1.959,-1.9434,-1.9291,-1.9203,-1.9203,-1.9203,-1.9271,-1.9434,-1.959,-1.9664,-1.9664,-1.9664,-1.9664,-1.9664,-1.9664,-1.9664,-1.9664,-1.9664,-1.9664,-1.9664,-1.9664,-1.9664,-1.9664,-1.9664,-1.9664,-1.9664,-1.9664,-1.9664,-1.9664,-1.9664,-1.9664,-1.9664,-1.9664,-1.9766,-1.9908,-2.0064,-2.0207,-2.0363,-2.0505,-2.0539,-2.0539,-2.0539,-2.0539,-2.058,-2.0736,-2.0892,-2.1034,-2.1177,-2.1333,-2.1441,-2.1441,-2.1441,-2.1441,-2.1441,-2.1441,-2.1441,-2.1441,-2.1441,-2.1441,-2.1441,-2.1584,-2.1597,-2.1455,-2.7873,-3.2069,-3.1857,-3.8303,-4.2218,-4.2218,-4.2218,-4.2218,-4.2218,-4.2218,-3.8826,-3.1827,-3.1827,-2.8211,-2.1441,-2.1441,-2.1441,0.0,0.0,0.0,0.0,0.0,0.0,0.0,0.0,0.0,0.0,0.0,0.0,0.0,0.0,0.0,0.0,0.0,0.0,0.0,0.0,0.0,0.0,0.0,-2.5857,-2.5857,-2.2039,-1.9664,-1.9664,-1.9664,-1.9664,-1.9664,-1.9664,-1.959,-1.9434,-1.9291,-1.9149,-1.9061,-1.9061,-1.9128,-1.9271,-1.9434,-1.9556,-1.9664,-1.9664,-1.9664,-1.9664,-1.9664,-1.9664,-1.9664,-1.9664,-1.9664,-1.9664,-1.9664,-1.9664,-1.9664,-1.9664,-1.9664,-1.9664,-1.9664,-1.9664,-1.9664,-1.9664,-1.9664,-1.9664,-1.9664,-1.9841,-2.0051,-2.0085,-2.0275,-2.0485,-2.0526,-2.0539,-2.0539,-2.0539,-2.0627,-2.0716,-2.0756,-2.0967,-2.1157,-2.1211,-2.1333,-2.1441,-2.1441,-2.1441,-2.1441,-2.1441,-2.1441,-2.1441,-2.1441,-2.1441,-2.1441,-2.1441,-2.1475,-2.1496,-2.1441,-2.5656,-2.9311,-3.1587,-3.5987,-3.9615,-4.2205,-4.2218,-4.2218,-4.2218,-4.2218,-3.8826,-3.1827,-3.1827,-2.8211,-2.1441,-2.1441,-2.1441,0.0,0.0,0.0,0.0,0.0,0.0,0.0,0.0,0.0,0.0,0.0,0.0,0.0,0.0,0.0,0.0,0.0,0.0,0.0,0.0,0.0,-2.4256,-2.4366,-2.4425,-2.4425,-2.1578,-1.9664,-1.9664,-1.9664,-1.9664,-1.9664,-1.9664,-1.959,-1.9434,-1.9345,-1.9203,-1.8993,-1.9115,-1.9183,-1.9203,-1.9413,-1.9569,-1.9664,-1.9664,-1.9664,-1.9664,-1.9664,-1.9664,-1.9664,-1.9664,-1.9664,-1.9664,-1.9664,-1.9664,-1.9664,-1.9664,-1.9664,-1.9664,-1.9664,-1.9664,-1.9664,-1.9664,-1.9664,-1.9664,-1.9664,-1.982,-2.0031,-2.0085,-2.0275,-2.0471,-2.0526,-2.0539,-2.0539,-2.0539,-2.0668,-2.079,-2.0845,-2.1055,-2.1231,-2.1285,-2.1367,-2.1441,-2.1441,-2.1441,-2.1441,-2.1441,-2.1441,-2.1441,-2.1441,-2.1441,-2.1441,-2.1441,-2.1496,-2.1509,-2.1441,-2.4641,-2.7505,-2.9498,-3.441,-3.8036,-4.0136,-4.1432,-4.2218,-4.2218,-4.2218,-3.9348,-3.3895,-3.2603,-2.8986,-2.3538,-2.1958,-2.1441,0.0,0.0,0.0,0.0,0.0,0.0,0.0,0.0,0.0,0.0,0.0,0.0,0.0,0.0,0.0,0.0,0.0,0.0,0.0,0.0,-2.3903,-2.3928,-2.3928,-2.3928,-2.3953,-2.1328,-1.9664,-1.9664,-1.9664,-1.9664,-1.9664,-1.9664,-1.959,-1.9413,-1.9413,-1.9271,-1.8972,-1.9237,-1.9305,-1.9183,-1.9468,-1.961,-1.9624,-1.9624,-1.9644,-1.9644,-1.9664,-1.9664,-1.9664,-1.9664,-1.9664,-1.9664,-1.9664,-1.9664,-1.9664,-1.9664,-1.9664,-1.9664,-1.9664,-1.9664,-1.9664,-1.9664,-1.9664,-1.9664,-1.9664,-1.9766,-1.9908,-2.0064,-2.0207,-2.0363,-2.0505,-2.0539,-2.0539,-2.0539,-2.0668,-2.0824,-2.0967,-2.1123,-2.1279,-2.1408,-2.1441,-2.1441,-2.1441,-2.1441,-2.1441,-2.1441,-2.1441,-2.1441,-2.1441,-2.1441,-2.1441,-2.1441,-2.1564,-2.1597,-2.1455,-2.4446,-2.6563,-2.6666,-3.2862,-3.6756,-3.7013,-4.0391,-4.2218,-4.2218,-4.2218,-4.0403,-3.7013,-3.3379,-3.0019,-2.6641,-2.3009,-2.1441,0.0,0.0,0.0,0.0,0.0,0.0,0.0,0.0,0.0,0.0,0.0,0.0,0.0,0.0,0.0,0.0,0.0,0.0,0.0,0.0,-2.0281,-2.0409,-2.0423,-2.048,-2.0615,-2.0144,-1.9664,-1.9664,-1.9664,-1.9664,-1.9664,-1.9664,-1.9535,-1.9257,-1.9257,-1.9115,-1.8816,-1.8871,-1.8959,-1.904,-1.9094,-1.9183,-1.9305,-1.9434,-1.9481,-1.9481,-1.961,-1.9664,-1.9664,-1.9664,-1.9664,-1.9664,-1.9664,-1.9664,-1.9664,-1.9664,-1.9664,-1.9664,-1.9664,-1.9664,-1.9664,-1.9664,-1.9664,-1.9664,-1.9664,-1.9766,-1.9908,-2.0064,-2.0207,-2.0363,-2.0505,-2.0539,-2.0539,-2.0539,-2.075,-2.0967,-2.1001,-2.1211,-2.1408,-2.1441,-2.1441,-2.1441,-2.1441,-2.1441,-2.1441,-2.1441,-2.1441,-2.1441,-2.1441,-2.1441,-2.1441,-2.1441,-2.1475,-2.1475,-2.1441,-2.2258,-2.3832,-2.6395,-3.0529,-3.4174,-3.7001,-4.0391,-4.2218,-4.2218,-4.2218,-4.0403,-3.7013,-3.3379,-3.0019,-2.6641,-2.3009,-2.1441,0.0,0.0,0.0,0.0,0.0,0.0,0.0,0.0,0.0,0.0,0.0,0.0,0.0,0.0,0.0,0.0,0.0,0.0,0.0,-1.9203,-1.9291,-1.9522,-1.9481,-1.9481,-1.9644,-1.9664,-1.9664,-1.9664,-1.9664,-1.9624,-1.9556,-1.9624,-1.9522,-1.9217,-1.9271,-1.9169,-1.8871,-1.8938,-1.8972,-1.8993,-1.9061,-1.9094,-1.9115,-1.9257,-1.9359,-1.9434,-1.9522,-1.959,-1.9664,-1.9576,-1.959,-1.9664,-1.9576,-1.959,-1.9664,-1.9664,-1.9664,-1.9664,-1.9664,-1.9664,-1.9664,-1.9664,-1.9664,-1.9664,-1.9664,-1.9712,-1.982,-2.0031,-2.0153,-2.0275,-2.0485,-2.0539,-2.0539,-2.0539,-2.0716,-2.0912,-2.098,-2.1177,-2.1353,-2.1421,-2.1441,-2.1441,-2.1441,-2.1441,-2.1441,-2.1441,-2.1441,-2.1441,-2.1441,-2.1441,-2.1441,-2.1441,-2.1441,-2.1441,-2.1441,-2.1441,-2.2223,-2.4043,-2.7427,-3.0779,-3.4421,-3.7804,-4.0403,-4.2218,-4.2218,-4.1419,-3.9602,-3.441,-3.0808,-2.8986,-2.3795,-2.1441,0.0,0.0,0.0,0.0,0.0,0.0,0.0,0.0,0.0,0.0,0.0,0.0,0.0,0.0,0.0,0.0,-1.9237,-1.9217,-1.9169,-1.9169,-1.9257,-1.9522,-1.9434,-1.9413,-1.9576,-1.959,-1.959,-1.959,-1.959,-1.9522,-1.9393,-1.9522,-1.9447,-1.9169,-1.9291,-1.9217,-1.8959,-1.9061,-1.9061,-1.8959,-1.9081,-1.9061,-1.8959,-1.9081,-1.9203,-1.9359,-1.9379,-1.9468,-1.9576,-1.9447,-1.9481,-1.961,-1.9481,-1.9522,-1.9664,-1.9664,-1.9664,-1.9664,-1.9664,-1.9664,-1.9664,-1.9664,-1.9664,-1.9664,-1.9664,-1.9664,-1.9712,-2.001,-2.0098,-2.0173,-2.0471,-2.0539,-2.0539,-2.0539,-2.0648,-2.079,-2.0967,-2.1109,-2.1265,-2.1408,-2.1441,-2.1441,-2.1441,-2.1441,-2.1441,-2.1441,-2.1441,-2.1441,-2.1441,-2.1441,-2.1441,-2.1441,-2.1441,-2.1441,-2.1441,-2.1441,-2.1441,-2.1441,-2.4563,-2.8202,-3.1557,-3.5204,-3.8583,-4.2205,-4.2218,-4.2218,-4.2218,-3.5204,-3.1827,-3.1557,-2.4563,-2.1441,0.0,0.0,0.0,0.0,0.0,0.0,0.0,0.0,0.0,0.0,0.0,0.0,0.0,0.0,-1.9576,-1.9434,-1.9393,-1.9305,-1.9061,-1.9027,-1.9027,-1.9081,-1.9061,-1.9115,-1.9257,-1.9257,-1.9257,-1.9257,-1.9257,-1.9257,-1.9237,-1.9257,-1.9183,-1.9027,-1.904,-1.8972,-1.8796,-1.8816,-1.8816,-1.8796,-1.8816,-1.8816,-1.8796,-1.8816,-1.8905,-1.9061,-1.9183,-1.9237,-1.9257,-1.9237,-1.9325,-1.9468,-1.9434,-1.9522,-1.9664,-1.9664,-1.9664,-1.9664,-1.9664,-1.9664,-1.9664,-1.9664,-1.9664,-1.9664,-1.9664,-1.9664,-1.9712,-2.001,-2.0098,-2.0173,-2.0471,-2.0539,-2.0539,-2.0539,-2.056,-2.0648,-2.0933,-2.1109,-2.1265,-2.1408,-2.1441,-2.1441,-2.1441,-2.1441,-2.1441,-2.1441,-2.1441,-2.1441,-2.1441,-2.1441,-2.1441,-2.1441,-2.1441,-2.1441,-2.1441,-2.1441,-2.1441,-2.1441,-2.4563,-2.8202,-3.1557,-3.5204,-3.8583,-4.2205,-4.2218,-4.2218,-4.2218,-3.5204,-3.1827,-3.1557,-2.4563,-2.1441,0.0,0.0,0.0,0.0,0.0,0.0,0.0,0.0,0.0,0.0,0.0,0.0,-1.9664,-1.9664,-1.961,-1.9447,-1.9359,-1.9257,-1.9128,-1.8972,-1.8918,-1.9094,-1.904,-1.904,-1.9183,-1.9203,-1.9203,-1.9203,-1.9203,-1.9169,-1.9094,-1.9169,-1.9094,-1.8871,-1.8938,-1.8918,-1.8762,-1.8762,-1.8762,-1.8762,-1.8762,-1.8762,-1.8762,-1.8762,-1.885,-1.8993,-1.9061,-1.9128,-1.9203,-1.9115,-1.9169,-1.9305,-1.9305,-1.9393,-1.9535,-1.9624,-1.9664,-1.9664,-1.9664,-1.9664,-1.9664,-1.9664,-1.9664,-1.9664,-1.9664,-1.9664,-1.9712,-2.001,-2.0098,-2.0173,-2.0471,-2.0539,-2.0539,-2.0539,-2.0539,-2.0594,-2.0824,-2.098,-2.1157,-2.1387,-2.1441,-2.1441,-2.1441,-2.1441,-2.1441,-2.1441,-2.1441,-2.1441,-2.1441,-2.1441,-2.1441,-2.1441,-2.1441,-2.1441,-2.1441,-2.1441,-2.1441,-2.1441,-2.2738,-2.5352,-2.8716,-3.2355,-3.5707,-3.9093,-4.1191,-4.2218,-4.2218,-3.5204,-3.1827,-3.1557,-2.4563,-2.1441,0.0,0.0,0.0,0.0,0.0,0.0,0.0,0.0,0.0,0.0,0.0,-1.9556,-1.959,-1.9644,-1.961,-1.9447,-1.9345,-1.9237,-1.9169,-1.8959,-1.8884,-1.9061,-1.8993,-1.8972,-1.9081,-1.9094,-1.9094,-1.9094,-1.9094,-1.904,-1.8938,-1.9027,-1.8993,-1.8762,-1.8871,-1.8884,-1.8762,-1.8762,-1.8762,-1.8762,-1.8762,-1.8762,-1.8762,-1.8762,-1.883,-1.8938,-1.8938,-1.8993,-1.9081,-1.8972,-1.9027,-1.9149,-1.9183,-1.9291,-1.9447,-1.961,-1.9664,-1.9664,-1.9664,-1.9664,-1.9664,-1.9664,-1.9664,-1.9664,-1.9664,-1.9664,-1.9712,-2.001,-2.0098,-2.0173,-2.0471,-2.0539,-2.0539,-2.0539,-2.0539,-2.0594,-2.079,-2.0946,-2.1123,-2.1387,-2.1441,-2.1441,-2.1441,-2.1441,-2.1441,-2.1441,-2.1441,-2.1441,-2.1441,-2.1441,-2.1441,-2.1441,-2.1441,-2.1441,-2.1441,-2.1441,-2.1441,-2.1441,-2.1441,-2.3009,-2.6378,-2.8976,-3.2603,-3.7001,-3.9602,-4.1419,-4.2218,-3.5964,-3.2614,-3.1557,-2.5607,-2.223,0.0,0.0,0.0,0.0,0.0,0.0,0.0,0.0,0.0,0.0,-1.9128,-1.9271,-1.9413,-1.9556,-1.961,-1.9447,-1.9427,-1.9325,-1.904,-1.8993,-1.8938,-1.8796,-1.8782,-1.8782,-1.8782,-1.8782,-1.8782,-1.8782,-1.8782,-1.8782,-1.8782,-1.8782,-1.8782,-1.8762,-1.8762,-1.8762,-1.8762,-1.8762,-1.8762,-1.8762,-1.8762,-1.8762,-1.8762,-1.8762,-1.8762,-1.8782,-1.8782,-1.8782,-1.8782,-1.8782,-1.8871,-1.9006,-1.9149,-1.9291,-1.9447,-1.961,-1.9664,-1.9664,-1.9664,-1.9664,-1.9664,-1.9664,-1.9664,-1.9664,-1.9664,-1.9664,-1.9712,-2.001,-2.0098,-2.0173,-2.0471,-2.0539,-2.0539,-2.0539,-2.0539,-2.0627,-2.0933,-2.1109,-2.1245,-2.1408,-2.1441,-2.1441,-2.1441,-2.1441,-2.1441,-2.1441,-2.1441,-2.1441,-2.1441,-2.1441,-2.1441,-2.1441,-2.1441,-2.1441,-2.1441,-2.1441,-2.1441,-2.1441,-2.1441,-2.3009,-2.6378,-2.6658,-3.0028,-3.6745,-3.7292,-3.8838,-4.2218,-3.857,-3.4936,-3.1827,-2.7941,-2.4555,0.0,0.0,0.0,0.0,0.0,0.0,0.0,0.0,0.0,-1.8816,-1.904,-1.9217,-1.9271,-1.9413,-1.9501,-1.9447,-1.9345,-1.9217,-1.9027,-1.8905,-1.8816,-1.8762,-1.8762,-1.8762,-1.8762,-1.8762,-1.8762,-1.8762,-1.8762,-1.8762,-1.8762,-1.8762,-1.8762,-1.8762,-1.8762,-1.8762,-1.8762,-1.8762,-1.8762,-1.8762,-1.8762,-1.8762,-1.8762,-1.8762,-1.8762,-1.8762,-1.8762,-1.8762,-1.8762,-1.8762,-1.885,-1.9006,-1.9149,-1.9291,-1.9447,-1.961,-1.9664,-1.9664,-1.9664,-1.9664,-1.9664,-1.9664,-1.9664,-1.9664,-1.9664,-1.9664,-1.9712,-2.001,-2.0098,-2.0173,-2.0471,-2.0539,-2.0539,-2.0539,-2.0539,-2.0594,-2.0804,-2.0967,-2.1123,-2.1265,-2.1367,-2.1441,-2.1441,-2.1441,-2.1408,-2.1299,-2.1367,-2.1408,-2.1299,-2.1387,-2.1441,-2.1441,-2.1441,-2.1441,-2.1441,-2.1441,-2.1441,-2.1441,-2.1441,-2.1951,-2.3266,-2.5344,-2.8716,-3.3637,-3.5975,-3.8826,-4.2218,-3.8813,-3.5204,-3.1827,-2.8211,-2.4826,0.0,0.0,0.0,0.0,0.0,0.0,0.0,0.0,-1.7935,-1.843,-1.8776,-1.9006,-1.9115,-1.9217,-1.9291,-1.9291,-1.9203,-1.9081,-1.8938,-1.883,-1.8742,-1.8694,-1.8694,-1.8674,-1.862,-1.862,-1.862,-1.862,-1.862,-1.864,-1.8674,-1.8694,-1.8694,-1.8694,-1.864,-1.862,-1.862,-1.862,-1.864,-1.8694,-1.8694,-1.8708,-1.8762,-1.8762,-1.8762,-1.8762,-1.8762,-1.8762,-1.8762,-1.8762,-1.8816,-1.8938,-1.9128,-1.9271,-1.9379,-1.959,-1.9664,-1.9664,-1.9664,-1.9664,-1.9664,-1.9664,-1.9664,-1.9664,-1.9664,-1.9664,-1.9712,-2.001,-2.0098,-2.0173,-2.0471,-2.0539,-2.0539,-2.0539,-2.0539,-2.058,-2.0736,-2.0892,-2.1034,-2.1177,-2.1333,-2.1441,-2.1441,-2.1441,-2.1408,-2.1299,-2.1367,-2.1408,-2.1299,-2.1367,-2.1441,-2.1441,-2.1441,-2.1441,-2.1441,-2.1441,-2.1441,-2.1441,-2.1441,-2.1441,-2.1441,-2.3523,-2.6378,-3.0019,-3.2355,-3.5707,-4.0403,-3.936,-3.6243,-3.1827,-2.9488,-2.5862,0.0,0.0,0.0,0.0,0.0,0.0,0.0,0.0,-1.6578,-1.7792,-1.8267,-1.8565,-1.8905,-1.8972,-1.8972,-1.8972,-1.8993,-1.8938,-1.8782,-1.8762,-1.8694,-1.8552,-1.8531,-1.8477,-1.8335,-1.8321,-1.8321,-1.8321,-1.8321,-1.8375,-1.8511,-1.8531,-1.8531,-1.8531,-1.8389,-1.8321,-1.8321,-1.8321,-1.8389,-1.8531,-1.8531,-1.8599,-1.8762,-1.8762,-1.8762,-1.8762,-1.8762,-1.8762,-1.8762,-1.8762,-1.8762,-1.8796,-1.9094,-1.9203,-1.9237,-1.9556,-1.9664,-1.9664,-1.9664,-1.9664,-1.9664,-1.9664,-1.9664,-1.9664,-1.9664,-1.9664,-1.9732,-2.001,-2.0098,-2.0173,-2.0471,-2.0539,-2.0539,-2.0539,-2.0539,-2.058,-2.0736,-2.0892,-2.1034,-2.1177,-2.1333,-2.1441,-2.1441,-2.1441,-2.1441,-2.1441,-2.1441,-2.1441,-2.1441,-2.1441,-2.1441,-2.1441,-2.1441,-2.1441,-2.1441,-2.1441,-2.1441,-2.1441,-2.1441,-2.1441,-2.1441,-2.1441,-2.3009,-2.6641,-2.6649,-3.0019,-3.7013,-4.0403,-3.857,-3.1827,-3.1577,-2.795,-0.8906,0.0,0.0,0.0,0.0,0.0,0.0,0.0,-1.4957,-1.649,-1.6951,-1.7372,-1.8335,-1.8586,-1.8654,-1.8654,-1.885,-1.8938,-1.8782,-1.8674,-1.8586,-1.8531,-1.8443,-1.8355,-1.8321,-1.8321,-1.8321,0.0,-1.8321,-1.8335,-1.8375,-1.8375,-1.8375,-1.8375,-1.8335,-1.8321,-1.8321,-1.8321,-1.8335,-1.8375,-1.8477,-1.8552,-1.8599,-1.8708,-1.8762,-1.8762,-1.8762,-1.8762,-1.8762,-1.8762,-1.883,-1.8938,-1.9128,-1.9271,-1.9393,-1.959,-1.9664,-1.9664,-1.9664,-1.9664,-1.9664,-1.9664,-1.9664,-1.9664,-1.9664,-1.9732,-1.9854,-2.0051,-2.0187,-2.0309,-2.0485,-2.0539,-2.0539,-2.0539,-2.0539,-2.058,-2.0736,-2.0892,-2.1034,-2.1177,-2.1333,-2.1441,-2.1441,-2.1441,-2.1408,-2.1299,-2.1279,-2.1279,-2.1279,-2.1279,-2.1319,-2.1421,-2.1441,-2.1441,-2.1441,-2.1441,-2.1441,-2.1441,-2.1441,-2.1441,-2.1441,-2.1441,-2.3009,-2.6641,-2.6649,-3.0019,-3.7013,-3.8036,-3.6232,-3.1567,-2.6649,-2.3266,0.0,0.0,0.0,0.0,0.0,0.0,-1.2752,-1.337,-1.4082,0.0,-1.6476,-1.691,-1.786,-1.8057,-1.8124,-1.8321,-1.8552,-1.8728,-1.8762,-1.8694,-1.8586,-1.8464,-1.8375,-1.8267,-1.8145,-1.8124,-1.8124,-1.8124,-1.8124,-1.8158,-1.8213,-1.8233,-1.8233,-1.8233,-1.8158,-1.8124,-1.8124,-1.8124,-1.8158,-1.8233,-1.8375,-1.8477,-1.8531,-1.8694,-1.8762,-1.8762,-1.8762,-1.8762,-1.8762,-1.8762,-1.8816,-1.8918,-1.9115,-1.9257,-1.9359,-1.9576,-1.9664,-1.9664,-1.9664,-1.9664,-1.9664,-1.9664,-1.9664,-1.9664,-1.9664,-1.9766,-1.9908,-2.0064,-2.0261,-2.0438,-2.0526,-2.0539,-2.0539,-2.0539,-2.0539,-2.0594,-2.0824,-2.0933,-2.1034,-2.1177,-2.1333,-2.1441,-2.1441,-2.1441,-2.1408,-2.1319,-2.1299,-2.1299,-2.1299,-2.1299,-2.1333,-2.1421,-2.1441,-2.1441,-2.1441,-2.1441,-2.1441,-2.1441,-2.1441,-2.1441,-2.1441,-2.1441,-2.248,-2.4307,-2.4307,-2.795,-3.4947,-3.6243,-3.5204,-3.1557,-2.4563,-2.1441,-0.9564,-0.9707,0.0,0.0,0.0,0.0,-1.2996,-1.3398,-1.3811,-1.5459,-1.6096,-1.6517,-1.7202,-1.7256,-1.7311,-1.767,-1.7982,-1.8321,-1.8654,-1.8728,-1.864,-1.8355,-1.8301,-1.8179,-1.7914,-1.788,-1.788,-1.788,-1.788,-1.7935,-1.8057,-1.8077,-1.8077,-1.8077,-1.7935,-1.786,-1.786,-1.786,-1.7935,-1.8077,-1.8213,-1.8375,-1.8511,-1.8674,-1.8742,-1.8762,-1.8762,-1.8762,-1.8762,-1.8762,-1.8762,-1.8796,-1.9061,-1.9183,-1.9237,-1.9522,-1.9644,-1.9664,-1.9664,-1.9664,-1.9664,-1.9664,-1.9664,-1.9664,-1.9664,-1.9766,-1.9929,-2.0098,-2.0349,-2.0539,-2.0539,-2.0539,-2.0539,-2.0539,-2.0539,-2.0627,-2.0933,-2.1001,-2.1055,-2.1211,-2.1353,-2.1441,-2.1441,-2.1441,-2.1441,-2.1441,-2.1421,-2.1421,-2.1441,-2.1421,-2.1421,-2.1441,-2.1441,-2.1441,-2.1441,-2.1441,-2.1441,-2.1441,-2.1441,-2.1441,-2.1441,-2.1441,-2.1441,-2.1441,-2.17,-2.5089,-3.1827,-3.4432,-3.4421,-3.1557,-2.4563,-2.1441,-1.0215,-1.0412,-1.0663,-1.0378,0.0,0.0,-1.0925,-1.2277,-1.3834,-1.3151,-1.3308,-1.3878,-1.5086,-1.5581,-1.5716,-1.5438,-1.653,-1.765,-1.8321,-1.8498,-1.8511,-1.8335,-1.8213,-1.8111,-1.8057,-1.8036,-1.8036,-1.8036,-1.8036,-1.8002,-1.7914,-1.7914,-1.7914,-1.7914,-1.788,-1.786,-1.786,-1.786,-1.788,-1.7914,-1.8057,-1.8213,-1.8375,-1.8511,-1.864,-1.8762,-1.8762,-1.8762,-1.8762,-1.8762,-1.8762,-1.8782,-1.8959,-1.9094,-1.9217,-1.9413,-1.9556,-1.9664,-1.9664,-1.9664,-1.9664,-1.9664,-1.9664,-1.9664,-1.9664,-1.9854,-2.0119,-2.0383,-2.0485,-2.0539,-2.0539,-2.0539,-2.0539,-2.0539,-2.0539,-2.0627,-2.0933,-2.1001,-2.1068,-2.1353,-2.1421,-2.1441,-2.1441,-2.1441,-2.1441,-2.1441,-2.1333,-2.1299,-2.1421,-2.1333,-2.1299,-2.1421,-2.1441,-2.1441,-2.1441,-2.1441,-2.1441,-2.1441,-2.1441,-2.1441,-2.1441,-2.1441,-2.1441,-2.1441,-2.4051,-2.7679,-3.1827,-2.9768,-2.9768,-3.1557,-2.4563,-2.1441,-1.0663,-1.0663,-1.0819,-1.0738,0.0,0.0,0.0,-1.1629,-1.2635,-1.2699,-1.2617,-1.2935,-1.3994,-1.419,-1.4285,-1.4577,-1.5635,-1.6578,-1.7026,-1.786,-1.8375,-1.8233,-1.8145,-1.8057,-1.7989,-1.7989,-1.8002,-1.8091,-1.8023,-1.7989,-1.7968,-1.7901,-1.786,-1.786,-1.786,-1.786,-1.786,-1.786,-1.786,-1.786,-1.8023,-1.8179,-1.8321,-1.8464,-1.862,-1.8762,-1.8762,-1.8762,-1.8762,-1.8762,-1.8762,-1.8782,-1.8938,-1.9081,-1.9217,-1.9379,-1.9535,-1.9664,-1.9664,-1.9664,-1.9664,-1.9664,-1.9664,-1.9664,-1.9664,-1.9875,-2.0153,-2.0451,-2.0539,-2.0539,-2.0539,-2.0539,-2.0539,-2.0539,-2.0539,-2.0627,-2.0933,-2.1001,-2.1089,-2.1387,-2.1441,-2.1441,-2.1441,-2.1441,-2.1441,-2.1441,-2.1367,-2.1353,-2.1421,-2.1367,-2.1353,-2.1441,-2.1441,-2.1441,-2.1441,-2.1441,-2.1441,-2.1441,-2.1441,-2.1441,-2.1441,-2.1441,-2.1441,-2.1441,-2.2995,-2.5599,-2.9237,-2.5599,-2.6649,-3.1557,-2.6378,-2.3009,0.0,0.0,0.0,0.0,0.0,-1.1311,0.0,0.0,0.0,0.0,-1.2395,-1.2311,-1.2949,-1.282,-1.2874,-1.3654,-1.4584,-1.5228,-1.5289,-1.6646,-1.767,-1.7738,-1.788,-1.7901,-1.7758,-1.765,-1.7738,-1.8077,-1.7792,-1.7738,-1.8036,-1.7935,-1.786,-1.786,-1.786,-1.786,-1.786,-1.786,-1.786,-1.786,-1.7989,-1.8145,-1.8321,-1.8443,-1.8586,-1.8762,-1.8762,-1.8762,-1.8762,-1.8762,-1.8762,-1.8782,-1.8905,-1.9047,-1.9217,-1.9345,-1.9501,-1.9664,-1.9664,-1.9664,-1.9664,-1.9664,-1.9664,-1.9678,-1.9732,-1.9908,-2.0153,-2.0451,-2.0539,-2.0539,-2.0539,-2.0539,-2.0539,-2.0539,-2.0539,-2.0627,-2.0933,-2.1001,-2.1089,-2.1387,-2.1441,-2.1441,-2.1441,-2.1441,-2.1441,-2.1441,-2.1441,-2.1441,-2.1441,-2.1441,-2.1441,-2.1441,-2.1441,-2.1441,-2.1441,-2.1441,-2.1441,-2.1441,-2.1441,-2.1441,-2.1441,-2.1441,-2.1441,-2.1441,-2.1441,-2.2995,-2.6649,-2.3795,-2.536,-3.0799,-2.7156,-2.4051,0.0,0.0,0.0,0.0,-1.3473,0.0,0.0,0.0,0.0,-1.2627,0.0,-1.0785,-1.1009,0.0,0.0,-1.1172,-1.2562,-1.3573,-1.3322,-1.436,-1.5486,-1.6402,-1.7093,-1.7439,-1.7283,-1.691,-1.7066,-1.8023,-1.7209,-1.7032,-1.7846,-1.788,-1.786,-1.786,-1.786,-1.786,-1.786,-1.786,-1.786,-1.786,-1.788,-1.8036,-1.8321,-1.8335,-1.8498,-1.8762,-1.8762,-1.8762,-1.8762,-1.8762,-1.8762,-1.8762,-1.8782,-1.8959,-1.9203,-1.9217,-1.9413,-1.9664,-1.9664,-1.9664,-1.9664,-1.9664,-1.9664,-1.9712,-1.9976,-2.0064,-2.0153,-2.0451,-2.0539,-2.0539,-2.0539,-2.0539,-2.0539,-2.0539,-2.0539,-2.0627,-2.0933,-2.1001,-2.1089,-2.1387,-2.1441,-2.1441,-2.1441,-2.1441,-2.1441,-2.1441,-2.1441,-2.1441,-2.1441,-2.1441,-2.1441,-2.1441,-2.1441,-2.1441,-2.1441,-2.1441,-2.1441,-2.1441,-2.1441,-2.1441,-2.1441,-2.1441,-2.1441,-2.1441,-2.1441,-2.2995,-2.6649,-2.6124,-2.6378,-2.7173,-2.3523,-2.17,0.0,0.0,0.0,0.0,0.0,0.0,-1.1627,0.0,-1.1522,0.0,0.0,0.0,0.0,0.0,0.0,0.0,-1.1714,-1.2447,-1.2325,-1.3261,-1.4353,-1.5404,-1.5499,-1.5655,-1.6117,-1.6225,-1.6625,-1.7507,-1.6917,-1.6876,-1.7704,-1.7812,-1.786,-1.786,-1.786,-1.786,-1.786,-1.786,-1.786,-1.786,-1.7948,-1.8111,-1.8321,-1.8409,-1.8565,-1.8762,-1.8762,-1.8762,-1.8762,-1.8762,-1.8762,-1.8762,-1.8762,-1.8938,-1.9203,-1.9203,-1.94,-1.9664,-1.9664,-1.9664,-1.9664,-1.9664,-1.9664,-1.9712,-2.001,-2.0098,-2.0153,-2.0451,-2.0539,-2.0539,-2.0539,-2.0539,-2.0539,-2.0539,-2.0539,-2.0594,-2.0824,-2.0933,-2.1055,-2.1265,-2.1387,-2.1441,-2.1441,-2.1441,-2.1441,-2.1441,-2.1441,-2.1441,-2.1441,-2.1441,-2.1441,-2.1441,-2.1441,-2.1441,-2.1441,-2.1441,-2.1441,-2.1441,-2.1441,-2.1441,-2.1441,-2.1441,-2.1441,-2.1441,-2.1441,-2.2223,-2.3523,-2.3523,-2.3523,-2.3523,-2.4051,-2.3266,-1.3057,0.0,0.0,0.0,0.0,0.0,0.0,0.0,0.0,0.0,0.0,0.0,0.0,0.0,0.0,0.0,0.0,-1.1667,-1.1545,-1.2149,-1.2996,-1.4048,-1.4075,-1.4346,-1.5208,-1.5398,-1.5866,-1.6815,-1.632,-1.6442,-1.7528,-1.7684,-1.7772,-1.786,-1.786,-1.786,-1.786,-1.786,-1.786,-1.786,-1.7968,-1.8124,-1.8321,-1.8423,-1.8586,-1.8762,-1.8762,-1.8762,-1.8762,-1.8762,-1.8762,-1.8762,-1.8762,-1.8938,-1.9203,-1.9203,-1.94,-1.9664,-1.9664,-1.9664,-1.9664,-1.9664,-1.9678,-1.9766,-1.9976,-2.0098,-2.0207,-2.0417,-2.0505,-2.0539,-2.0539,-2.0539,-2.0539,-2.0539,-2.0539,-2.058,-2.0736,-2.0858,-2.1001,-2.1177,-2.1299,-2.1387,-2.1441,-2.1441,-2.1441,-2.1441,-2.1441,-2.1441,-2.1441,-2.1441,-2.1441,-2.1441,-2.1441,-2.1441,-2.1441,-2.1441,-2.1441,-2.1441,-2.1441,-2.1441,-2.1441,-2.1441,-2.1441,-2.1441,-2.1441,-2.1441,-2.1441,-2.1441,-2.1441,-2.1441,-2.4043,-2.378,0.0,0.0,0.0,-1.2386,0.0,0.0,0.0,0.0,-1.1446,0.0,0.0,0.0,0.0,0.0,0.0,0.0,0.0,0.0,0.0,-1.0656,-1.0975,-1.2033,-1.3159,-1.415,-1.4909,-1.4333,-1.4523,-1.6008,-1.516,-1.5411,-1.7324,-1.7433,-1.7568,-1.7846,-1.786,-1.786,-1.786,-1.786,-1.786,-1.786,-1.786,-1.8023,-1.8321,-1.8321,-1.8477,-1.8762,-1.8762,-1.8762,-1.8762,-1.8762,-1.8762,-1.8762,-1.8762,-1.8938,-1.9203,-1.9203,-1.94,-1.9664,-1.9664,-1.9664,-1.9664,-1.9664,-1.9752,-1.9875,-1.9875,-2.0085,-2.0329,-2.0329,-2.0438,-2.0539,-2.0539,-2.0539,-2.0539,-2.0539,-2.0539,-2.058,-2.0736,-2.077,-2.0858,-2.1157,-2.1211,-2.1265,-2.1421,-2.1441,-2.1441,-2.1441,-2.1441,-2.1441,-2.1441,-2.1441,-2.1441,-2.1441,-2.1441,-2.1441,-2.1441,-2.1441,-2.1441,-2.1441,-2.1441,-2.1441,-2.1441,-2.1441,-2.1441,-2.1441,-2.1441,-2.1441,-2.1441,-2.1441,-2.1441,-2.1441,-2.1441,-2.1441,0.0,0.0,-1.5601,-1.3648,0.0,0.0,0.0,0.0,0.0,0.0,0.0,0.0,0.0,0.0,0.0,0.0,0.0,0.0,0.0,-0.9822,-0.9958,-1.0907,-1.2169,0.0,-1.2766,-1.3505,-1.4245,-1.4855,-1.4848,-1.5364,-1.6619,-1.7053,-1.7358,-1.7561,-1.7758,-1.786,-1.786,-1.786,-1.786,-1.786,-1.8077,-1.8213,-1.8321,-1.8518,-1.8674,-1.8762,-1.8762,-1.8762,-1.8762,-1.8762,-1.8762,-1.8782,-1.8871,-1.9027,-1.9203,-1.9203,-1.94,-1.9664,-1.9664,-1.9664,-1.9664,-1.9664,-1.9698,-1.9766,-1.9963,-2.0098,-2.0227,-2.0417,-2.0505,-2.0539,-2.0539,-2.0539,-2.0539,-2.0539,-2.0539,-2.056,-2.0614,-2.0702,-2.0824,-2.1034,-2.1143,-2.1265,-2.1408,-2.1441,-2.1441,-2.1441,-2.1441,-2.1441,-2.1441,-2.1441,-2.1441,-2.1441,-2.1441,-2.1441,-2.1441,-2.1441,-2.1441,-2.1441,-2.1441,-2.1441,-2.1441,-2.1441,-2.1441,-2.1441,-2.1441,-2.1441,-2.1441,-2.1441,-2.1441,-2.1441,-2.1441,-2.1441,-1.6368,-1.6503,0.0,-1.4794,-1.4177,0.0,-1.1952,0.0,0.0,0.0,0.0,0.0,0.0,0.0,0.0,0.0,0.0,-1.0812,0.0,-0.9462,-0.9551,-1.0175,0.0,0.0,-1.2006,-1.2637,-1.337,-1.4156,-1.419,-1.4726,-1.6001,-1.6632,-1.7073,-1.7331,-1.7684,-1.786,-1.786,-1.786,-1.786,-1.786,-1.8124,-1.8267,-1.8321,-1.8565,-1.8708,-1.8762,-1.8762,-1.8762,-1.8762,-1.8762,-1.8762,-1.8782,-1.8871,-1.9027,-1.9203,-1.9257,-1.9447,-1.9664,-1.9664,-1.9664,-1.9664,-1.9664,-1.9698,-1.9766,-1.9963,-2.0098,-2.0227,-2.0417,-2.0505,-2.0539,-2.0539,-2.0539,-2.0539,-2.0539,-2.0539,-2.0539,-2.0539,-2.0614,-2.0736,-2.0892,-2.1034,-2.1177,-2.1333,-2.1408,-2.1441,-2.1441,-2.1441,-2.1441,-2.1441,-2.1441,-2.1441,-2.1441,-2.1441,-2.1441,-2.1441,-2.1441,-2.1441,-2.1441,-2.1441,-2.1441,-2.1441,-2.1441,-2.1441,-2.1441,-2.1441,-2.1441,-2.1441,-2.1441,-2.1441,-2.1441,-2.1441,-2.1441]}]]